[[{"header":{"parameterUnit":"m.s-1","parameterCategory":1,"la1":31.0,"la2":29.5877,"lo1":-88.7671,"lo2":-86.6584,"dy":0.0162,"dx":0.0185,"nx":115,"ny":88,"refTime":"2023-11-20T06:00:00:Z","depth":0,"parameterNumber":2,"parameterNumberName":"U-component_of_WINDS"},"data":[0.0,0.0,0.0,0.0,0.0,0.0,0.0,0.0,0.0,0.0,0.0,0.0,0.0,0.0,0.0,0.0,0.0,0.0,0.0,0.0,0.0,0.0,0.0,0.0,0.0,0.0,0.0,0.0,0.0,0.0,0.0,0.0,0.0,0.0,0.0,0.0,0.0,0.0,0.0,0.0,0.0,0.0,0.0,0.0,0.0,0.0,0.0,0.0,0.0,0.0,0.0,0.0,0.0,0.0,0.0,0.0,0.0,0.0,0.0,0.0,0.0,0.0,0.0,0.0,0.0,0.0,0.0,0.0,0.0,0.0,0.0,0.0,0.0,0.0,0.0,0.0,0.0,0.0,0.0,0.0,0.0,0.0,0.0,0.0,0.0,0.0,0.0,0.0,0.0,0.0,0.0,0.0,0.0,0.0,0.0,0.0,0.0,0.0,0.0,0.0,0.0,0.0,0.0,0.0,0.0,0.0,0.0,0.0,0.0,0.0,0.0,0.0,0.0,0.0,0.0,0.0,0.0,0.0,0.0,0.0,0.0,0.0,0.0,0.0,0.0,0.0,0.0,0.0,0.0,0.0,0.0,0.0,0.0,0.0,0.0,0.0,0.0,0.0,0.0,0.0,0.0,0.0,0.0,0.0,0.0,0.0,0.0,0.0,0.0,0.0,0.0,0.0,0.0,0.0,0.0,0.0,0.0,0.0,0.0,0.0,0.0,0.0,0.0,0.0,0.0,0.0,0.0,0.0,0.0,0.0,0.0,0.0,0.0,0.0,0.0,0.0,0.0,0.0,0.0,0.0,0.0,0.0,0.0,0.0,0.0,0.0,0.0,0.0,0.0,0.0,0.0,0.0,0.0,0.0,0.0,0.0,0.0,0.0,0.0,0.0,0.0,0.0,0.0,0.0,0.0,0.0,0.0,0.0,0.0,0.0,0.0,0.0,0.0,0.0,0.0,0.0,0.0,0.0,0.0,0.0,0.0,0.0,0.0,0.0,0.0,0.0,0.0,0.0,0.0,0.0,0.0,0.0,0.0,0.0,0.0,0.0,0.0,0.0,0.0,0.0,0.0,0.0,0.0,0.0,0.0,0.0,0.0,0.0,0.0,0.0,0.0,0.0,0.0,0.0,0.0,0.0,0.0,0.0,0.0,0.0,0.0,0.0,0.0,0.0,0.0,0.0,0.0,0.0,0.0,0.0,0.0,0.0,0.0,0.0,0.0,0.0,0.0,0.0,0.0,0.0,0.0,0.0,0.0,0.0,0.0,0.0,0.0,0.0,0.0,0.0,0.0,0.0,0.0,0.0,0.0,0.0,0.0,0.0,0.0,0.0,0.0,0.0,0.0,0.0,0.0,0.0,0.0,0.0,0.0,0.0,0.0,0.0,0.0,0.0,0.0,0.0,0.0,0.0,0.0,0.0,0.0,0.0,0.0,0.0,0.0,0.0,0.0,0.0,0.0,0.0,0.0,0.0,0.0,0.0,0.0,0.0,0.0,0.0,0.0,0.0,0.0,0.0,0.0,0.0,0.0,0.0,0.0,0.0,0.0,0.0,0.0,0.0,0.0,0.0,0.0,0.0,0.0,0.0,0.0,0.0,0.0,0.0,0.0,0.0,0.0,0.0,0.0,0.0,0.0,0.0,0.0,0.0,0.0,0.0,0.0,0.0,0.0,0.0,0.0,0.0,0.0,0.0,0.0,0.0,0.0,0.0,0.0,0.0,0.0,0.0,0.0,0.0,0.0,0.0,0.0,0.0,0.0,0.0,0.0,0.0,0.0,0.0,0.0,0.0,0.0,0.0,0.0,0.0,0.0,0.0,0.0,0.0,0.0,0.0,0.0,0.0,0.0,0.0,0.0,0.0,0.0,0.0,0.0,0.0,0.0,0.0,0.0,0.0,0.0,0.0,0.0,0.0,0.0,0.0,0.0,0.0,0.0,0.0,0.0,0.0,0.0,0.0,0.0,0.0,0.0,0.0,0.0,0.0,0.0,0.0,0.0,0.0,0.0,0.0,0.0,0.0,0.0,0.0,0.0,0.0,0.0,0.0,0.0,0.0,0.0,0.0,0.0,0.0,0.0,0.0,0.0,0.0,0.0,0.0,0.0,0.0,0.0,0.0,0.0,0.0,0.0,0.0,0.0,0.0,0.0,0.0,0.0,0.0,0.0,0.0,0.0,0.0,0.0,0.0,0.0,0.0,0.0,0.0,0.0,0.0,0.0,0.0,0.0,0.0,0.0,0.0,0.0,0.0,0.0,0.0,0.0,0.0,0.0,0.0,0.0,0.0,0.0,0.0,0.0,0.0,0.0,0.0,0.0,0.0,0.0,0.0,0.0,0.0,0.0,0.0,0.0,0.0,0.0,0.0,0.0,0.0,0.0,0.0,0.0,0.0,0.0,0.0,0.0,0.0,0.0,0.0,0.0,0.0,0.0,0.0,0.0,0.0,0.0,0.0,0.0,0.0,0.0,0.0,0.0,0.0,0.0,0.0,0.0,0.0,0.0,0.0,0.0,0.0,0.0,0.0,0.0,0.0,0.0,0.0,0.0,0.0,0.0,0.0,0.0,0.0,0.0,0.0,0.0,0.0,0.0,0.0,0.0,0.0,0.0,0.0,0.0,0.0,0.0,0.0,0.0,0.0,0.0,0.0,0.0,0.0,0.0,0.0,0.0,0.0,0.0,0.0,0.0,0.0,0.0,0.0,0.0,0.0,0.0,0.0,0.0,0.0,0.0,0.0,0.0,0.0,0.0,0.0,0.0,0.0,0.0,0.0,0.0,0.0,0.0,0.0,0.0,0.0,0.0,0.0,0.0,0.0,0.0,0.0,0.0,0.0,0.0,0.0,0.0,0.0,0.0,0.0,0.0,0.0,0.0,0.0,0.0,0.0,0.0,0.0,0.0,0.0,0.0,0.0,0.0,0.0,0.0,0.0,0.0,0.0,0.0,0.0,0.0,0.0,0.0,0.0,0.0,0.0,0.0,0.0,0.0,0.0,0.0,0.0,0.0,0.0,0.0,0.0,0.0,0.0,0.0,0.0,0.0,0.0,0.0,0.0,0.0,0.0,0.0,0.0,0.0,0.0,0.0,0.0,0.0,0.0,0.0,0.0,0.0,0.0,0.0,0.0,0.0,0.0,0.0,0.0,0.0,0.0,0.0,0.0,0.0,0.0,0.0,0.0,0.0,0.0,0.0,0.0,0.0,0.0,0.0,0.0,0.0,0.0,0.0,0.0,0.0,0.0,0.0,0.0,0.0,0.0,0.0,0.0,0.0,0.0,0.0,0.0,0.0,0.0,0.0,0.0,0.0,0.0,0.0,0.0,0.0,0.0,0.0,0.0,0.0,0.0,0.0,0.0,0.0,0.0,0.0,0.0,0.0,0.0,0.0,0.0,0.0,0.0,0.0,0.0,0.0,0.0,0.0,0.0,0.0,0.0,0.0,0.0,0.0,0.0,0.0,0.0,0.0,0.0,0.0,0.0,0.0,0.0,0.0,0.0,0.0,0.0,0.0,0.0,0.0,0.0,0.0,0.0,0.0,0.0,0.0,0.0,0.0,0.0,0.0,0.0,0.0,0.0,0.0,0.0,0.0,0.0,0.0,0.0,0.0,0.0,0.0,0.0,0.0,0.0,0.0,0.0,0.0,0.0,0.0,0.0,0.0,0.0,0.0,0.0,0.0,0.0,0.0,0.0,0.0,0.0,0.0,0.0,0.0,0.0,0.0,0.0,0.0,0.0,0.0,0.0,0.0,0.0,0.0,0.0,0.0,0.0,0.0,0.0,0.0,0.0,0.0,0.0,0.0,0.0,0.0,0.0,0.0,0.0,0.0,0.0,0.0,0.0,0.0,0.0,0.0,0.0,0.0,0.0,0.0,0.0,0.0,0.0,0.0,0.0,0.0,0.0,0.0,0.0,0.0,0.0,0.0,0.0,0.0,0.0,0.0,0.0,0.0,0.0,0.0,0.0,0.0,0.0,0.0,0.0,0.0,0.0,0.0,0.0,0.0,0.0,0.0,0.0,0.0,0.0,0.0,0.0,0.0,0.0,0.0,0.0,0.0,0.0,0.0,0.0,0.0,0.0,0.0,0.0,0.0,0.0,0.0,0.0,0.0,0.0,0.0,0.0,0.0,0.0,0.0,0.0,0.0,0.0,0.0,0.0,0.0,0.0,0.0,0.0,0.0,0.0,0.0,0.0,0.0,0.0,0.0,0.0,0.0,0.0,0.0,0.0,0.0,0.0,0.0,0.0,0.0,0.0,0.0,0.0,0.0,0.0,2.5324,0.0,0.0,0.0,0.0,0.0,0.0,0.0,0.0,0.0,0.0,0.0,0.0,0.0,0.0,0.0,0.0,0.0,0.0,0.0,0.0,0.0,0.0,0.0,0.0,0.0,0.0,0.0,0.0,0.0,0.0,0.0,0.0,0.0,0.0,0.0,0.0,0.0,0.0,0.0,0.0,0.0,0.0,0.0,0.0,0.0,0.0,0.0,0.0,0.0,0.0,0.0,0.0,0.0,0.0,0.0,0.0,0.0,0.0,0.0,0.0,0.0,0.0,0.0,0.0,0.0,0.0,0.0,0.0,0.0,0.0,0.0,0.0,0.0,0.0,0.0,0.0,0.0,0.0,0.0,0.0,0.0,0.0,0.0,0.0,0.0,0.0,0.0,0.0,0.0,0.0,0.0,0.0,0.0,0.0,0.0,0.0,0.0,0.0,0.0,0.0,0.0,0.0,0.0,0.0,0.0,0.0,0.0,0.0,0.0,0.0,2.5649,2.5624,2.5556,2.5525,2.5498,0.0,0.0,0.0,0.0,0.0,0.0,0.0,0.0,0.0,0.0,0.0,0.0,0.0,0.0,0.0,0.0,0.0,0.0,0.0,0.0,0.0,0.0,0.0,0.0,0.0,0.0,0.0,0.0,0.0,0.0,0.0,0.0,0.0,0.0,0.0,0.0,0.0,0.0,0.0,0.0,0.0,0.0,0.0,0.0,0.0,0.0,0.0,0.0,0.0,0.0,0.0,0.0,0.0,0.0,0.0,0.0,0.0,0.0,0.0,0.0,0.0,0.0,0.0,0.0,0.0,0.0,0.0,0.0,0.0,0.0,0.0,0.0,0.0,0.0,0.0,0.0,0.0,0.0,0.0,0.0,0.0,0.0,0.0,0.0,0.0,0.0,0.0,0.0,0.0,0.0,0.0,0.0,0.0,0.0,0.0,0.0,0.0,0.0,0.0,0.0,0.0,0.0,0.0,0.0,0.0,0.0,0.0,0.0,0.0,0.0,0.0,0.0,2.5525,2.549,2.5499,0.0,0.0,0.0,0.0,0.0,0.0,0.0,0.0,0.0,0.0,0.0,0.0,0.0,0.0,0.0,0.0,0.0,0.0,0.0,0.0,0.0,0.0,0.0,0.0,0.0,0.0,0.0,0.0,0.0,0.0,0.0,0.0,0.0,0.0,0.0,0.0,0.0,0.0,0.0,0.0,0.0,0.0,0.0,0.0,0.0,0.0,0.0,0.0,0.0,0.0,0.0,0.0,0.0,0.0,0.0,0.0,0.0,0.0,0.0,0.0,0.0,0.0,0.0,0.0,0.0,0.0,0.0,0.0,0.0,0.0,0.0,0.0,0.0,0.0,0.0,0.0,0.0,0.0,0.0,0.0,0.0,0.0,0.0,0.0,0.0,0.0,0.0,0.0,0.0,0.0,0.0,0.0,0.0,0.0,0.0,0.0,0.0,0.0,0.0,0.0,0.0,0.0,0.0,0.0,0.0,0.0,0.0,0.0,0.0,0.0,2.5601,2.5601,2.5511,0.0,2.5404,0.0,0.0,0.0,0.0,0.0,0.0,0.0,0.0,0.0,0.0,0.0,0.0,0.0,0.0,0.0,0.0,0.0,0.0,0.0,0.0,0.0,0.0,0.0,0.0,0.0,0.0,0.0,0.0,0.0,0.0,0.0,0.0,0.0,0.0,0.0,0.0,0.0,0.0,0.0,0.0,0.0,0.0,0.0,0.0,0.0,0.0,0.0,0.0,0.0,0.0,0.0,0.0,0.0,0.0,0.0,0.0,0.0,0.0,0.0,0.0,0.0,0.0,0.0,0.0,0.0,0.0,0.0,0.0,0.0,0.0,0.0,0.0,0.0,0.0,0.0,0.0,0.0,0.0,0.0,0.0,0.0,0.0,0.0,0.0,0.0,0.0,0.0,0.0,0.0,0.0,0.0,0.0,0.0,0.0,0.0,0.0,0.0,0.0,0.0,0.0,0.0,0.0,0.0,0.0,0.0,0.0,0.0,0.0,0.0,0.0,2.5583,2.5557,2.5468,2.5412,0.0,0.0,0.0,0.0,0.0,0.0,0.0,0.0,0.0,0.0,0.0,0.0,0.0,0.0,0.0,0.0,0.0,0.0,0.0,0.0,0.0,0.0,0.0,0.0,0.0,0.0,0.0,0.0,0.0,0.0,0.0,0.0,0.0,0.0,0.0,0.0,0.0,0.0,0.0,0.0,0.0,0.0,0.0,0.0,0.0,0.0,0.0,0.0,0.0,0.0,0.0,0.0,0.0,0.0,0.0,0.0,0.0,0.0,0.0,0.0,0.0,0.0,0.0,0.0,0.0,0.0,0.0,0.0,0.0,0.0,0.0,0.0,0.0,0.0,0.0,0.0,0.0,0.0,0.0,0.0,0.0,0.0,0.0,0.0,0.0,0.0,0.0,0.0,0.0,0.0,0.0,0.0,0.0,0.0,0.0,0.0,0.0,0.0,0.0,0.0,0.0,0.0,0.0,0.0,0.0,0.0,0.0,0.0,0.0,0.0,2.5589,2.5557,2.5461,2.5429,2.5378,2.5313,0.0,0.0,0.0,0.0,0.0,0.0,0.0,0.0,0.0,0.0,0.0,0.0,0.0,0.0,0.0,0.0,0.0,0.0,0.0,0.0,0.0,0.0,0.0,0.0,0.0,0.0,0.0,0.0,0.0,0.0,0.0,0.0,0.0,0.0,0.0,0.0,0.0,0.0,0.0,0.0,0.0,0.0,0.0,0.0,0.0,0.0,0.0,0.0,0.0,0.0,0.0,0.0,0.0,0.0,0.0,0.0,0.0,0.0,0.0,0.0,0.0,0.0,0.0,0.0,0.0,0.0,0.0,0.0,0.0,0.0,0.0,0.0,0.0,0.0,0.0,0.0,0.0,0.0,0.0,0.0,0.0,0.0,0.0,0.0,0.0,0.0,0.0,0.0,0.0,0.0,0.0,0.0,0.0,0.0,0.0,0.0,0.0,0.0,0.0,0.0,0.0,0.0,0.0,0.0,0.0,0.0,0.0,0.0,2.5634,2.5589,2.5461,2.5459,2.5416,2.538,0.0,0.0,0.0,0.0,0.0,0.0,0.0,0.0,0.0,0.0,0.0,0.0,0.0,0.0,0.0,0.0,0.0,0.0,0.0,0.0,0.0,0.0,0.0,0.0,0.0,0.0,0.0,0.0,0.0,0.0,0.0,0.0,0.0,0.0,0.0,0.0,0.0,0.0,0.0,0.0,0.0,0.0,0.0,0.0,0.0,0.0,0.0,0.0,0.0,0.0,0.0,0.0,0.0,0.0,0.0,0.0,0.0,0.0,0.0,0.0,0.0,0.0,0.0,0.0,0.0,0.0,0.0,0.0,0.0,0.0,0.0,0.0,0.0,0.0,0.0,0.0,0.0,0.0,0.0,0.0,0.0,0.0,0.0,0.0,0.0,0.0,0.0,0.0,0.0,0.0,0.0,0.0,0.0,0.0,0.0,0.0,0.0,0.0,0.0,0.0,0.0,0.0,0.0,0.0,0.0,0.0,0.0,0.0,0.0,2.6385,2.6823,2.7091,2.7016,2.6969,2.6687,0.0,0.0,0.0,0.0,0.0,0.0,0.0,0.0,0.0,0.0,0.0,0.0,0.0,0.0,0.0,0.0,0.0,0.0,0.0,0.0,0.0,0.0,0.0,0.0,0.0,0.0,0.0,0.0,0.0,0.0,0.0,0.0,0.0,0.0,0.0,0.0,0.0,0.0,0.0,0.0,0.0,0.0,0.0,0.0,0.0,0.0,0.0,0.0,0.0,0.0,0.0,0.0,0.0,0.0,0.0,0.0,0.0,0.0,0.0,0.0,0.0,0.0,0.0,0.0,0.0,0.0,0.0,0.0,0.0,0.0,0.0,0.0,0.0,0.0,0.0,0.0,0.0,0.0,0.0,0.0,0.0,0.0,0.0,0.0,0.0,0.0,0.0,0.0,0.0,0.0,0.0,0.0,0.0,0.0,0.0,0.0,0.0,0.0,0.0,0.0,0.0,0.0,0.0,0.0,0.0,0.0,0.0,0.0,0.0,2.7187,0.0,2.7952,2.7923,2.7824,2.7528,0.0,0.0,0.0,0.0,0.0,0.0,0.0,0.0,0.0,0.0,0.0,0.0,0.0,0.0,0.0,0.0,0.0,0.0,0.0,0.0,0.0,0.0,0.0,0.0,0.0,0.0,0.0,0.0,0.0,0.0,0.0,0.0,0.0,0.0,0.0,0.0,0.0,0.0,0.0,0.0,0.0,0.0,0.0,0.0,0.0,0.0,0.0,0.0,0.0,0.0,0.0,0.0,0.0,0.0,0.0,0.0,0.0,0.0,0.0,0.0,0.0,0.0,0.0,0.0,0.0,0.0,0.0,0.0,0.0,0.0,0.0,0.0,0.0,0.0,0.0,0.0,0.0,0.0,0.0,0.0,0.0,0.0,0.0,0.0,0.0,0.0,0.0,0.0,0.0,0.0,0.0,0.0,0.0,0.0,0.0,0.0,0.0,0.0,0.0,0.0,0.0,0.0,0.0,0.0,0.0,0.0,0.0,0.0,2.7295,2.8009,2.8068,2.8116,2.797,2.7984,2.7838,0.0,0.0,0.0,0.0,0.0,0.0,0.0,0.0,0.0,0.0,0.0,0.0,0.0,0.0,0.0,0.0,0.0,0.0,0.0,0.0,0.0,0.0,0.0,0.0,0.0,0.0,0.0,0.0,0.0,0.0,0.0,0.0,0.0,0.0,0.0,0.0,0.0,0.0,0.0,0.0,0.0,0.0,0.0,0.0,0.0,0.0,0.0,0.0,0.0,0.0,0.0,0.0,0.0,0.0,0.0,0.0,0.0,0.0,0.0,0.0,0.0,0.0,0.0,0.0,0.0,0.0,0.0,0.0,0.0,0.0,0.0,0.0,0.0,0.0,0.0,0.0,0.0,0.0,0.0,0.0,0.0,0.0,0.0,0.0,0.0,0.0,0.0,0.0,0.0,0.0,0.0,0.0,0.0,0.0,0.0,0.0,0.0,0.0,0.0,0.0,0.0,0.0,0.0,0.0,0.0,0.0,0.0,0.0,0.0,3.0557,3.1113,3.113,3.0556,3.0394,2.9794,0.0,0.0,0.0,0.0,0.0,0.0,0.0,0.0,0.0,0.0,0.0,0.0,0.0,0.0,0.0,0.0,0.0,0.0,0.0,0.0,0.0,0.0,0.0,0.0,0.0,0.0,0.0,0.0,0.0,0.0,0.0,0.0,0.0,0.0,0.0,0.0,0.0,0.0,0.0,0.0,0.0,0.0,0.0,0.0,0.0,0.0,0.0,0.0,0.0,0.0,0.0,0.0,0.0,0.0,0.0,0.0,0.0,0.0,0.0,0.0,0.0,0.0,0.0,0.0,0.0,0.0,0.0,0.0,0.0,0.0,0.0,0.0,0.0,0.0,0.0,0.0,0.0,0.0,0.0,0.0,0.0,0.0,0.0,0.0,0.0,0.0,0.0,0.0,0.0,0.0,0.0,0.0,0.0,0.0,0.0,0.0,0.0,0.0,0.0,0.0,0.0,0.0,0.0,0.0,0.0,0.0,0.0,0.0,0.0,3.3108,3.3609,3.3481,3.2622,3.2474,3.1584,2.9875,0.0,0.0,0.0,0.0,0.0,0.0,0.0,0.0,0.0,0.0,0.0,0.0,0.0,0.0,0.0,0.0,0.0,0.0,0.0,0.0,0.0,0.0,0.0,0.0,0.0,0.0,0.0,0.0,0.0,0.0,0.0,0.0,0.0,0.0,0.0,0.0,0.0,0.0,0.0,0.0,0.0,0.0,0.0,0.0,0.0,0.0,0.0,0.0,0.0,0.0,0.0,0.0,0.0,0.0,0.0,0.0,0.0,0.0,0.0,0.0,0.0,0.0,0.0,0.0,0.0,0.0,0.0,0.0,0.0,0.0,0.0,0.0,0.0,0.0,0.0,0.0,0.0,0.0,0.0,0.0,0.0,0.0,0.0,0.0,0.0,0.0,0.0,0.0,0.0,0.0,0.0,0.0,0.0,0.0,0.0,0.0,0.0,0.0,0.0,0.0,0.0,0.0,0.0,0.0,0.0,0.0,0.0,0.0,3.5513,3.5633,3.5158,3.4088,3.3914,3.307,0.0,0.0,0.0,0.0,0.0,0.0,0.0,0.0,0.0,0.0,0.0,0.0,0.0,0.0,0.0,0.0,0.0,0.0,0.0,0.0,0.0,0.0,0.0,0.0,0.0,0.0,0.0,0.0,0.0,0.0,0.0,0.0,0.0,0.0,0.0,0.0,0.0,0.0,0.0,0.0,0.0,0.0,0.0,0.0,0.0,0.0,0.0,0.0,0.0,0.0,0.0,0.0,0.0,0.0,0.0,0.0,0.0,0.0,0.0,0.0,0.0,0.0,0.0,0.0,0.0,0.0,0.0,0.0,0.0,0.0,0.0,0.0,0.0,0.0,0.0,0.0,0.0,0.0,0.0,0.0,0.0,0.0,0.0,0.0,0.0,0.0,0.0,0.0,0.0,0.0,0.0,0.0,0.0,0.0,0.0,0.0,0.0,0.0,0.0,0.0,0.0,0.0,0.0,0.0,0.0,0.0,0.0,0.0,0.0,3.7241,3.8383,3.7414,3.419,3.3903,3.302,0.0,0.0,0.0,0.0,0.0,0.0,0.0,0.0,0.0,0.0,0.0,0.0,0.0,0.0,0.0,0.0,0.0,0.0,0.0,0.0,0.0,0.0,0.0,0.0,0.0,0.0,0.0,0.0,0.0,0.0,0.0,0.0,0.0,0.0,0.0,0.0,0.0,0.0,0.0,0.0,0.0,0.0,0.0,0.0,0.0,0.0,0.0,0.0,0.0,0.0,0.0,0.0,0.0,0.0,0.0,0.0,0.0,0.0,0.0,0.0,0.0,0.0,0.0,0.0,0.0,0.0,0.0,0.0,0.0,0.0,0.0,0.0,0.0,0.0,0.0,0.0,0.0,0.0,0.0,0.0,0.0,0.0,0.0,0.0,0.0,0.0,0.0,0.0,0.0,0.0,0.0,0.0,0.0,0.0,0.0,0.0,0.0,0.0,0.0,0.0,0.0,0.0,0.0,0.0,0.0,0.0,0.0,0.0,3.7233,3.8377,3.8908,3.8018,3.5526,3.5666,3.4813,0.0,0.0,0.0,0.0,0.0,0.0,0.0,0.0,0.0,0.0,0.0,0.0,0.0,0.0,0.0,0.0,0.0,0.0,0.0,0.0,0.0,0.0,0.0,0.0,0.0,0.0,0.0,0.0,0.0,0.0,0.0,0.0,0.0,0.0,0.0,0.0,0.0,0.0,0.0,0.0,0.0,0.0,0.0,0.0,0.0,0.0,0.0,0.0,0.0,0.0,0.0,0.0,0.0,0.0,0.0,0.0,0.0,0.0,0.0,0.0,0.0,0.0,0.0,0.0,0.0,0.0,0.0,0.0,0.0,0.0,0.0,0.0,0.0,0.0,0.0,0.0,0.0,0.0,0.0,0.0,0.0,0.0,0.0,0.0,0.0,0.0,0.0,0.0,0.0,0.0,0.0,0.0,0.0,0.0,0.0,0.0,0.0,0.0,0.0,0.0,0.0,0.0,0.0,0.0,0.0,0.0,0.0,0.0,3.7778,3.9303,3.8418,3.7927,3.7887,3.8196,3.7241,0.0,0.0,0.0,0.0,0.0,0.0,0.0,0.0,0.0,0.0,0.0,0.0,0.0,0.0,0.0,0.0,0.0,0.0,0.0,0.0,0.0,0.0,0.0,0.0,0.0,0.0,0.0,0.0,0.0,0.0,0.0,0.0,0.0,0.0,0.0,0.0,0.0,0.0,0.0,0.0,0.0,0.0,0.0,0.0,0.0,0.0,0.0,0.0,0.0,0.0,0.0,0.0,0.0,0.0,0.0,0.0,0.0,0.0,0.0,0.0,0.0,0.0,0.0,0.0,0.0,0.0,0.0,0.0,0.0,0.0,0.0,0.0,0.0,0.0,0.0,0.0,0.0,0.0,0.0,0.0,0.0,0.0,0.0,0.0,0.0,0.0,0.0,0.0,0.0,0.0,0.0,0.0,0.0,0.0,0.0,0.0,0.0,0.0,0.0,0.0,0.0,0.0,0.0,0.0,0.0,0.0,0.0,0.0,3.9435,4.0996,4.0101,3.9827,4.0321,3.8455,3.6594,0.0,0.0,0.0,0.0,0.0,0.0,0.0,0.0,0.0,0.0,0.0,0.0,0.0,0.0,0.0,0.0,0.0,0.0,0.0,0.0,0.0,0.0,0.0,0.0,0.0,0.0,0.0,0.0,0.0,0.0,0.0,0.0,0.0,0.0,0.0,0.0,0.0,0.0,0.0,0.0,0.0,0.0,0.0,0.0,0.0,0.0,0.0,0.0,2.5495,0.0,0.0,0.0,0.0,0.0,0.0,0.0,0.0,0.0,0.0,0.0,0.0,0.0,0.0,0.0,0.0,0.0,0.0,0.0,0.0,0.0,0.0,0.0,0.0,0.0,0.0,0.0,0.0,0.0,0.0,0.0,0.0,0.0,0.0,0.0,0.0,0.0,0.0,0.0,0.0,0.0,0.0,0.0,0.0,0.0,0.0,0.0,0.0,0.0,0.0,0.0,0.0,0.0,0.0,0.0,0.0,0.0,0.0,0.0,4.0168,4.0921,4.0766,4.0561,4.0405,3.902,3.746,0.0,0.0,0.0,0.0,0.0,0.0,0.0,0.0,0.0,0.0,0.0,0.0,0.0,0.0,0.0,0.0,0.0,0.0,0.0,0.0,0.0,0.0,0.0,0.0,0.0,0.0,0.0,0.0,0.0,0.0,0.0,0.0,0.0,0.0,0.0,0.0,0.0,0.0,0.0,0.0,0.0,0.0,0.0,0.0,0.0,0.0,0.0,0.0,0.0,0.0,0.0,0.0,0.0,0.0,0.0,0.0,0.0,0.0,0.0,0.0,0.0,0.0,0.0,0.0,0.0,0.0,0.0,0.0,0.0,0.0,0.0,0.0,0.0,0.0,0.0,0.0,0.0,0.0,0.0,0.0,0.0,0.0,0.0,0.0,0.0,0.0,0.0,0.0,0.0,0.0,0.0,0.0,0.0,0.0,0.0,0.0,0.0,0.0,0.0,0.0,0.0,0.0,0.0,0.0,0.0,0.0,0.0,3.9802,4.0651,4.0788,4.0971,4.0798,4.0259,3.9727,3.874,3.7355,0.0,0.0,0.0,0.0,0.0,0.0,0.0,0.0,0.0,0.0,0.0,0.0,0.0,0.0,0.0,0.0,0.0,0.0,0.0,0.0,0.0,0.0,0.0,0.0,0.0,0.0,0.0,0.0,0.0,0.0,0.0,0.0,0.0,0.0,0.0,0.0,0.0,0.0,2.6188,2.6626,0.0,0.0,0.0,0.0,0.0,0.0,0.0,0.0,2.798,0.0,0.0,0.0,0.0,0.0,0.0,0.0,0.0,0.0,0.0,0.0,0.0,0.0,0.0,0.0,0.0,0.0,0.0,0.0,0.0,0.0,0.0,0.0,0.0,0.0,0.0,0.0,0.0,0.0,0.0,0.0,0.0,0.0,0.0,0.0,0.0,0.0,0.0,0.0,0.0,0.0,0.0,0.0,0.0,0.0,0.0,0.0,0.0,0.0,0.0,0.0,0.0,0.0,0.0,0.0,0.0,4.006,4.0899,4.1953,4.3209,4.1152,4.0934,4.2636,4.0589,3.9197,3.8691,0.0,0.0,0.0,0.0,0.0,0.0,0.0,0.0,0.0,0.0,0.0,0.0,0.0,0.0,0.0,0.0,0.0,0.0,0.0,0.0,0.0,0.0,0.0,0.0,0.0,0.0,0.0,0.0,0.0,0.0,0.0,0.0,0.0,0.0,0.0,0.0,0.0,0.0,0.0,2.7832,2.8123,0.0,0.0,0.0,0.0,0.0,0.0,0.0,0.0,2.8719,0.0,0.0,0.0,0.0,0.0,0.0,0.0,0.0,0.0,0.0,0.0,0.0,0.0,0.0,0.0,0.0,0.0,0.0,0.0,0.0,0.0,0.0,0.0,0.0,0.0,0.0,0.0,0.0,0.0,0.0,0.0,0.0,0.0,0.0,0.0,0.0,0.0,0.0,0.0,0.0,0.0,0.0,0.0,0.0,0.0,0.0,0.0,0.0,0.0,0.0,0.0,0.0,0.0,0.0,0.0,3.9133,4.1533,4.2733,4.2509,4.2033,4.1806,4.1969,4.1098,4.0151,0.0,0.0,0.0,0.0,0.0,0.0,0.0,0.0,0.0,0.0,0.0,0.0,0.0,0.0,0.0,0.0,0.0,0.0,0.0,0.0,0.0,0.0,0.0,0.0,0.0,0.0,0.0,0.0,0.0,0.0,0.0,0.0,0.0,0.0,0.0,0.0,0.0,0.0,0.0,0.0,2.8638,2.9288,2.8782,0.0,0.0,0.0,0.0,0.0,0.0,2.998,2.9553,0.0,0.0,0.0,0.0,0.0,0.0,0.0,0.0,0.0,0.0,0.0,0.0,0.0,0.0,0.0,0.0,0.0,0.0,0.0,0.0,0.0,0.0,0.0,0.0,0.0,0.0,0.0,0.0,0.0,0.0,0.0,0.0,0.0,0.0,0.0,0.0,0.0,0.0,0.0,0.0,0.0,0.0,0.0,0.0,0.0,0.0,0.0,0.0,0.0,0.0,0.0,0.0,0.0,0.0,0.0,3.8626,4.1914,4.3069,4.1806,4.2735,4.2624,4.1263,4.1604,4.0989,0.0,0.0,0.0,0.0,0.0,0.0,0.0,0.0,0.0,0.0,0.0,0.0,0.0,0.0,0.0,0.0,0.0,0.0,0.0,0.0,0.0,0.0,0.0,0.0,0.0,0.0,0.0,0.0,0.0,0.0,0.0,0.0,0.0,0.0,0.0,0.0,0.0,0.0,0.0,0.0,0.0,3.0267,2.9891,3.0647,0.0,0.0,0.0,0.0,3.088,3.0744,0.0,0.0,0.0,0.0,0.0,0.0,0.0,0.0,0.0,0.0,0.0,0.0,0.0,0.0,0.0,0.0,0.0,0.0,0.0,0.0,0.0,0.0,0.0,0.0,0.0,0.0,0.0,0.0,0.0,0.0,0.0,0.0,0.0,0.0,0.0,0.0,0.0,0.0,0.0,0.0,0.0,0.0,0.0,0.0,0.0,0.0,0.0,0.0,0.0,0.0,0.0,0.0,0.0,0.0,0.0,0.0,4.1036,4.2074,4.2853,4.336,4.2586,4.2431,4.2875,4.2146,4.1126,0.0,0.0,0.0,0.0,0.0,0.0,0.0,0.0,0.0,0.0,0.0,0.0,0.0,0.0,0.0,0.0,0.0,0.0,0.0,0.0,0.0,0.0,0.0,0.0,0.0,0.0,0.0,0.0,0.0,0.0,0.0,0.0,0.0,0.0,0.0,0.0,0.0,0.0,0.0,0.0,0.0,3.0825,3.0992,3.1295,3.1721,0.0,0.0,3.2228,3.2671,3.1884,0.0,0.0,0.0,0.0,0.0,0.0,0.0,0.0,0.0,0.0,0.0,0.0,0.0,0.0,0.0,0.0,0.0,0.0,0.0,0.0,0.0,0.0,0.0,0.0,0.0,0.0,0.0,0.0,0.0,0.0,0.0,0.0,0.0,0.0,0.0,0.0,0.0,0.0,0.0,0.0,0.0,0.0,0.0,0.0,0.0,0.0,0.0,0.0,0.0,0.0,0.0,0.0,0.0,0.0,0.0,3.9299,4.1358,4.2951,4.3882,4.4158,4.4533,4.4391,4.3781,4.329,4.2099,0.0,0.0,0.0,0.0,0.0,0.0,0.0,0.0,0.0,0.0,0.0,0.0,0.0,0.0,0.0,0.0,0.0,0.0,0.0,0.0,0.0,0.0,0.0,0.0,0.0,0.0,0.0,0.0,0.0,0.0,0.0,0.0,0.0,0.0,0.0,0.0,0.0,0.0,0.0,0.0,0.0,0.0,3.1972,3.2412,0.0,0.0,0.0,3.3041,3.3208,0.0,0.0,0.0,0.0,0.0,0.0,0.0,0.0,0.0,0.0,0.0,0.0,0.0,0.0,0.0,0.0,0.0,0.0,0.0,0.0,0.0,0.0,0.0,0.0,0.0,0.0,0.0,0.0,0.0,0.0,0.0,0.0,0.0,0.0,0.0,0.0,0.0,0.0,0.0,0.0,0.0,0.0,0.0,0.0,0.0,0.0,0.0,0.0,0.0,0.0,0.0,0.0,0.0,0.0,0.0,0.0,0.0,4.1537,4.3415,4.4406,4.4533,4.5963,4.5917,4.4228,4.4209,0.0,0.0,0.0,0.0,0.0,0.0,0.0,0.0,0.0,0.0,0.0,0.0,0.0,0.0,0.0,0.0,0.0,0.0,0.0,0.0,0.0,0.0,0.0,0.0,0.0,0.0,0.0,3.0075,0.0,0.0,0.0,0.0,0.0,0.0,0.0,0.0,0.0,0.0,0.0,0.0,0.0,0.0,3.2396,3.2925,3.3542,3.4053,0.0,0.0,3.3775,3.354,3.3111,3.2622,0.0,0.0,0.0,0.0,0.0,0.0,0.0,0.0,0.0,0.0,0.0,0.0,0.0,0.0,0.0,0.0,0.0,0.0,0.0,0.0,0.0,0.0,0.0,0.0,0.0,0.0,0.0,0.0,0.0,0.0,0.0,0.0,0.0,0.0,0.0,0.0,0.0,0.0,0.0,0.0,0.0,0.0,0.0,0.0,0.0,0.0,0.0,0.0,0.0,0.0,0.0,0.0,0.0,0.0,0.0,4.2238,4.2975,4.3745,4.4505,4.5848,4.5727,4.4098,4.4605,4.3734,0.0,0.0,0.0,0.0,0.0,0.0,0.0,0.0,0.0,0.0,0.0,0.0,0.0,0.0,0.0,0.0,0.0,0.0,0.0,0.0,0.0,0.0,0.0,0.0,0.0,0.0,0.0,0.0,0.0,0.0,0.0,0.0,0.0,0.0,0.0,0.0,0.0,0.0,0.0,0.0,0.0,3.3303,3.3807,3.4506,3.494,0.0,0.0,3.4392,3.4153,3.3647,3.2901,3.1755,0.0,0.0,0.0,0.0,0.0,0.0,0.0,0.0,0.0,0.0,0.0,0.0,0.0,0.0,0.0,0.0,0.0,0.0,0.0,0.0,0.0,0.0,0.0,0.0,0.0,0.0,0.0,0.0,0.0,0.0,0.0,0.0,0.0,0.0,0.0,0.0,0.0,0.0,0.0,0.0,0.0,0.0,0.0,0.0,0.0,0.0,0.0,0.0,0.0,0.0,0.0,0.0,0.0,4.0624,4.2901,4.4083,4.4736,4.4953,4.5881,4.5819,4.4642,4.477,4.4118,0.0,0.0,0.0,0.0,0.0,0.0,0.0,0.0,0.0,0.0,0.0,0.0,0.0,0.0,0.0,0.0,0.0,0.0,0.0,0.0,0.0,0.0,0.0,0.0,0.0,0.0,0.0,0.0,3.6162,3.634,3.52,0.0,0.0,0.0,0.0,0.0,0.0,0.0,0.0,0.0,0.0,3.3449,3.414,3.4607,0.0,0.0,3.4901,3.4576,3.4331,3.3831,3.3224,3.2646,3.194,0.0,0.0,0.0,0.0,0.0,0.0,0.0,0.0,0.0,0.0,0.0,0.0,0.0,0.0,0.0,0.0,0.0,0.0,0.0,0.0,0.0,0.0,0.0,0.0,0.0,0.0,0.0,0.0,0.0,0.0,0.0,0.0,0.0,0.0,0.0,0.0,0.0,0.0,0.0,0.0,0.0,0.0,0.0,0.0,0.0,0.0,0.0,0.0,0.0,0.0,0.0,0.0,4.1467,4.396,4.4766,4.5146,4.5212,4.5897,4.5798,4.492,4.4744,4.4381,0.0,0.0,0.0,0.0,0.0,0.0,0.0,0.0,0.0,0.0,0.0,0.0,0.0,0.0,0.0,0.0,0.0,0.0,0.0,0.0,0.0,0.0,0.0,0.0,0.0,0.0,0.0,0.0,3.7051,3.6869,3.5432,0.0,0.0,0.0,0.0,0.0,0.0,0.0,0.0,0.0,0.0,3.3978,3.4519,3.4811,3.5009,3.5169,3.4921,3.4564,3.4314,3.3892,3.3416,3.307,0.0,0.0,0.0,0.0,0.0,0.0,0.0,0.0,0.0,0.0,0.0,0.0,0.0,0.0,0.0,0.0,0.0,0.0,0.0,0.0,0.0,0.0,0.0,0.0,0.0,0.0,0.0,0.0,0.0,0.0,3.5685,0.0,0.0,0.0,0.0,0.0,0.0,0.0,0.0,0.0,0.0,0.0,0.0,0.0,0.0,0.0,0.0,0.0,0.0,0.0,0.0,0.0,0.0,4.2419,4.5439,4.4594,4.4506,4.5324,4.5835,4.5697,4.4819,4.4638,4.4565,4.4381,0.0,0.0,0.0,0.0,0.0,0.0,0.0,0.0,0.0,0.0,0.0,0.0,0.0,0.0,0.0,0.0,0.0,0.0,0.0,0.0,0.0,0.0,0.0,0.0,0.0,0.0,3.871,3.859,3.7568,0.0,0.0,0.0,0.0,0.0,0.0,0.0,0.0,0.0,0.0,3.4474,3.4944,3.4787,3.517,3.5223,3.4865,3.459,3.434,3.4199,3.392,3.3436,0.0,0.0,0.0,0.0,0.0,0.0,0.0,0.0,0.0,0.0,0.0,0.0,0.0,0.0,0.0,0.0,0.0,0.0,0.0,0.0,0.0,0.0,0.0,0.0,0.0,0.0,0.0,3.9065,3.9088,0.0,0.0,0.0,0.0,0.0,0.0,0.0,0.0,0.0,0.0,0.0,4.5333,4.5603,0.0,0.0,0.0,0.0,0.0,0.0,0.0,0.0,0.0,0.0,0.0,0.0,4.3137,4.458,4.5834,4.652,4.6715,4.7352,4.75,4.7018,4.6903,4.6236,4.491,0.0,0.0,0.0,0.0,0.0,0.0,0.0,0.0,0.0,0.0,0.0,0.0,0.0,0.0,0.0,0.0,0.0,0.0,0.0,0.0,0.0,0.0,0.0,0.0,0.0,3.8763,0.0,0.0,0.0,0.0,0.0,0.0,0.0,0.0,0.0,0.0,0.0,3.3744,3.4365,3.4574,3.4684,3.4604,3.5114,3.5394,0.0,0.0,0.0,0.0,0.0,0.0,0.0,0.0,0.0,0.0,0.0,0.0,0.0,0.0,2.5452,2.5844,2.5821,2.5675,2.5415,0.0,0.0,0.0,0.0,0.0,0.0,0.0,0.0,0.0,0.0,0.0,0.0,0.0,0.0,4.2563,0.0,4.2574,0.0,0.0,0.0,0.0,0.0,0.0,0.0,0.0,4.6831,4.7014,4.7829,4.8407,4.8099,0.0,4.8102,4.7471,0.0,0.0,0.0,0.0,0.0,0.0,0.0,0.0,4.4565,4.5765,4.7225,4.7937,4.7831,4.8199,4.8304,4.8108,4.8202,4.7379,4.5456,4.5042,4.3692,0.0,0.0,0.0,0.0,0.0,0.0,0.0,0.0,0.0,0.0,0.0,0.0,0.0,0.0,0.0,0.0,0.0,0.0,0.0,0.0,0.0,0.0,0.0,3.9582,0.0,0.0,0.0,0.0,0.0,0.0,0.0,0.0,0.0,3.5154,3.4823,3.4741,3.5128,3.5169,3.5194,3.5194,0.0,0.0,0.0,0.0,0.0,0.0,0.0,3.3973,3.3514,3.2855,3.2205,3.1495,2.9818,2.8382,2.7713,0.0,0.0,2.5819,2.56,2.5518,2.533,2.5518,2.5937,2.6685,2.6648,2.6894,0.0,0.0,0.0,0.0,0.0,0.0,0.0,0.0,4.5781,4.5852,0.0,4.5919,0.0,0.0,0.0,0.0,0.0,4.6457,0.0,0.0,4.6882,4.6369,4.7278,4.8817,4.9548,4.9625,5.1087,5.1718,5.1327,4.586,0.0,0.0,0.0,0.0,0.0,0.0,4.661,4.8639,4.8605,4.8569,4.8531,4.8375,4.8218,4.8101,4.8532,4.7903,4.6247,4.6524,4.5666,4.3297,4.1611,0.0,0.0,0.0,0.0,0.0,0.0,0.0,0.0,0.0,0.0,0.0,0.0,0.0,0.0,0.0,0.0,0.0,0.0,0.0,0.0,4.0347,0.0,0.0,0.0,0.0,0.0,0.0,0.0,0.0,0.0,0.0,3.5565,3.5977,3.635,3.5925,0.0,0.0,0.0,0.0,3.5999,3.5849,3.5583,3.5226,3.4413,3.4139,3.3562,3.2606,0.0,0.0,3.0944,3.0141,2.9437,2.8864,2.8499,2.7593,2.4807,2.4093,2.3839,2.3713,2.4134,2.4682,2.585,2.6497,2.6758,4.85,0.0,0.0,0.0,0.0,4.6973,4.7181,4.7465,4.7571,4.7596,4.7671,4.7618,0.0,0.0,0.0,0.0,0.0,0.0,5.085,5.1837,5.128,5.1183,5.1395,5.1895,5.2125,5.2125,5.1931,5.1485,5.0768,4.8422,4.6882,4.6199,0.0,0.0,0.0,0.0,4.7164,4.8676,4.8642,4.8827,4.9341,4.9735,4.9784,4.9531,4.9406,4.9108,4.854,4.7497,4.6539,4.5599,4.4021,0.0,0.0,0.0,0.0,0.0,0.0,0.0,0.0,0.0,0.0,0.0,0.0,0.0,0.0,0.0,0.0,0.0,0.0,0.0,4.0845,4.0903,4.0546,0.0,0.0,0.0,0.0,0.0,0.0,0.0,0.0,0.0,3.7242,3.6821,3.6414,0.0,0.0,3.5885,3.5709,3.6044,3.6122,3.5669,3.5907,0.0,0.0,3.4366,3.3646,3.2595,3.1728,3.0621,2.9475,2.9085,2.8603,2.7521,2.6883,2.6053,2.5267,2.5694,2.6031,2.5994,2.6187,2.6536,2.7069,2.7441,2.7752,5.0988,4.9581,4.9037,4.9067,4.9395,4.9506,4.9779,5.0125,5.0239,5.0328,5.0372,5.0356,5.0372,5.0442,5.0929,0.0,0.0,0.0,5.2338,5.2782,5.2376,5.2202,5.2241,5.2549,5.2644,5.2623,5.241,5.2001,5.1392,5.0459,4.9692,4.8948,0.0,0.0,4.7365,4.7548,4.8141,4.9158,4.9418,4.9673,5.0071,5.0305,5.0228,4.9956,4.9739,4.9267,4.8472,4.801,4.737,4.653,4.547,4.4062,0.0,0.0,0.0,0.0,0.0,0.0,0.0,0.0,0.0,0.0,0.0,3.6353,3.8265,0.0,0.0,0.0,4.0954,4.1386,4.1659,4.1413,0.0,0.0,0.0,0.0,0.0,0.0,0.0,3.8888,3.8382,3.8003,3.8169,3.7547,3.6944,3.67,3.6315,3.6018,3.5902,0.0,3.6042,3.5575,3.5849,3.5692,3.4726,3.4139,3.3435,3.2345,3.1096,3.0032,2.9064,2.8635,2.8026,2.7102,2.6287,2.5772,2.5541,2.6199,2.6596,2.6391,2.6536,2.6839,2.694,2.7141,2.7302,5.2986,5.2786,5.1446,5.1238,5.1697,5.1836,5.2346,5.3119,5.3223,5.334,5.3391,5.3391,5.3447,5.3575,5.3524,0.0,5.3567,5.2704,5.2319,5.2281,5.1453,5.1087,5.1125,5.1895,5.2162,5.2158,5.285,5.3107,5.2843,5.1967,5.1497,5.1319,4.8937,4.7984,4.8396,4.8907,4.9449,4.9971,5.0558,5.0769,5.0602,5.0301,5.0064,4.9801,4.9697,4.89,4.7311,4.8338,4.8226,4.6667,4.6245,4.5745,4.4977,0.0,0.0,0.0,0.0,0.0,0.0,0.0,0.0,0.0,0.0,0.0,0.0,0.0,0.0,0.0,4.2916,0.0,4.2014,4.1805,0.0,0.0,0.0,4.0426,4.0606,4.0059,3.9557,3.9401,0.0,0.0,3.8336,3.805,3.7573,3.7052,3.659,3.6452,3.6615,3.6213,3.5858,3.5547,3.5475,3.5017,3.3936,3.3538,3.291,3.1681,3.0627,2.9849,2.925,2.8712,2.793,2.724,2.6569,2.6181,2.6041,2.5918,2.5645,2.5573,2.5793,2.5958,2.6015,2.6034,2.6059,5.6307,5.6291,5.6044,5.46,5.2463,5.2617,5.2861,5.3119,5.3182,5.3302,5.343,5.3356,5.3703,5.4413,5.4396,5.4707,5.521,5.4998,5.488,5.4801,5.4608,5.4511,5.4511,5.466,5.4715,5.4655,5.4135,5.3847,5.376,5.2688,5.2447,5.287,5.2121,5.141,5.0804,5.0743,5.1009,5.1553,5.1109,5.0688,5.0314,5.0669,5.0721,5.0486,5.0816,5.0809,5.0403,4.9816,4.9081,4.8115,4.7264,4.636,4.5493,4.464,0.0,0.0,0.0,0.0,0.0,0.0,0.0,0.0,0.0,4.112,4.297,0.0,4.3329,0.0,4.2612,4.2017,4.2196,4.1501,0.0,0.0,4.0764,4.0256,4.001,3.9657,3.9401,3.934,3.8889,3.8445,3.8219,3.7468,3.6871,3.6557,3.6471,3.6263,3.5883,3.5596,3.5211,3.4726,3.4555,3.4181,3.365,3.2672,3.1772,3.0944,3.0244,2.9587,2.9062,2.8881,2.8641,2.7734,2.7289,2.6897,2.6596,2.6537,2.6246,2.5913,2.5901,2.6025,2.6025,2.6203,2.6379,5.7497,5.7476,5.7616,5.6605,5.4928,5.5159,5.5278,5.5339,5.5429,5.5555,5.5634,5.5634,5.5923,5.6386,5.631,5.6541,5.6904,5.6922,5.6879,5.6819,5.6434,5.628,5.6198,5.5769,5.5593,5.5485,5.4943,5.4613,5.4497,5.3832,5.3626,5.3956,5.4033,5.3753,5.3125,5.2605,5.2453,5.2618,5.205,5.1578,5.123,5.1437,5.1227,5.0628,5.0773,5.0642,5.022,4.9767,4.9363,4.8925,4.8328,4.7715,4.7157,4.603,4.5217,0.0,0.0,0.0,0.0,0.0,0.0,0.0,0.0,0.0,0.0,0.0,4.4417,4.3925,4.2985,4.2372,4.2367,4.1674,4.1376,4.1482,4.1001,4.0526,4.0146,3.9898,3.962,3.9357,3.8905,3.8485,3.828,3.7698,3.7086,3.6601,3.6504,3.6235,3.5649,3.5376,3.4946,3.442,3.4217,3.3902,3.3265,3.1998,3.1037,3.0553,2.9964,2.9172,2.8574,2.8275,2.7884,2.7139,2.6542,2.6162,2.6092,2.5898,2.5634,2.5503,2.556,2.5569,2.5318,2.5413,2.5486,5.7775,5.7725,5.7929,5.7987,5.7958,5.8272,5.8322,5.8092,5.8212,5.8325,5.8392,5.8452,5.8472,5.8452,5.8371,5.8291,5.8269,5.8303,5.828,5.8242,5.7511,5.712,5.7036,5.6168,5.5677,5.558,5.5365,5.5183,5.5075,5.4852,5.4742,5.466,5.5207,5.5398,5.528,5.4605,5.3998,5.3571,5.3156,5.2817,5.2542,5.2234,5.1597,5.0659,5.0373,4.9713,4.882,4.9221,4.9373,4.9229,4.9063,4.9007,4.8972,4.7348,4.6426,0.0,4.5712,0.0,0.0,0.0,0.0,0.0,0.0,0.0,0.0,4.521,4.5136,4.4065,4.3608,4.3189,4.2626,4.2378,4.2129,4.1849,4.1426,4.1084,4.0768,4.0304,3.9891,3.9357,3.915,3.8815,3.8299,3.8007,3.7494,3.6743,3.6386,3.6009,3.5551,3.5137,3.4636,3.408,3.3892,3.3232,3.2341,3.1345,3.0599,3.0209,2.9564,2.8766,2.8074,2.738,2.6807,2.6167,2.5388,2.4896,2.515,2.4778,2.4515,2.4713,2.4713,2.4581,2.4462,2.4353,2.4115,5.9403,5.9332,5.9551,5.9642,5.9642,5.9939,5.9307,5.8092,5.8165,5.828,5.8312,5.8432,5.8432,5.8351,5.8329,5.8308,5.8303,5.828,5.828,5.828,5.8081,5.7958,5.7858,5.698,5.6485,5.6422,5.5553,5.514,5.5075,5.486,5.498,5.545,5.6068,5.6554,5.7026,0.0,0.0,0.0,5.4172,5.3572,5.3279,5.2377,5.1687,5.1154,5.0806,0.0,5.022,4.9972,4.9538,4.8929,4.8667,0.0,0.0,0.0,0.0,0.0,0.0,0.0,0.0,0.0,0.0,0.0,4.698,4.6878,4.5633,4.5104,4.4633,4.4288,4.3812,4.3637,4.3629,4.3401,4.3084,4.2442,4.2088,4.164,4.1124,4.073,4.0267,3.9517,3.9216,3.8814,3.8159,3.7444,3.6792,3.6483,3.5944,3.5525,3.5198,3.4416,3.3514,3.2641,3.2184,3.1572,3.076,3.0478,3.0023,2.9521,2.8861,2.8257,2.7838,2.7097,2.6496,2.6013,2.5473,2.4895,2.4762,2.4662,2.423,2.3657,2.351,2.3642,2.4301,2.4433,2.4317,5.9824,0.0,5.9975,6.0099,0.0,6.0342,6.002,5.9358,5.9393,5.9488,5.9601,5.9665,5.9644,5.9601,5.9518,5.9534,5.9511,5.9088,5.8873,5.885,5.8381,5.8165,5.8092,5.7596,5.7315,5.7251,5.6605,5.6331,5.6331,5.6002,5.6003,5.6243,5.6481,5.6703,5.6915,5.7032,5.6691,5.5889,5.4901,5.4266,5.3828,5.3232,5.2533,5.1705,0.0,0.0,0.0,0.0,0.0,0.0,0.0,0.0,0.0,0.0,0.0,4.8726,4.8303,4.7922,4.7836,4.8101,4.7964,4.7346,4.7203,4.6929,4.6453,4.5572,4.4921,4.4519,4.4049,4.3687,4.3371,4.3165,4.281,4.2182,4.1819,4.1387,4.083,4.0334,3.9833,3.9214,3.903,3.869,3.789,3.7526,3.7052,3.6449,3.5917,3.5341,3.4575,3.4244,3.3634,3.2749,3.1923,3.1207,3.0538,3.0,2.9527,2.8897,2.821,2.7561,2.716,2.6458,2.5792,2.5344,2.4877,2.4408,2.4172,2.4055,2.3638,2.3129,2.2849,2.2879,2.3165,2.3068,2.3084,6.0021,6.0017,6.0051,6.0099,6.0099,6.0313,6.0491,6.0623,0.0,0.0,0.0,6.0872,6.0872,6.0888,6.0804,6.0781,6.0742,6.005,5.9719,5.961,5.8933,5.8577,5.8451,5.8272,5.8092,5.7859,5.753,5.7282,5.711,5.6835,5.6534,5.6363,5.6369,5.6292,5.6203,5.5766,5.564,5.5905,5.5123,5.4422,5.402,5.3687,5.2928,5.1786,5.1563,5.0967,4.9884,4.9708,4.9471,4.9168,4.9107,4.8984,4.8861,4.8673,4.8718,4.9092,4.8995,4.8925,4.8931,4.8751,4.8345,4.7751,4.6621,4.6253,4.6779,4.593,4.5198,4.4696,4.4182,4.3717,4.3121,4.2851,4.2488,4.1938,4.1502,4.0965,4.0394,3.9886,3.9452,3.8936,3.8818,3.846,3.7636,3.7556,3.7334,3.6363,3.5772,3.5134,3.3922,3.3679,3.3369,3.2413,3.1564,3.0968,3.0335,2.9446,2.8824,2.8071,2.7239,2.6606,2.6202,2.5646,2.4994,2.4408,2.4023,2.3607,2.3237,2.2925,2.2689,2.2216,2.2216,2.1979,2.1446,2.1219,2.1176,6.0815,6.0707,6.0279,6.0099,6.0099,6.0313,6.0491,6.0585,6.0781,6.0866,6.0843,6.0888,6.0888,6.0843,6.0781,6.0781,6.0781,6.0666,6.0604,0.0,6.0367,6.0214,6.0097,5.9289,5.8547,5.7805,5.6996,5.6121,5.5367,5.5145,5.4844,5.4718,5.5137,5.5577,5.576,5.4876,5.4363,5.4163,5.3987,5.3677,5.3283,5.2161,5.1352,5.0815,5.0367,5.0045,4.9767,4.935,4.9046,4.8984,4.8736,4.8483,4.8356,4.8196,4.7968,4.7736,4.7601,4.7293,4.6834,4.6589,4.6445,4.6388,4.5574,4.5274,4.5716,4.5138,4.4785,4.4821,4.4409,4.4072,4.4152,4.3714,4.3066,4.2452,4.1923,4.1334,4.0511,4.0184,3.9779,3.9141,3.8748,3.8275,3.7618,3.6965,3.6363,3.5598,3.4936,3.4246,3.3043,3.2204,3.1478,3.0661,2.9878,2.9295,2.867,2.7719,2.7213,2.6707,2.6162,2.5612,2.526,2.4691,2.4039,2.3345,2.2807,2.2273,2.1656,2.1264,2.1002,2.0536,2.0433,2.0144,1.9794,1.9542,1.9609,6.1576,6.1498,6.1007,6.0822,6.0784,6.0627,6.0559,6.066,6.0819,6.0804,6.0781,6.0804,6.0804,6.0781,6.0781,6.0781,6.0781,6.0296,6.0018,5.9906,5.9409,5.914,5.9049,5.8678,5.8241,5.7739,5.7273,5.6776,5.6254,5.6026,5.5792,5.5581,5.5658,5.5673,5.5625,5.5119,5.4711,5.435,5.3327,5.2641,5.2243,5.1528,5.0892,5.0397,5.0022,4.9914,4.9903,4.9718,4.9607,4.959,4.9459,4.9227,4.8822,4.9148,4.9066,4.8537,4.882,4.8679,4.7972,4.7169,4.6539,4.6376,4.555,4.5113,4.5318,4.5054,4.4844,4.4772,4.4224,4.3752,4.3614,4.3163,4.2555,4.1895,4.1398,4.0795,4.0185,3.9647,3.9233,3.8607,3.808,3.7441,3.6904,3.6254,3.5598,3.4958,3.4177,3.3027,3.1883,3.1217,3.071,3.0273,2.97,2.8872,2.7921,2.737,2.6661,2.6066,2.5407,2.4833,2.4309,2.3722,2.3004,2.214,2.1665,2.1341,2.0732,2.0516,2.0077,1.9681,1.9312,1.9129,1.8618,1.8047,1.8047,6.237,6.2331,6.1842,6.169,6.1675,6.113,6.0942,6.0954,6.0873,6.0781,6.0781,6.0781,6.0781,6.0781,6.0781,6.0781,6.0681,6.0018,5.9638,5.9486,5.886,5.854,5.8459,5.8459,5.829,5.8016,5.792,5.7726,5.7359,5.7092,5.6849,5.6556,5.6166,5.5834,5.5566,5.535,5.5119,5.4713,5.3302,5.2308,5.1951,5.167,5.1234,5.0691,5.04,5.0317,5.0338,5.018,5.0124,5.0088,5.0017,4.9739,4.9278,4.9726,4.9618,4.9126,4.9419,4.9347,4.8388,4.7196,4.6312,4.6079,4.5092,4.4599,4.4712,4.4555,4.4462,4.4369,4.3681,4.3136,4.2776,4.2092,4.1498,4.0997,4.0389,3.9878,3.9258,3.8816,3.8267,3.7785,3.7227,3.658,3.6036,3.5488,3.4825,3.3952,3.3027,3.1883,3.084,3.0392,3.0039,2.9667,2.9294,2.8545,2.7521,2.69,2.6294,2.5349,2.4759,2.4115,2.3429,2.2778,2.2161,2.131,2.093,2.0686,2.006,1.9801,1.9555,1.905,1.868,1.8411,1.769,1.6952,1.6657,6.32,6.3124,6.2677,6.262,6.2748,6.1989,6.1761,6.1799,6.1142,6.0781,6.0896,6.0781,6.0819,6.0781,6.0781,6.0757,6.071,6.0608,6.0457,6.0353,6.0288,6.0223,6.0064,6.0102,5.9674,5.8872,5.8767,5.8242,5.731,5.7099,5.6743,5.6166,5.5828,5.5603,5.5432,5.5109,5.4786,5.4639,5.4092,5.3708,5.3387,5.3001,5.2544,5.2011,5.1583,5.1303,5.1051,5.0426,5.0156,5.0085,4.9632,4.9278,4.9062,4.8762,4.8349,4.7743,4.7574,4.6916,4.5733,4.4696,4.4356,4.4257,4.3518,4.3183,4.3626,4.2943,4.2749,4.3232,4.2749,4.2164,4.2065,4.1298,4.0364,3.9827,3.9312,3.8712,3.8022,3.7809,3.7489,3.6904,3.6254,3.5685,3.5135,3.4491,3.3706,3.2685,3.1767,3.0859,3.0157,2.945,2.8874,2.814,2.7642,2.7418,2.6692,2.5839,2.5135,2.4378,2.3976,2.3325,2.2702,2.2201,2.1783,2.0763,2.0271,1.989,1.9624,1.9242,1.8721,1.8198,1.7908,1.7641,1.7033,1.6295,1.6003,6.4068,6.403,6.3554,6.3161,6.2968,6.2613,6.2605,6.2732,6.2386,6.2257,6.2281,6.2281,6.1743,6.0819,6.0757,6.071,6.0685,6.061,6.0571,6.048,6.0491,6.0398,6.0408,6.0352,6.0103,5.9642,5.9551,5.9203,5.8635,5.8277,5.7893,5.7359,5.7095,5.6822,5.6455,5.621,5.5995,5.5685,5.5257,5.4868,5.4442,5.3381,5.2577,5.2096,5.16,5.1389,5.1363,5.099,5.0773,5.0739,5.0408,4.9963,4.9541,4.9156,4.8686,4.8177,4.7446,4.6611,4.558,4.4697,4.4089,4.3854,4.2848,4.2436,4.2625,4.1769,4.1372,4.1571,4.1372,4.1198,4.1097,4.016,3.9337,3.8896,3.8267,3.7548,3.7143,3.658,3.6145,3.5927,3.5268,3.4602,3.4134,3.3261,3.2468,3.1516,3.0743,3.0077,2.9468,2.8618,2.7867,2.7313,2.6627,2.6035,2.5675,2.5103,2.4331,2.3843,2.3272,2.2652,2.2066,2.1487,2.1098,2.0185,1.965,1.9125,1.8754,1.8347,1.794,1.7267,1.646,1.6115,1.5744,1.5052,1.4714,6.4596,6.452,6.4313,6.3969,6.3628,6.3465,6.3461,6.3578,6.3322,6.3207,6.3281,6.332,6.2666,6.1565,6.1401,6.1376,6.1326,6.1222,6.1207,6.1141,6.0895,6.0714,6.0714,6.0399,6.0235,6.0068,5.9944,5.9753,5.9474,5.9022,5.8572,5.826,5.795,5.7631,5.7188,5.6984,5.6707,5.6292,5.5879,5.5472,5.4904,5.3758,5.2839,5.2466,5.1956,5.1699,5.1688,5.1404,5.1132,5.1135,5.0679,5.0292,4.9773,4.9178,4.8687,4.8019,4.7076,4.6195,4.5446,4.4527,4.3776,4.3232,4.2262,4.1597,4.1372,4.0567,3.9981,3.975,3.9672,3.9544,3.975,3.9025,3.8267,3.7844,3.712,3.658,3.6277,3.5598,3.5157,3.4936,3.4155,3.3501,3.3006,3.2125,3.1416,3.0761,3.0149,2.949,2.8805,2.7992,2.7344,2.6711,2.5549,2.4936,2.4906,2.4436,2.3881,2.3092,2.2563,2.1984,2.1411,2.0775,2.0123,1.9193,1.8664,1.8215,1.7922,1.7538,1.6909,1.6226,1.5437,1.4747,1.4738,1.3949,1.3537,6.4596,6.4671,6.4989,6.5144,6.5222,6.4547,6.4353,6.4411,6.3643,6.3284,6.3435,6.3397,6.3232,6.3105,6.3105,6.2989,6.2881,6.2776,6.271,6.2548,6.1898,6.1554,6.1516,6.0704,6.0273,6.0297,6.0102,5.9726,5.9215,5.8743,5.84,5.8179,5.7715,5.7338,5.7087,5.6707,5.6328,5.607,5.5648,5.5234,5.471,5.42,5.3775,5.3413,5.301,5.2597,5.2137,5.1549,5.1059,5.08,5.0026,4.9501,4.9259,4.8407,4.7563,4.6756,4.5956,4.523,4.4434,4.3491,4.2652,4.2164,4.1172,4.0491,4.0134,3.9465,3.8761,3.808,3.775,3.7774,3.8258,3.7702,3.7012,3.6472,3.6145,3.5621,3.5113,3.4801,3.4267,3.3749,3.3152,3.2506,3.1616,3.1129,3.0742,3.0137,2.9775,2.9169,2.8321,2.7781,2.6931,2.5897,2.4894,2.4217,2.4342,2.3735,2.2905,2.2209,2.1503,2.1134,2.0111,1.9334,1.8799,1.816,1.7444,1.6991,1.6817,1.649,1.5719,1.5035,1.4331,1.3842,1.3587,1.32,1.2738,6.4671,6.4817,6.5099,6.5226,6.5283,6.5108,6.5102,6.5268,6.4895,6.4833,6.491,6.4923,6.4833,6.4753,6.4688,6.4057,6.3044,6.2949,6.2921,6.2892,6.2548,6.2433,6.2366,6.1942,6.1766,6.159,6.0913,6.0001,5.902,5.8656,5.8275,5.795,5.7583,5.7188,5.6776,5.6292,5.5901,5.5555,5.5113,5.4683,5.4269,5.3815,5.3416,5.3008,5.2661,5.2236,5.1769,5.1177,5.0679,5.0058,4.9501,4.8934,4.8407,4.7593,4.6638,4.5776,4.511,4.4369,4.3396,4.2431,4.167,4.1097,4.0058,3.9362,3.8945,3.8451,3.7916,3.7309,3.7058,3.6972,3.6723,3.6314,3.5817,3.5268,3.4847,3.4553,3.4225,3.3811,3.3319,3.312,3.2494,3.1799,3.1146,3.0719,3.0187,2.9733,2.9151,2.8511,2.7858,2.7029,2.599,2.4975,2.4028,2.3134,2.2754,2.2326,2.1713,2.1085,2.0379,1.9844,1.9119,1.8094,1.7442,1.7037,1.6196,1.5403,1.5165,1.4414,1.3842,1.3584,1.2768,1.2386,1.2459,1.1701,1.1429,6.4935,6.4926,6.5061,6.5161,6.5258,6.5383,6.5532,6.5701,6.5635,6.5728,6.5872,6.582,6.5701,6.5608,6.5523,6.492,6.3858,6.3723,6.3732,6.3694,6.3465,6.3312,6.3176,6.2826,6.2579,6.2406,6.1576,6.0453,5.9346,5.8943,5.8399,5.7763,5.7437,5.7036,5.6546,5.6106,5.5613,5.5139,5.4683,5.4239,5.3783,5.3349,5.287,5.2274,5.1915,5.1623,5.1177,5.0723,5.0104,4.9421,4.8852,4.8072,4.7219,4.6462,4.5656,4.4741,4.4181,4.3478,4.2574,4.1734,4.0927,4.0487,3.9544,3.88,3.8371,3.7668,3.7035,3.668,3.609,3.5714,3.5294,3.4863,3.4588,3.4361,3.4175,3.3843,3.3555,3.2869,3.2276,3.1992,3.1584,3.1011,3.0605,3.0139,2.9605,2.9261,2.8404,2.7851,2.723,2.6356,2.5242,2.4242,2.325,2.231,2.1552,2.0933,2.0573,1.9893,1.9447,1.8841,1.785,1.684,1.605,1.5788,1.4982,1.4036,1.3117,1.2358,1.1992,1.1741,1.1188,1.0658,1.0438,1.006,0.9792,6.5426,6.5078,6.5031,6.5209,6.5308,6.539,6.5465,6.558,6.5608,6.5728,6.5872,6.582,6.5701,6.558,6.5523,6.5388,6.5214,6.5108,6.5146,6.5108,6.4496,6.4123,6.3993,6.3251,6.271,6.2504,6.1883,6.108,6.0087,5.9583,5.8841,5.7765,5.7297,5.6884,5.6383,5.5879,5.5413,5.493,5.4397,5.3815,5.3247,5.28,5.2203,5.1475,5.1102,5.08,5.0723,5.0058,4.9421,4.8852,4.8072,4.6959,4.5837,4.5321,4.4648,4.3709,4.3136,4.2503,4.1925,4.1157,4.0526,4.0153,3.9417,3.8564,3.785,3.6905,3.6115,3.5714,3.507,3.4265,3.4093,3.3595,3.3513,3.4129,3.3767,3.3193,3.2815,3.2129,3.1172,3.0525,3.0438,3.0204,2.9422,2.9244,2.8867,2.8297,2.7802,2.7366,2.6643,2.5798,2.4829,2.3596,2.2387,2.1356,2.0391,1.9546,1.9298,1.8914,1.853,1.7933,1.6654,1.5557,1.4818,1.4279,1.311,1.2171,1.1516,1.0895,1.0411,1.0016,0.9439,0.9046,0.8692,0.8331,0.8036,6.656,6.6556,6.6056,6.5897,6.596,6.5581,6.5465,6.558,6.5608,6.5701,6.5793,6.5701,6.5646,6.5523,6.5465,6.5444,6.5413,6.5413,6.5413,6.5337,6.5108,6.4963,6.4832,6.4508,6.3858,6.3049,6.2553,6.1815,6.0803,6.025,5.9468,5.8419,5.7867,5.7101,5.612,5.5531,5.493,5.4303,5.3783,5.3213,5.259,5.2164,5.1623,5.1027,5.0493,4.9947,4.9309,4.9178,4.8769,4.8103,4.7422,4.6373,4.5018,4.4275,4.3614,4.2652,4.2065,4.1398,4.067,3.9844,3.9145,3.8839,3.7848,3.7054,3.6567,3.5972,3.5294,3.4846,3.4445,3.4248,3.3837,3.3113,3.2858,3.3155,3.2613,3.2163,3.2046,3.1439,3.0865,3.0391,3.0116,2.9713,2.9034,2.8673,2.8156,2.7605,2.7067,2.6356,2.5861,2.4887,2.3665,2.2421,2.1358,2.0371,1.937,1.8356,1.7812,1.7579,1.7179,1.6646,1.5381,1.4423,1.3545,1.2593,1.1417,1.0496,0.9973,0.9331,0.8707,0.8364,0.7974,0.758,0.7178,0.6753,0.6316,6.7313,6.724,6.6783,6.6663,6.6836,6.6466,6.62,6.6078,6.6078,6.5981,6.5793,6.5608,6.5552,6.5494,6.5405,6.5413,6.5413,6.5413,6.5383,6.5383,6.5352,6.5321,6.5226,6.4993,6.448,6.3689,6.3215,6.2464,6.1365,6.0871,6.0026,5.8963,5.834,5.7683,5.6611,5.5637,5.4908,5.429,5.345,5.2661,5.1987,5.1549,5.1027,5.0416,4.9789,4.9066,4.8355,4.8187,4.7849,4.7163,4.6462,4.5264,4.3871,4.33,4.2555,4.167,4.0971,4.044,3.9715,3.8867,3.8071,3.7793,3.7173,3.6341,3.5758,3.5361,3.4679,3.4268,3.3633,3.3368,3.3233,3.2384,3.2011,3.1951,3.1645,3.1239,3.0992,3.0699,3.0307,2.9787,2.9413,2.8905,2.8362,2.7949,2.737,2.6666,2.6072,2.5426,2.4781,2.3802,2.2585,2.1496,2.034,1.9413,1.8259,1.741,1.6538,1.6093,1.5626,1.5081,1.4113,1.3142,1.224,1.0893,0.9698,0.9159,0.8495,0.7557,0.6906,0.6693,0.6448,0.5696,0.5115,0.4875,0.4451,6.7796,6.7316,6.7279,6.7464,6.7749,6.7697,6.7362,6.7036,6.6902,6.6566,6.6089,6.5991,6.5714,6.5609,6.5635,6.5566,6.5413,6.5413,6.5352,6.529,6.5258,6.5194,6.5095,6.467,6.4367,6.4091,6.3712,6.2983,6.204,6.1482,6.0518,5.9312,5.8795,5.8107,5.7237,5.6229,5.5135,5.4364,5.3207,5.2131,5.1401,5.0951,5.0416,4.9582,4.9097,4.8438,4.7679,4.6989,4.6638,4.6314,4.5081,4.3871,4.2846,4.2262,4.1471,4.0491,3.9827,3.9327,3.8897,3.8105,3.7507,3.7179,3.6827,3.661,3.5431,3.461,3.4024,3.3853,3.2671,3.1898,3.2053,3.1488,3.0954,3.0732,3.0717,3.0495,2.9917,2.9674,2.943,2.8922,2.8395,2.7849,2.72,2.68,2.6264,2.5607,2.511,2.4431,2.3639,2.2677,2.1672,2.0599,1.9583,1.8507,1.7355,1.6346,1.547,1.4822,1.4223,1.3523,1.264,1.1664,1.0711,0.9342,0.8253,0.7562,0.6881,0.6078,0.5527,0.5273,0.4692,0.3797,0.3252,0.3011,0.2593,6.8964,6.898,6.8375,6.8262,6.8472,6.8079,6.7859,6.7841,6.7744,6.7611,6.7467,6.7391,6.688,6.646,6.6361,6.6025,6.5536,6.539,6.5321,6.5258,6.5061,6.4993,6.4888,6.4558,6.4244,6.4,6.361,6.3131,6.261,6.2047,6.1208,6.0012,5.9313,5.821,5.6683,5.5671,5.4566,5.3446,5.2511,5.1623,5.1027,5.0448,4.9821,4.9097,4.8521,4.7764,4.6844,4.5446,4.4926,4.4926,4.3871,4.2749,4.1769,4.0945,4.0134,3.9312,3.8477,3.7892,3.7378,3.6916,3.6455,3.5961,3.5756,3.5058,3.4329,3.3514,3.2956,3.2488,3.1574,3.1121,3.1102,3.0638,2.9987,2.9447,2.9647,2.9613,2.9185,2.879,2.8527,2.7981,2.7749,2.7115,2.631,2.5772,2.5246,2.4567,2.3941,2.3322,2.2723,2.1785,2.0674,1.9735,1.8683,1.7689,1.6543,1.5527,1.4506,1.3621,1.2956,1.201,1.1102,1.0072,0.8981,0.7799,0.6831,0.6133,0.5282,0.4586,0.4159,0.3725,0.2871,0.2006,0.1582,0.1307,0.0726,6.9332,6.9582,6.9091,6.9133,6.9386,6.8963,6.8782,6.8663,6.8526,6.8327,6.8148,6.802,6.7692,6.724,6.7171,6.6681,6.5925,6.5817,6.5569,6.5061,6.4781,6.4671,6.4558,6.4284,6.4,6.3742,6.3336,6.2953,6.2567,6.2185,6.1348,6.0402,5.9486,5.8234,5.6863,5.5246,5.4123,5.2986,5.1966,5.1027,5.0448,4.9821,4.9178,4.8521,4.7819,4.6989,4.5656,4.4247,4.3586,4.3491,4.2722,4.1644,4.0642,3.9827,3.9,3.8161,3.7311,3.665,3.6246,3.5624,3.5064,3.4677,3.4414,3.3821,3.3124,3.2536,3.2024,3.1485,3.0753,3.0544,3.0346,2.9941,2.9361,2.8892,2.8843,2.871,2.8312,2.8145,2.7927,2.7439,2.6993,2.6542,2.5844,2.5295,2.4606,2.3956,2.3453,2.2678,2.1894,2.0781,1.9692,1.8685,1.7733,1.6545,1.5397,1.438,1.3079,1.2333,1.0806,1.0016,0.9292,0.8264,0.7357,0.6286,0.5389,0.4498,0.3631,0.2903,0.2316,0.1739,0.1019,0.0437,0.0,-0.0728,-0.1311,6.9246,6.9614,6.9577,6.9815,7.0111,7.0147,6.9823,6.9482,6.9343,6.8992,6.8526,6.8234,6.8279,6.8018,6.8012,6.7522,6.6624,6.6434,6.5703,6.508,6.452,6.4324,6.4244,6.4,6.3742,6.3474,6.3002,6.2654,6.2271,6.1696,6.1055,6.0104,5.8892,5.7898,5.6609,5.497,5.369,5.2638,5.1404,5.0416,4.9821,4.9178,4.8521,4.7819,4.6872,4.5808,4.4434,4.3204,4.2555,4.2431,4.1571,4.0642,3.9494,3.8687,3.7916,3.7021,3.6306,3.5714,3.5417,3.4675,3.4052,3.3677,3.3658,3.3139,3.2207,3.1854,3.1561,3.0947,3.0206,2.9906,2.9613,2.941,2.8946,2.8519,2.8292,2.79,2.7669,2.7582,2.75,2.709,2.6399,2.6114,2.5596,2.5158,2.4424,2.3373,2.2873,2.1914,2.0982,1.9882,1.877,1.7684,1.6526,1.5475,1.4192,1.3051,1.1887,1.0697,0.8683,0.7577,0.7193,0.6369,0.5622,0.4845,0.3731,0.281,0.1769,0.1177,0.0586,-0.0146,-0.0874,-0.1457,-0.204,-0.2621,-0.3348,6.9246,6.9614,6.9614,6.9815,7.0149,7.0185,7.0247,7.0247,7.0184,6.9993,6.998,6.9878,6.9464,6.8929,6.889,6.8368,6.7431,6.6793,6.5825,6.4747,6.4443,6.4121,6.3953,6.3736,6.3557,6.3242,6.2953,6.2515,6.1933,6.0896,6.0094,5.9364,5.788,5.6503,5.5247,5.4176,5.2818,5.1652,5.0711,4.9868,4.9178,4.8604,4.7934,4.6989,4.5718,4.4434,4.3204,4.2164,4.1246,4.0516,4.0032,3.9465,3.855,3.7596,3.6898,3.6317,3.5511,3.4934,3.4668,3.4196,3.3498,3.2981,3.3068,3.2762,3.2023,3.1661,3.1212,3.0594,3.0054,2.9631,2.9083,2.8583,2.8297,2.8051,2.7602,2.7122,2.6692,2.6831,2.6876,2.6349,2.6129,2.5751,2.4776,2.4391,2.3665,2.2924,2.21,2.1124,2.0039,1.8959,1.7822,1.6683,1.5345,1.4135,1.2782,1.1306,0.9784,0.8585,0.6725,0.5167,0.4807,0.4167,0.3388,0.2757,0.2127,0.1056,0.0,-0.0446,-0.1035,-0.1909,-0.2773,-0.3212,-0.3946,-0.467,-0.5241,6.916,6.9495,6.9577,6.9815,7.0077,7.0114,7.0289,7.0457,7.0424,7.0419,7.0483,7.0451,7.0151,6.9769,6.9699,6.918,6.824,6.7195,6.618,6.5312,6.4847,6.4411,6.378,6.3465,6.3194,6.288,6.2164,6.164,6.099,5.9946,5.8899,5.8219,5.6694,5.5383,5.4119,5.2964,5.1792,5.0775,4.9947,4.9228,4.8604,4.7934,4.6959,4.5718,4.434,4.3012,4.2137,4.0945,3.993,3.9154,3.8721,3.8334,3.7689,3.6951,3.6318,3.5909,3.4984,3.4407,3.4206,3.3817,3.3242,3.2739,3.2712,3.2335,3.1648,3.1155,3.0819,3.0293,2.9763,2.9402,2.8734,2.8397,2.8005,2.7595,2.7311,2.6742,2.6442,2.6467,2.6505,2.584,2.5669,2.518,2.4616,2.3944,2.2968,2.23,2.1443,2.0444,1.9117,1.8,1.6812,1.5641,1.4291,1.2916,1.1219,0.9516,0.7488,0.6101,0.4542,0.3292,0.2499,0.1869,0.1089,0.0618,0.0154,-0.0917,-0.1822,-0.226,-0.2992,-0.4022,-0.4744,-0.5305,-0.572,-0.6443,-0.7003,6.9109,6.9374,6.9536,6.9776,6.9966,7.0003,7.0147,7.0353,7.0319,7.0353,7.0386,7.0419,7.0342,7.0348,7.0281,6.9722,6.8785,6.7884,6.6822,6.599,6.5282,6.4538,6.3713,6.301,6.2365,6.2251,6.1402,6.0738,5.9901,5.8721,5.7701,5.6814,5.5311,5.4089,5.3147,5.1908,5.0788,5.0058,4.934,4.8604,4.7934,4.7163,4.5898,4.4219,4.2889,4.1815,4.087,3.9851,3.8859,3.8248,3.7715,3.7465,3.7109,3.6613,3.5994,3.5778,3.4763,3.4371,3.4193,3.3672,3.3043,3.257,3.2411,3.2025,3.123,3.0771,3.0307,2.9876,2.9494,2.9018,2.8523,2.8156,2.7765,2.736,2.71,2.6692,2.6357,2.6142,2.5869,2.5436,2.5229,2.4888,2.4209,2.3593,2.2633,2.1637,2.0737,1.9682,1.8319,1.695,1.5718,1.4322,1.2944,1.0618,0.891,0.7665,0.5639,0.4073,0.2665,0.1568,0.0471,-0.0313,-0.0781,-0.1093,-0.1711,-0.2627,-0.3533,-0.4114,-0.485,-0.605,-0.6612,-0.6857,-0.7551,-0.824,-0.8659,6.9109,6.9374,6.9536,6.9737,6.9929,6.9966,7.0111,7.0286,7.0286,7.0319,7.0419,7.0419,7.0353,7.0319,7.0286,6.9725,6.8903,6.83,6.7613,6.6623,6.5683,6.4547,6.3373,6.223,6.1208,6.0461,6.016,5.9777,5.8752,5.7434,5.6439,5.5468,5.4093,5.2927,5.2072,5.1092,5.0214,4.9421,4.8687,4.7934,4.7163,4.6166,4.4776,4.2916,4.1796,4.0771,3.9823,3.9071,3.8431,3.7652,3.7565,3.725,3.6903,3.6372,3.5905,3.5495,3.4713,3.4211,3.4316,3.3406,3.2821,3.2375,3.1951,3.1305,3.0977,3.0607,3.0095,2.9721,2.917,2.8535,2.7879,2.765,2.7245,2.6823,2.6531,2.6253,2.5653,2.5451,2.5395,2.4943,2.473,2.4341,2.3587,2.2843,2.1786,2.0737,1.9833,1.8774,1.7407,1.6033,1.4645,1.3252,1.1553,0.891,0.6268,0.5173,0.3607,0.2352,0.1098,0.0,-0.1098,-0.204,-0.2667,-0.2975,-0.3439,-0.4204,-0.4951,-0.5695,-0.6586,-0.7625,-0.8031,-0.8431,-0.9148,-0.9854,-1.0298,6.9072,6.9327,6.9495,6.9697,6.9777,6.9929,7.0076,7.0251,7.0289,7.0286,7.0353,7.0353,7.0319,7.0251,7.0182,6.9809,6.9398,6.9092,6.8442,6.7409,6.6201,6.4679,6.3194,6.1812,6.0259,5.9203,5.8788,5.8524,5.7658,5.623,5.5271,5.4359,5.3073,5.2092,5.1177,5.037,4.9582,4.8769,4.8019,4.7046,4.6077,4.4869,4.3177,4.1895,4.0875,4.0095,3.9379,3.8611,3.8135,3.7814,3.7502,3.6954,3.6452,3.6081,3.5828,3.5382,3.4536,3.4066,3.4013,3.3169,3.2566,3.2134,3.1478,3.1145,3.0634,3.0168,2.9568,2.8995,2.8563,2.7985,2.768,2.726,2.6838,2.6399,2.6107,2.5667,2.5226,2.4784,2.4488,2.4341,2.4044,2.3438,2.2843,2.1948,2.0887,1.9844,1.8936,1.7721,1.6501,1.496,1.3568,1.1238,0.9376,0.7041,0.4549,0.3295,0.204,0.0628,-0.0471,-0.1413,-0.251,-0.3607,-0.4547,-0.517,-0.5633,-0.5936,-0.6555,-0.7301,-0.8198,-0.9081,-0.934,-0.9904,-1.0787,-1.1371,-1.1665,6.9027,6.9203,6.9453,6.9617,6.9699,6.9853,7.0041,7.0255,7.022,7.0289,7.0353,7.0319,7.0251,7.0182,7.0076,6.9929,6.9891,6.9659,6.9042,6.8194,6.6941,6.5264,6.3246,6.1615,5.9921,5.7783,5.7178,5.674,5.6434,5.5278,5.4209,5.3416,5.2378,5.1401,5.057,4.9741,4.8852,4.8019,4.7046,4.6077,4.4656,4.3067,4.1702,4.0772,4.0115,3.9539,3.8753,3.7977,3.7574,3.7308,3.686,3.6311,3.5677,3.542,3.5191,3.4883,3.4108,3.3685,3.3329,3.2755,3.2034,3.1546,3.1243,3.071,3.0266,2.9409,2.8722,2.813,2.771,2.7405,2.7114,2.6677,2.6253,2.596,2.552,2.5079,2.4784,2.4341,2.3748,2.3438,2.3141,2.2408,2.1684,2.1048,2.0145,1.8926,1.8025,1.6644,1.542,1.3714,1.1863,0.9221,0.6885,0.4857,0.2982,0.157,0.0314,-0.0942,-0.1884,-0.2825,-0.392,-0.5016,-0.5955,-0.6736,-0.7517,-0.7821,-0.8301,-0.8774,-0.9506,-1.0235,-1.0673,-1.1109,-1.1848,-1.2429,-1.2719,6.8937,6.9203,6.9369,6.9495,6.9617,6.9815,7.0004,7.0185,7.0185,7.0255,7.0319,7.0324,7.0182,7.0039,7.0004,6.9929,6.9853,6.9697,6.9382,6.8753,6.7523,6.5605,6.3162,6.1402,5.9421,5.7295,5.621,5.5553,5.5166,5.4372,5.3483,5.2731,5.1769,5.08,4.9947,4.9097,4.8271,4.7306,4.6137,4.4712,4.3024,4.1944,4.1028,4.0184,3.9479,3.8783,3.7885,3.7155,3.6774,3.6139,3.5603,3.5047,3.425,3.3707,3.3211,3.2984,3.3139,3.3532,3.282,3.1983,3.1439,3.0835,3.0283,2.9728,2.9282,2.8707,2.8,2.7695,2.7289,2.7027,2.6603,2.6135,2.5828,2.5589,2.5363,2.473,2.4407,2.398,2.3342,2.2404,2.2011,2.1325,2.0536,2.0027,1.939,1.8177,1.6959,1.5573,1.3891,1.2198,1.0036,0.7232,0.5209,0.3164,0.1577,0.0158,-0.1257,-0.2515,-0.3454,-0.4393,-0.5486,-0.6577,-0.7361,-0.8145,-0.8925,-0.9547,-0.9858,-1.0325,-1.0796,-1.1238,-1.1664,-1.2293,-1.2783,-1.3363,-1.3763,6.9575,6.9116,6.9246,6.9374,6.9617,6.9737,6.9967,7.0149,7.0149,7.0147,7.0251,7.0147,7.0039,6.9929,6.9929,6.9967,6.9853,6.9697,6.9453,6.8928,6.7691,6.5965,6.4097,6.2024,5.9757,5.7775,5.628,5.5189,5.4475,5.3817,5.3076,5.2059,5.1177,5.0182,4.9291,4.8438,4.7478,4.6343,4.4996,4.3568,4.2364,4.1384,4.0475,3.9552,3.8948,3.816,3.745,3.6838,3.6389,3.5727,3.522,3.4544,3.3669,3.2895,3.2277,3.1318,3.1219,3.1358,3.1597,3.096,3.0551,3.0014,2.9425,2.8851,2.8418,2.787,2.7289,2.6969,2.6704,2.6495,2.6256,2.6084,2.5855,2.5718,2.5187,2.4599,2.3996,2.3441,2.2894,2.1789,2.0835,2.0167,1.9315,1.8622,1.797,1.7186,1.5786,1.423,1.2083,0.9771,0.7586,0.5235,0.3347,0.1762,0.0319,-0.1112,-0.2523,-0.3935,-0.4863,-0.5802,-0.7201,-0.8292,-0.8764,-0.9703,-1.0635,-1.1101,-1.1262,-1.1572,-1.1882,-1.2347,-1.2656,-1.312,-1.3583,-1.4191,-1.4758,7.0374,6.9581,6.9491,6.952,6.9577,6.9659,6.9929,7.0149,7.0039,7.0111,7.022,7.0076,6.9966,6.9929,6.9966,6.9929,6.9853,6.9657,6.9374,6.8728,6.7773,6.6418,6.4656,6.2727,6.0902,5.8719,5.7555,5.6157,5.4805,5.395,5.3108,5.154,5.057,4.9707,4.8653,4.7809,4.6904,4.5336,4.3912,4.2679,4.1766,4.0947,4.0037,3.9113,3.8413,3.7814,3.6989,3.6142,3.5554,3.506,3.4199,3.3291,3.2543,3.1733,3.0793,3.0004,2.9626,2.9543,2.978,2.9676,2.9329,2.8995,2.8671,2.8006,2.7569,2.713,2.679,2.6552,2.6397,2.621,2.6115,2.5978,2.5702,2.5424,2.5132,2.4559,2.3957,2.2995,2.2175,2.119,2.0093,1.9053,1.8173,1.7244,1.6552,1.6044,1.4617,1.2738,1.0274,0.7802,0.575,0.3529,0.1931,0.0323,-0.1126,-0.256,-0.3969,-0.5198,-0.6281,-0.7361,-0.8604,-0.9542,-1.0169,-1.1107,-1.2037,-1.2347,-1.2347,-1.2656,-1.2811,-1.312,-1.3428,-1.3891,-1.4507,-1.4968,-1.5888,7.0983,7.1088,7.048,7.0035,6.9652,6.9659,6.9929,7.0149,7.0039,7.0039,7.0185,7.0076,7.0003,7.0003,6.9966,6.9891,6.9699,6.9498,6.9246,6.8772,6.8062,6.678,6.5186,6.3631,6.2036,6.0043,5.8663,5.7394,5.609,5.4849,5.3182,5.1089,5.05,4.9356,4.8377,4.7492,4.6092,4.4529,4.315,4.208,4.1097,4.0241,3.949,3.855,3.774,3.6989,3.6034,3.4879,3.408,3.3672,3.2796,3.1764,3.1168,3.0364,2.956,2.8771,2.8519,2.8316,2.8271,2.8473,2.833,2.813,2.7819,2.7422,2.6978,2.6786,2.6598,2.657,2.6323,2.6074,2.5949,2.5824,2.5651,2.5075,2.4649,2.386,2.3225,2.2096,2.1268,2.0419,1.9508,1.8331,1.7066,1.5989,1.52,1.468,1.2601,1.0855,0.834,0.5814,0.4046,0.211,0.0488,-0.0976,-0.2435,-0.387,-0.5428,-0.6795,-0.7855,-0.8774,-0.9853,-1.0635,-1.1262,-1.2037,-1.2811,-1.312,-1.3428,-1.3583,-1.3583,-1.3744,-1.4053,-1.4669,-1.5429,-1.6186,-1.695,7.2298,7.2022,7.177,7.1149,7.0331,7.0372,7.0269,7.0079,6.9966,6.9966,7.0076,7.0114,7.0076,7.0003,7.0003,6.9891,6.9699,6.9416,6.9078,6.8679,6.8049,6.712,6.5836,6.4434,6.2952,6.1183,5.9768,5.8079,5.6478,5.56,5.4013,5.2324,5.1033,4.9877,4.8798,4.6956,4.5285,4.3859,4.2669,4.1663,4.0862,3.9844,3.8987,3.7829,3.6816,3.6034,3.5046,3.4047,3.3292,3.253,3.1763,3.0861,3.0118,2.9333,2.8627,2.8028,2.783,2.7584,2.7326,2.755,2.7526,2.7184,2.7087,2.6843,2.6692,2.653,2.642,2.6309,2.6153,2.5926,2.563,2.5621,2.5453,2.4799,2.4132,2.3308,2.2495,2.1364,2.0411,1.9593,1.8702,1.7656,1.6187,1.486,1.4048,1.3276,1.1011,0.8756,0.6354,0.4091,0.246,0.0658,-0.0987,-0.2631,-0.4103,-0.5523,-0.7061,-0.826,-0.9281,-1.0186,-1.0946,-1.1566,-1.2192,-1.2965,-1.3428,-1.3898,-1.4053,-1.4353,-1.4353,-1.4361,-1.4822,-1.5437,-1.6348,-1.7264,-1.8016,7.3242,7.2918,7.2929,7.2274,7.1195,7.0897,7.0684,7.0384,7.0043,6.9967,7.0003,7.0114,7.0114,7.0003,6.9966,6.9854,6.962,6.9332,6.899,6.8575,6.7996,6.7305,6.6342,6.5126,6.3615,6.2196,6.0774,5.9108,5.7409,5.6182,5.4577,5.309,5.2002,5.0649,4.8663,4.6542,4.4494,4.3316,4.2248,4.1233,4.0268,3.9239,3.8171,3.6967,3.6013,3.5025,3.4173,3.3292,3.253,3.1873,3.112,3.0343,2.9516,2.8992,2.8423,2.7947,2.757,2.7365,2.7056,2.6978,2.7087,2.6914,2.6655,2.6683,2.6558,2.632,2.633,2.6007,2.5985,2.5766,2.5296,2.5268,2.4857,2.4172,2.3377,2.2567,2.1618,2.0642,1.9705,1.8751,1.7647,1.6483,1.481,1.3144,1.1605,1.0536,0.8574,0.6595,0.4786,0.265,0.0996,-0.0665,-0.2501,-0.4163,-0.5814,-0.7196,-0.8545,-0.9442,-1.0459,-1.1286,-1.2037,-1.2501,-1.312,-1.359,-1.4053,-1.4515,-1.4669,-1.4814,-1.4814,-1.4822,-1.559,-1.6357,-1.6959,-1.7873,-1.8926,7.3628,7.3777,7.3886,7.3146,7.1987,7.1161,7.0985,7.0991,7.0271,6.9967,7.0003,7.0039,7.0003,6.9966,6.9929,6.9738,6.9498,6.9122,6.8809,6.8383,6.7773,6.7117,6.6222,6.5161,6.3974,6.3319,6.1772,6.0156,5.8717,5.7157,5.5312,5.3152,5.1668,5.0353,4.8581,4.611,4.4126,4.2886,4.1712,4.0476,3.9239,3.8074,3.7011,3.5911,3.5046,3.4173,3.3292,3.253,3.1873,3.123,3.0283,2.9567,2.9125,2.8989,2.8461,2.7819,2.8228,2.7792,2.6901,2.6871,2.6599,2.6725,2.6625,2.6553,2.6466,2.6289,2.6095,2.5845,2.5648,2.5384,2.5092,2.4614,2.3976,2.3187,2.2384,2.1577,2.0607,1.9795,1.8827,1.7682,1.6361,1.4878,1.3211,1.138,0.9216,0.7702,0.6041,0.436,0.2843,0.117,-0.0669,-0.2342,-0.4191,-0.5861,-0.7497,-0.8693,-1.0045,-1.0947,-1.1646,-1.2298,-1.2831,-1.3436,-1.3898,-1.4361,-1.4515,-1.4822,-1.4968,-1.5275,-1.5429,-1.5744,-1.651,-1.7273,-1.7883,-1.8491,-1.9552,7.3578,7.3715,7.3875,7.3822,7.3408,7.2741,7.2003,7.1105,7.0346,6.9967,7.0003,7.0003,6.9966,6.9929,6.9777,6.962,6.9332,6.8983,6.8613,6.8134,6.756,6.6736,6.5914,6.5008,6.4041,6.3015,6.185,6.0637,5.9253,5.7449,5.5594,5.3473,5.0239,4.8381,4.7131,4.5411,4.3675,4.211,4.0639,3.9239,3.8074,3.7011,3.5788,3.4673,3.4047,3.3292,3.253,3.1763,3.1156,3.058,2.9653,2.9278,2.8837,2.8686,2.8523,2.8038,2.8178,2.7842,2.7032,2.6534,2.6235,2.6262,2.6445,2.6213,2.6109,2.6004,2.5753,2.5435,2.5117,2.4798,2.432,2.3496,2.2854,2.2073,2.1265,2.0455,1.9479,1.8827,1.7846,1.6525,1.5043,1.3052,1.122,0.9212,0.7212,0.5373,0.3864,0.252,0.1006,-0.0671,-0.2349,-0.4193,-0.6044,-0.7554,-0.9017,-1.0214,-1.1063,-1.1949,-1.2635,-1.3127,-1.3678,-1.4068,-1.4376,-1.4692,-1.483,-1.4968,-1.5333,-1.5666,-1.6221,-1.6815,-1.7473,-1.8094,-1.8683,-1.9453,-2.0524,7.3665,7.3665,7.3961,7.416,7.4192,7.3608,7.2456,7.1103,7.027,6.9929,6.9929,7.0004,6.9891,6.9777,6.9659,6.9498,6.916,6.88,6.8431,6.7945,6.7305,6.6559,6.5725,6.4738,6.3681,6.2557,6.1332,6.0096,5.8542,5.6652,5.4238,5.128,4.8177,4.6464,4.5249,4.3985,4.2445,4.0918,3.9498,3.8074,3.6889,3.5788,3.4797,3.3922,3.3165,3.253,3.18,3.1229,3.0686,3.0021,2.9413,2.9133,2.8643,2.8585,2.8443,2.8208,2.7459,2.7214,2.6711,2.6017,2.5674,2.57,2.5911,2.5753,2.5594,2.5435,2.5117,2.4639,2.432,2.368,2.3199,2.2372,2.1739,2.0952,2.014,1.9316,1.85,1.7682,1.6525,1.5208,1.3556,1.1392,0.9221,0.7041,0.4868,0.3358,0.168,0.0504,-0.0672,-0.2352,-0.4034,-0.5712,-0.7387,-0.8896,-1.0195,-1.1429,-1.2281,-1.2963,-1.3475,-1.3826,-1.4136,-1.4515,-1.4692,-1.5049,-1.5082,-1.5269,-1.5768,-1.6242,-1.6834,-1.7442,-1.8221,-1.8815,-1.9364,-2.0298,-2.1265,7.3678,7.3665,7.4056,7.4206,7.4154,7.3608,7.2494,7.1142,7.0308,6.9929,6.9891,6.9891,6.9853,6.9699,6.9498,6.9332,6.9116,6.8707,6.8284,6.7789,6.7081,6.6283,6.5403,6.4393,6.3314,6.2088,6.0837,5.9295,5.7322,5.4813,5.2041,4.9061,4.6276,4.4661,4.3508,4.2248,4.0966,3.9615,3.8313,3.6868,3.5788,3.4673,3.3796,3.3038,3.2403,3.18,3.1154,3.0601,3.0131,2.9631,2.9102,2.8818,2.871,2.8927,2.8537,2.7835,2.6873,2.6581,2.6215,2.5448,2.4958,2.4798,2.4798,2.497,2.4811,2.4639,2.416,2.368,2.3199,2.2556,2.2073,2.1427,2.0779,1.9967,1.9163,1.8337,1.7355,1.6369,1.5208,1.3721,1.2063,0.9893,0.7722,0.5373,0.3191,0.1512,0.0,-0.168,-0.2856,-0.3696,-0.5376,-0.7052,-0.8562,-0.9898,-1.1186,-1.2459,-1.3186,-1.3864,-1.4214,-1.4553,-1.4688,-1.4748,-1.4999,-1.5228,-1.5244,-1.5582,-1.6094,-1.6729,-1.7511,-1.8115,-1.8872,-1.9471,-2.021,-2.1131,-2.2107,7.3678,7.3665,7.4056,7.4252,7.4237,7.3741,7.296,7.1976,7.1104,7.0498,6.9891,6.9891,6.9815,6.9617,6.9457,6.9203,6.8892,6.8517,6.8033,6.7469,6.6852,6.5914,6.4941,6.397,6.2787,6.1575,6.0266,5.8574,5.6061,5.3331,4.9909,4.6855,4.4774,4.327,4.1923,4.0432,3.9474,3.841,3.6989,3.5911,3.4797,3.3796,3.3058,3.2185,3.1561,3.0894,3.0443,3.0104,2.9696,2.9093,2.9266,2.9117,2.8178,2.8325,2.8191,2.69,2.6477,2.6228,2.5448,2.4652,2.4,2.384,2.368,2.352,2.3532,2.352,2.3199,2.2717,2.2234,2.1588,2.0941,2.0455,1.9805,1.9163,1.8183,1.7355,1.6369,1.5208,1.3887,1.189,1.0232,0.8219,0.6047,0.4031,0.1847,0.0,-0.1849,-0.3362,-0.4705,-0.5547,-0.655,-0.8227,-0.9731,-1.0898,-1.2229,-1.3349,-1.4073,-1.4614,-1.4808,-1.5011,-1.5066,-1.5168,-1.5382,-1.5581,-1.5772,-1.6098,-1.6573,-1.7372,-1.8169,-1.8936,-1.9688,-2.0302,-2.0924,-2.1866,-2.3162,7.3665,7.3665,7.3961,7.4206,7.4319,7.4203,7.3644,7.2772,7.1597,7.0649,6.9929,6.9853,6.9737,6.9577,6.9332,6.9072,6.8791,6.8321,6.7863,6.7286,6.6559,6.5597,6.4669,6.3535,6.229,6.1019,5.934,5.7534,5.4757,5.0871,4.7273,4.5395,4.3577,4.2125,4.0639,3.9121,3.7692,3.6846,3.5767,3.4797,3.3942,3.3058,3.2094,3.1486,3.0871,3.0212,2.9868,2.9705,2.9228,2.8916,2.9252,2.8941,2.8016,2.7817,2.724,2.6188,2.5409,2.5117,2.4492,2.3852,2.3199,2.2878,2.2406,2.2073,2.2073,2.2073,2.1911,2.1588,2.1103,2.0617,1.9967,1.9479,1.8827,1.8183,1.7355,1.6369,1.5208,1.4052,1.2222,1.0232,0.8223,0.6214,0.4369,0.2352,0.0504,-0.1176,-0.3024,-0.4537,-0.5712,-0.6721,-0.7725,-0.923,-1.057,-1.1902,-1.3065,-1.4052,-1.4624,-1.5016,-1.5255,-1.5481,-1.5577,-1.5528,-1.5512,-1.5905,-1.6165,-1.6656,-1.6994,-1.7891,-1.8668,-1.961,-2.0422,-2.1379,-2.2008,-2.278,-2.4296,7.3615,7.3665,7.3961,7.4252,7.4519,7.4737,7.4364,7.3492,7.1938,7.0763,7.0157,6.9776,6.9659,6.9536,6.9246,6.8937,6.8613,6.8171,6.765,6.7117,6.6197,6.5273,6.4253,6.3165,6.1816,6.0238,5.8374,5.6152,5.2882,4.9307,4.606,4.4126,4.2351,4.0894,3.9474,3.7812,3.6359,3.5129,3.4629,3.3828,3.3027,3.215,3.1374,3.1114,3.049,2.9766,2.9568,2.9456,2.9101,2.8964,2.8641,2.8432,2.7777,2.6969,2.6175,2.5422,2.4639,2.416,2.368,2.2889,2.2245,2.1761,2.1276,2.0984,2.0842,2.1124,2.0941,2.0617,2.013,1.9865,1.9395,1.8777,1.8293,1.7356,1.6393,1.5393,1.4383,1.2836,1.0597,0.8584,0.6717,0.4873,0.2856,0.1009,-0.0504,-0.2354,-0.4199,-0.5712,-0.6888,-0.7893,-0.8896,-1.007,-1.1237,-1.2567,-1.3562,-1.4375,-1.4982,-1.5396,-1.5512,-1.5634,-1.574,-1.5683,-1.5626,-1.6062,-1.6503,-1.6914,-1.7421,-1.8465,-1.9374,-2.0237,-2.121,-2.2339,-2.3282,-2.4157,-2.5296,7.3665,7.3777,7.4206,7.4476,7.4649,7.4812,7.4402,7.353,7.2545,7.1559,7.0801,7.0079,6.962,6.9416,6.9122,6.8846,6.8468,6.8018,6.7451,6.6736,6.5851,6.4873,6.3754,6.2634,6.1283,5.9675,5.7598,5.4571,5.0784,4.7432,4.4967,4.3219,4.1444,3.9826,3.8291,3.6502,3.5211,3.3934,3.3315,3.286,3.23,3.1888,3.1336,3.0753,3.0098,2.9591,2.9265,2.8989,2.8746,2.8532,2.8409,2.782,2.6922,2.5885,2.5117,2.432,2.384,2.3359,2.274,2.2106,2.1481,2.1146,2.0669,2.0252,1.9935,2.0181,2.015,1.9825,1.9375,1.9125,1.8688,1.8072,1.7443,1.6516,1.557,1.4549,1.3363,1.1244,0.8977,0.7091,0.539,0.3367,0.1516,-0.0168,-0.1681,-0.336,-0.5203,-0.6714,-0.7889,-0.8896,-0.9903,-1.0904,-1.1896,-1.2899,-1.4059,-1.4713,-1.5334,-1.5655,-1.5795,-1.5926,-1.5894,-1.5861,-1.5829,-1.6245,-1.6673,-1.7026,-1.7846,-1.8961,-1.9755,-2.0586,-2.1867,-2.2945,-2.4685,-2.5741,-2.6724,7.3665,7.3852,7.4297,7.4563,7.4691,7.4854,7.4629,7.4023,7.2886,7.2128,7.1405,7.0342,6.9539,6.9332,6.9027,6.8707,6.8321,6.781,6.723,6.65,6.5497,6.4532,6.3388,6.2201,6.0837,5.9185,5.5783,5.2388,4.8509,4.6141,4.3991,4.2125,4.0408,3.867,3.7032,3.5542,3.4298,3.2952,3.2427,3.2106,3.1744,3.1199,3.0926,3.0269,2.9744,2.9195,2.8877,2.8535,2.8133,2.7622,2.7393,2.6346,2.5568,2.4798,2.4172,2.3371,2.2889,2.2567,2.1956,2.1362,2.0763,2.0447,2.0405,1.9884,1.9404,1.9688,1.9336,1.9014,1.9014,1.8746,1.7909,1.744,1.6438,1.5647,1.4635,1.3613,1.1892,0.9635,0.7723,0.6001,0.3938,0.1884,0.0171,-0.1351,-0.304,-0.44,-0.6081,-0.7383,-0.8558,-0.9731,-1.0737,-1.1736,-1.2567,-1.339,-1.4383,-1.5051,-1.5703,-1.5875,-1.6048,-1.6016,-1.5975,-1.6008,-1.604,-1.6205,-1.6698,-1.7199,-1.801,-1.899,-2.012,-2.092,-2.2211,-2.3656,-2.5409,-2.7291,-2.853,7.3703,7.3938,7.4297,7.4606,7.4733,7.4854,7.4895,7.4591,7.3265,7.2429,7.1968,7.0488,6.9724,6.9284,6.8892,6.8565,6.8121,6.7596,6.7004,6.6136,6.5141,6.4112,6.2939,6.1723,5.9847,5.7141,5.3809,5.0414,4.6796,4.4859,4.2886,4.1033,3.9354,3.7747,3.6081,3.4752,3.3762,3.2698,3.2063,3.1614,3.1152,3.071,3.0431,2.9954,2.9245,2.8507,2.8286,2.7748,2.7409,2.6711,2.6043,2.5104,2.432,2.3852,2.3199,2.2567,2.2,2.1676,2.1068,2.0734,2.0136,1.9884,1.9884,1.9635,1.9306,1.8987,1.863,1.8309,1.8309,1.7935,1.7264,1.643,1.5592,1.4421,1.3561,1.2503,1.0254,0.7999,0.6429,0.4691,0.2777,0.0521,-0.1035,-0.2556,-0.4081,-0.5452,-0.6613,-0.7753,-0.8892,-1.0232,-1.1403,-1.2401,-1.339,-1.4052,-1.4713,-1.5216,-1.5883,-1.5883,-1.6048,-1.6048,-1.6048,-1.6048,-1.6048,-1.6213,-1.6542,-1.7199,-1.8019,-1.899,-1.9957,-2.1254,-2.2705,-2.4308,-2.6504,-2.8218,-3.0083,7.3826,7.4252,7.4432,7.4649,7.4854,7.4895,7.4895,7.4743,7.3833,7.2957,7.2081,7.109,7.0093,6.9072,6.8846,6.8468,6.7967,6.7341,6.6618,6.5725,6.4806,6.3681,6.2266,6.0523,5.7892,5.4849,5.1748,4.8826,4.6115,4.3899,4.2005,4.0504,3.8653,3.7148,3.5781,3.4566,3.3274,3.2296,3.1554,3.1148,3.0584,3.0306,3.055,2.99,2.9154,2.863,2.8075,2.7222,2.6477,2.5727,2.4786,2.4,2.3359,2.2889,2.2418,2.1849,2.1274,2.1032,2.0621,2.0286,1.9874,1.9735,1.9702,1.9439,1.9136,1.8858,1.8361,1.7569,1.7371,1.6902,1.6207,1.5557,1.4548,1.341,1.239,1.058,0.8452,0.6855,0.5265,0.3498,0.1743,-0.0174,-0.1917,-0.3457,-0.4819,-0.6182,-0.7635,-0.8764,-0.9731,-1.0898,-1.2069,-1.2893,-1.3887,-1.4383,-1.4713,-1.5381,-1.5883,-1.6048,-1.6048,-1.6048,-1.6048,-1.6048,-1.6048,-1.6048,-1.6706,-1.7363,-1.8183,-1.899,-2.0282,-2.1566,-2.3175,-2.4933,-2.7134,-2.9308,-3.1162]},{"header":{"parameterUnit":"m.s-1","parameterCategory":1,"la1":31.0,"la2":29.5877,"lo1":-88.7671,"lo2":-86.6584,"dy":0.0162,"dx":0.0185,"nx":115,"ny":88,"refTime":"2023-11-20T06:00:00:Z","depth":0,"parameterNumber":3,"parameterNumberName":"V-component_of_WINDS"},"data":[0.0,0.0,0.0,0.0,0.0,0.0,0.0,0.0,0.0,0.0,0.0,0.0,0.0,0.0,0.0,0.0,0.0,0.0,0.0,0.0,0.0,0.0,0.0,0.0,0.0,0.0,0.0,0.0,0.0,0.0,0.0,0.0,0.0,0.0,0.0,0.0,0.0,0.0,0.0,0.0,0.0,0.0,0.0,0.0,0.0,0.0,0.0,0.0,0.0,0.0,0.0,0.0,0.0,0.0,0.0,0.0,0.0,0.0,0.0,0.0,0.0,0.0,0.0,0.0,0.0,0.0,0.0,0.0,0.0,0.0,0.0,0.0,0.0,0.0,0.0,0.0,0.0,0.0,0.0,0.0,0.0,0.0,0.0,0.0,0.0,0.0,0.0,0.0,0.0,0.0,0.0,0.0,0.0,0.0,0.0,0.0,0.0,0.0,0.0,0.0,0.0,0.0,0.0,0.0,0.0,0.0,0.0,0.0,0.0,0.0,0.0,0.0,0.0,0.0,0.0,0.0,0.0,0.0,0.0,0.0,0.0,0.0,0.0,0.0,0.0,0.0,0.0,0.0,0.0,0.0,0.0,0.0,0.0,0.0,0.0,0.0,0.0,0.0,0.0,0.0,0.0,0.0,0.0,0.0,0.0,0.0,0.0,0.0,0.0,0.0,0.0,0.0,0.0,0.0,0.0,0.0,0.0,0.0,0.0,0.0,0.0,0.0,0.0,0.0,0.0,0.0,0.0,0.0,0.0,0.0,0.0,0.0,0.0,0.0,0.0,0.0,0.0,0.0,0.0,0.0,0.0,0.0,0.0,0.0,0.0,0.0,0.0,0.0,0.0,0.0,0.0,0.0,0.0,0.0,0.0,0.0,0.0,0.0,0.0,0.0,0.0,0.0,0.0,0.0,0.0,0.0,0.0,0.0,0.0,0.0,0.0,0.0,0.0,0.0,0.0,0.0,0.0,0.0,0.0,0.0,0.0,0.0,0.0,0.0,0.0,0.0,0.0,0.0,0.0,0.0,0.0,0.0,0.0,0.0,0.0,0.0,0.0,0.0,0.0,0.0,0.0,0.0,0.0,0.0,0.0,0.0,0.0,0.0,0.0,0.0,0.0,0.0,0.0,0.0,0.0,0.0,0.0,0.0,0.0,0.0,0.0,0.0,0.0,0.0,0.0,0.0,0.0,0.0,0.0,0.0,0.0,0.0,0.0,0.0,0.0,0.0,0.0,0.0,0.0,0.0,0.0,0.0,0.0,0.0,0.0,0.0,0.0,0.0,0.0,0.0,0.0,0.0,0.0,0.0,0.0,0.0,0.0,0.0,0.0,0.0,0.0,0.0,0.0,0.0,0.0,0.0,0.0,0.0,0.0,0.0,0.0,0.0,0.0,0.0,0.0,0.0,0.0,0.0,0.0,0.0,0.0,0.0,0.0,0.0,0.0,0.0,0.0,0.0,0.0,0.0,0.0,0.0,0.0,0.0,0.0,0.0,0.0,0.0,0.0,0.0,0.0,0.0,0.0,0.0,0.0,0.0,0.0,0.0,0.0,0.0,0.0,0.0,0.0,0.0,0.0,0.0,0.0,0.0,0.0,0.0,0.0,0.0,0.0,0.0,0.0,0.0,0.0,0.0,0.0,0.0,0.0,0.0,0.0,0.0,0.0,0.0,0.0,0.0,0.0,0.0,0.0,0.0,0.0,0.0,0.0,0.0,0.0,0.0,0.0,0.0,0.0,0.0,0.0,0.0,0.0,0.0,0.0,0.0,0.0,0.0,0.0,0.0,0.0,0.0,0.0,0.0,0.0,0.0,0.0,0.0,0.0,0.0,0.0,0.0,0.0,0.0,0.0,0.0,0.0,0.0,0.0,0.0,0.0,0.0,0.0,0.0,0.0,0.0,0.0,0.0,0.0,0.0,0.0,0.0,0.0,0.0,0.0,0.0,0.0,0.0,0.0,0.0,0.0,0.0,0.0,0.0,0.0,0.0,0.0,0.0,0.0,0.0,0.0,0.0,0.0,0.0,0.0,0.0,0.0,0.0,0.0,0.0,0.0,0.0,0.0,0.0,0.0,0.0,0.0,0.0,0.0,0.0,0.0,0.0,0.0,0.0,0.0,0.0,0.0,0.0,0.0,0.0,0.0,0.0,0.0,0.0,0.0,0.0,0.0,0.0,0.0,0.0,0.0,0.0,0.0,0.0,0.0,0.0,0.0,0.0,0.0,0.0,0.0,0.0,0.0,0.0,0.0,0.0,0.0,0.0,0.0,0.0,0.0,0.0,0.0,0.0,0.0,0.0,0.0,0.0,0.0,0.0,0.0,0.0,0.0,0.0,0.0,0.0,0.0,0.0,0.0,0.0,0.0,0.0,0.0,0.0,0.0,0.0,0.0,0.0,0.0,0.0,0.0,0.0,0.0,0.0,0.0,0.0,0.0,0.0,0.0,0.0,0.0,0.0,0.0,0.0,0.0,0.0,0.0,0.0,0.0,0.0,0.0,0.0,0.0,0.0,0.0,0.0,0.0,0.0,0.0,0.0,0.0,0.0,0.0,0.0,0.0,0.0,0.0,0.0,0.0,0.0,0.0,0.0,0.0,0.0,0.0,0.0,0.0,0.0,0.0,0.0,0.0,0.0,0.0,0.0,0.0,0.0,0.0,0.0,0.0,0.0,0.0,0.0,0.0,0.0,0.0,0.0,0.0,0.0,0.0,0.0,0.0,0.0,0.0,0.0,0.0,0.0,0.0,0.0,0.0,0.0,0.0,0.0,0.0,0.0,0.0,0.0,0.0,0.0,0.0,0.0,0.0,0.0,0.0,0.0,0.0,0.0,0.0,0.0,0.0,0.0,0.0,0.0,0.0,0.0,0.0,0.0,0.0,0.0,0.0,0.0,0.0,0.0,0.0,0.0,0.0,0.0,0.0,0.0,0.0,0.0,0.0,0.0,0.0,0.0,0.0,0.0,0.0,0.0,0.0,0.0,0.0,0.0,0.0,0.0,0.0,0.0,0.0,0.0,0.0,0.0,0.0,0.0,0.0,0.0,0.0,0.0,0.0,0.0,0.0,0.0,0.0,0.0,0.0,0.0,0.0,0.0,0.0,0.0,0.0,0.0,0.0,0.0,0.0,0.0,0.0,0.0,0.0,0.0,0.0,0.0,0.0,0.0,0.0,0.0,0.0,0.0,0.0,0.0,0.0,0.0,0.0,0.0,0.0,0.0,0.0,0.0,0.0,0.0,0.0,0.0,0.0,0.0,0.0,0.0,0.0,0.0,0.0,0.0,0.0,0.0,0.0,0.0,0.0,0.0,0.0,0.0,0.0,0.0,0.0,0.0,0.0,0.0,0.0,0.0,0.0,0.0,0.0,0.0,0.0,0.0,0.0,0.0,0.0,0.0,0.0,0.0,0.0,0.0,0.0,0.0,0.0,0.0,0.0,0.0,0.0,0.0,0.0,0.0,0.0,0.0,0.0,0.0,0.0,0.0,0.0,0.0,0.0,0.0,0.0,0.0,0.0,0.0,0.0,0.0,0.0,0.0,0.0,0.0,0.0,0.0,0.0,0.0,0.0,0.0,0.0,0.0,0.0,0.0,0.0,0.0,0.0,0.0,0.0,0.0,0.0,0.0,0.0,0.0,0.0,0.0,0.0,0.0,0.0,0.0,0.0,0.0,0.0,0.0,0.0,0.0,0.0,0.0,0.0,0.0,0.0,0.0,0.0,0.0,0.0,0.0,0.0,0.0,0.0,0.0,0.0,0.0,0.0,0.0,0.0,0.0,0.0,0.0,0.0,0.0,0.0,0.0,0.0,0.0,0.0,0.0,0.0,0.0,0.0,0.0,0.0,0.0,0.0,0.0,0.0,0.0,0.0,0.0,0.0,0.0,0.0,0.0,0.0,0.0,0.0,0.0,0.0,0.0,0.0,0.0,0.0,0.0,0.0,0.0,0.0,0.0,0.0,0.0,0.0,0.0,0.0,0.0,0.0,0.0,0.0,0.0,0.0,0.0,0.0,0.0,0.0,0.0,0.0,0.0,0.0,0.0,0.0,0.0,0.0,0.0,0.0,0.0,0.0,0.0,0.0,0.0,0.0,0.0,0.0,0.0,0.0,0.0,0.0,0.0,0.0,0.0,0.0,0.0,0.0,0.0,0.0,0.0,0.0,0.0,0.0,0.0,0.0,0.0,0.0,0.0,0.0,0.0,0.0,0.0,0.0,0.0,0.0,0.0,0.0,0.0,0.0,0.0,0.0,0.0,0.0,0.0,0.0,0.0,0.0,0.0,0.3053,0.0,0.0,0.0,0.0,0.0,0.0,0.0,0.0,0.0,0.0,0.0,0.0,0.0,0.0,0.0,0.0,0.0,0.0,0.0,0.0,0.0,0.0,0.0,0.0,0.0,0.0,0.0,0.0,0.0,0.0,0.0,0.0,0.0,0.0,0.0,0.0,0.0,0.0,0.0,0.0,0.0,0.0,0.0,0.0,0.0,0.0,0.0,0.0,0.0,0.0,0.0,0.0,0.0,0.0,0.0,0.0,0.0,0.0,0.0,0.0,0.0,0.0,0.0,0.0,0.0,0.0,0.0,0.0,0.0,0.0,0.0,0.0,0.0,0.0,0.0,0.0,0.0,0.0,0.0,0.0,0.0,0.0,0.0,0.0,0.0,0.0,0.0,0.0,0.0,0.0,0.0,0.0,0.0,0.0,0.0,0.0,0.0,0.0,0.0,0.0,0.0,0.0,0.0,0.0,0.0,0.0,0.0,0.0,0.0,0.0,0.2188,0.2467,0.2742,0.3021,0.3244,0.0,0.0,0.0,0.0,0.0,0.0,0.0,0.0,0.0,0.0,0.0,0.0,0.0,0.0,0.0,0.0,0.0,0.0,0.0,0.0,0.0,0.0,0.0,0.0,0.0,0.0,0.0,0.0,0.0,0.0,0.0,0.0,0.0,0.0,0.0,0.0,0.0,0.0,0.0,0.0,0.0,0.0,0.0,0.0,0.0,0.0,0.0,0.0,0.0,0.0,0.0,0.0,0.0,0.0,0.0,0.0,0.0,0.0,0.0,0.0,0.0,0.0,0.0,0.0,0.0,0.0,0.0,0.0,0.0,0.0,0.0,0.0,0.0,0.0,0.0,0.0,0.0,0.0,0.0,0.0,0.0,0.0,0.0,0.0,0.0,0.0,0.0,0.0,0.0,0.0,0.0,0.0,0.0,0.0,0.0,0.0,0.0,0.0,0.0,0.0,0.0,0.0,0.0,0.0,0.0,0.0,0.0,0.0,0.0,0.0,0.0,0.0,0.3021,0.3299,0.3527,0.0,0.0,0.0,0.0,0.0,0.0,0.0,0.0,0.0,0.0,0.0,0.0,0.0,0.0,0.0,0.0,0.0,0.0,0.0,0.0,0.0,0.0,0.0,0.0,0.0,0.0,0.0,0.0,0.0,0.0,0.0,0.0,0.0,0.0,0.0,0.0,0.0,0.0,0.0,0.0,0.0,0.0,0.0,0.0,0.0,0.0,0.0,0.0,0.0,0.0,0.0,0.0,0.0,0.0,0.0,0.0,0.0,0.0,0.0,0.0,0.0,0.0,0.0,0.0,0.0,0.0,0.0,0.0,0.0,0.0,0.0,0.0,0.0,0.0,0.0,0.0,0.0,0.0,0.0,0.0,0.0,0.0,0.0,0.0,0.0,0.0,0.0,0.0,0.0,0.0,0.0,0.0,0.0,0.0,0.0,0.0,0.0,0.0,0.0,0.0,0.0,0.0,0.0,0.0,0.0,0.0,0.0,0.0,0.0,0.0,0.2691,0.2691,0.3132,0.0,0.391,0.0,0.0,0.0,0.0,0.0,0.0,0.0,0.0,0.0,0.0,0.0,0.0,0.0,0.0,0.0,0.0,0.0,0.0,0.0,0.0,0.0,0.0,0.0,0.0,0.0,0.0,0.0,0.0,0.0,0.0,0.0,0.0,0.0,0.0,0.0,0.0,0.0,0.0,0.0,0.0,0.0,0.0,0.0,0.0,0.0,0.0,0.0,0.0,0.0,0.0,0.0,0.0,0.0,0.0,0.0,0.0,0.0,0.0,0.0,0.0,0.0,0.0,0.0,0.0,0.0,0.0,0.0,0.0,0.0,0.0,0.0,0.0,0.0,0.0,0.0,0.0,0.0,0.0,0.0,0.0,0.0,0.0,0.0,0.0,0.0,0.0,0.0,0.0,0.0,0.0,0.0,0.0,0.0,0.0,0.0,0.0,0.0,0.0,0.0,0.0,0.0,0.0,0.0,0.0,0.0,0.0,0.0,0.0,0.0,0.0,0.2858,0.3081,0.3466,0.3855,0.0,0.0,0.0,0.0,0.0,0.0,0.0,0.0,0.0,0.0,0.0,0.0,0.0,0.0,0.0,0.0,0.0,0.0,0.0,0.0,0.0,0.0,0.0,0.0,0.0,0.0,0.0,0.0,0.0,0.0,0.0,0.0,0.0,0.0,0.0,0.0,0.0,0.0,0.0,0.0,0.0,0.0,0.0,0.0,0.0,0.0,0.0,0.0,0.0,0.0,0.0,0.0,0.0,0.0,0.0,0.0,0.0,0.0,0.0,0.0,0.0,0.0,0.0,0.0,0.0,0.0,0.0,0.0,0.0,0.0,0.0,0.0,0.0,0.0,0.0,0.0,0.0,0.0,0.0,0.0,0.0,0.0,0.0,0.0,0.0,0.0,0.0,0.0,0.0,0.0,0.0,0.0,0.0,0.0,0.0,0.0,0.0,0.0,0.0,0.0,0.0,0.0,0.0,0.0,0.0,0.0,0.0,0.0,0.0,0.0,0.2802,0.3081,0.3522,0.3744,0.4076,0.4463,0.0,0.0,0.0,0.0,0.0,0.0,0.0,0.0,0.0,0.0,0.0,0.0,0.0,0.0,0.0,0.0,0.0,0.0,0.0,0.0,0.0,0.0,0.0,0.0,0.0,0.0,0.0,0.0,0.0,0.0,0.0,0.0,0.0,0.0,0.0,0.0,0.0,0.0,0.0,0.0,0.0,0.0,0.0,0.0,0.0,0.0,0.0,0.0,0.0,0.0,0.0,0.0,0.0,0.0,0.0,0.0,0.0,0.0,0.0,0.0,0.0,0.0,0.0,0.0,0.0,0.0,0.0,0.0,0.0,0.0,0.0,0.0,0.0,0.0,0.0,0.0,0.0,0.0,0.0,0.0,0.0,0.0,0.0,0.0,0.0,0.0,0.0,0.0,0.0,0.0,0.0,0.0,0.0,0.0,0.0,0.0,0.0,0.0,0.0,0.0,0.0,0.0,0.0,0.0,0.0,0.0,0.0,0.0,0.2751,0.3142,0.3522,0.3805,0.4082,0.4304,0.0,0.0,0.0,0.0,0.0,0.0,0.0,0.0,0.0,0.0,0.0,0.0,0.0,0.0,0.0,0.0,0.0,0.0,0.0,0.0,0.0,0.0,0.0,0.0,0.0,0.0,0.0,0.0,0.0,0.0,0.0,0.0,0.0,0.0,0.0,0.0,0.0,0.0,0.0,0.0,0.0,0.0,0.0,0.0,0.0,0.0,0.0,0.0,0.0,0.0,0.0,0.0,0.0,0.0,0.0,0.0,0.0,0.0,0.0,0.0,0.0,0.0,0.0,0.0,0.0,0.0,0.0,0.0,0.0,0.0,0.0,0.0,0.0,0.0,0.0,0.0,0.0,0.0,0.0,0.0,0.0,0.0,0.0,0.0,0.0,0.0,0.0,0.0,0.0,0.0,0.0,0.0,0.0,0.0,0.0,0.0,0.0,0.0,0.0,0.0,0.0,0.0,0.0,0.0,0.0,0.0,0.0,0.0,0.0,0.3065,0.365,0.3988,0.4219,0.4513,0.4766,0.0,0.0,0.0,0.0,0.0,0.0,0.0,0.0,0.0,0.0,0.0,0.0,0.0,0.0,0.0,0.0,0.0,0.0,0.0,0.0,0.0,0.0,0.0,0.0,0.0,0.0,0.0,0.0,0.0,0.0,0.0,0.0,0.0,0.0,0.0,0.0,0.0,0.0,0.0,0.0,0.0,0.0,0.0,0.0,0.0,0.0,0.0,0.0,0.0,0.0,0.0,0.0,0.0,0.0,0.0,0.0,0.0,0.0,0.0,0.0,0.0,0.0,0.0,0.0,0.0,0.0,0.0,0.0,0.0,0.0,0.0,0.0,0.0,0.0,0.0,0.0,0.0,0.0,0.0,0.0,0.0,0.0,0.0,0.0,0.0,0.0,0.0,0.0,0.0,0.0,0.0,0.0,0.0,0.0,0.0,0.0,0.0,0.0,0.0,0.0,0.0,0.0,0.0,0.0,0.0,0.0,0.0,0.0,0.0,0.3579,0.0,0.4302,0.4485,0.4844,0.5164,0.0,0.0,0.0,0.0,0.0,0.0,0.0,0.0,0.0,0.0,0.0,0.0,0.0,0.0,0.0,0.0,0.0,0.0,0.0,0.0,0.0,0.0,0.0,0.0,0.0,0.0,0.0,0.0,0.0,0.0,0.0,0.0,0.0,0.0,0.0,0.0,0.0,0.0,0.0,0.0,0.0,0.0,0.0,0.0,0.0,0.0,0.0,0.0,0.0,0.0,0.0,0.0,0.0,0.0,0.0,0.0,0.0,0.0,0.0,0.0,0.0,0.0,0.0,0.0,0.0,0.0,0.0,0.0,0.0,0.0,0.0,0.0,0.0,0.0,0.0,0.0,0.0,0.0,0.0,0.0,0.0,0.0,0.0,0.0,0.0,0.0,0.0,0.0,0.0,0.0,0.0,0.0,0.0,0.0,0.0,0.0,0.0,0.0,0.0,0.0,0.0,0.0,0.0,0.0,0.0,0.0,0.0,0.0,0.3654,0.4186,0.432,0.4516,0.4681,0.506,0.5411,0.0,0.0,0.0,0.0,0.0,0.0,0.0,0.0,0.0,0.0,0.0,0.0,0.0,0.0,0.0,0.0,0.0,0.0,0.0,0.0,0.0,0.0,0.0,0.0,0.0,0.0,0.0,0.0,0.0,0.0,0.0,0.0,0.0,0.0,0.0,0.0,0.0,0.0,0.0,0.0,0.0,0.0,0.0,0.0,0.0,0.0,0.0,0.0,0.0,0.0,0.0,0.0,0.0,0.0,0.0,0.0,0.0,0.0,0.0,0.0,0.0,0.0,0.0,0.0,0.0,0.0,0.0,0.0,0.0,0.0,0.0,0.0,0.0,0.0,0.0,0.0,0.0,0.0,0.0,0.0,0.0,0.0,0.0,0.0,0.0,0.0,0.0,0.0,0.0,0.0,0.0,0.0,0.0,0.0,0.0,0.0,0.0,0.0,0.0,0.0,0.0,0.0,0.0,0.0,0.0,0.0,0.0,0.0,0.0,0.484,0.5067,0.5209,0.5319,0.5771,0.5994,0.0,0.0,0.0,0.0,0.0,0.0,0.0,0.0,0.0,0.0,0.0,0.0,0.0,0.0,0.0,0.0,0.0,0.0,0.0,0.0,0.0,0.0,0.0,0.0,0.0,0.0,0.0,0.0,0.0,0.0,0.0,0.0,0.0,0.0,0.0,0.0,0.0,0.0,0.0,0.0,0.0,0.0,0.0,0.0,0.0,0.0,0.0,0.0,0.0,0.0,0.0,0.0,0.0,0.0,0.0,0.0,0.0,0.0,0.0,0.0,0.0,0.0,0.0,0.0,0.0,0.0,0.0,0.0,0.0,0.0,0.0,0.0,0.0,0.0,0.0,0.0,0.0,0.0,0.0,0.0,0.0,0.0,0.0,0.0,0.0,0.0,0.0,0.0,0.0,0.0,0.0,0.0,0.0,0.0,0.0,0.0,0.0,0.0,0.0,0.0,0.0,0.0,0.0,0.0,0.0,0.0,0.0,0.0,0.0,0.5689,0.5775,0.5828,0.5973,0.6533,0.6785,0.6555,0.0,0.0,0.0,0.0,0.0,0.0,0.0,0.0,0.0,0.0,0.0,0.0,0.0,0.0,0.0,0.0,0.0,0.0,0.0,0.0,0.0,0.0,0.0,0.0,0.0,0.0,0.0,0.0,0.0,0.0,0.0,0.0,0.0,0.0,0.0,0.0,0.0,0.0,0.0,0.0,0.0,0.0,0.0,0.0,0.0,0.0,0.0,0.0,0.0,0.0,0.0,0.0,0.0,0.0,0.0,0.0,0.0,0.0,0.0,0.0,0.0,0.0,0.0,0.0,0.0,0.0,0.0,0.0,0.0,0.0,0.0,0.0,0.0,0.0,0.0,0.0,0.0,0.0,0.0,0.0,0.0,0.0,0.0,0.0,0.0,0.0,0.0,0.0,0.0,0.0,0.0,0.0,0.0,0.0,0.0,0.0,0.0,0.0,0.0,0.0,0.0,0.0,0.0,0.0,0.0,0.0,0.0,0.0,0.6662,0.6443,0.6437,0.6626,0.7286,0.7483,0.0,0.0,0.0,0.0,0.0,0.0,0.0,0.0,0.0,0.0,0.0,0.0,0.0,0.0,0.0,0.0,0.0,0.0,0.0,0.0,0.0,0.0,0.0,0.0,0.0,0.0,0.0,0.0,0.0,0.0,0.0,0.0,0.0,0.0,0.0,0.0,0.0,0.0,0.0,0.0,0.0,0.0,0.0,0.0,0.0,0.0,0.0,0.0,0.0,0.0,0.0,0.0,0.0,0.0,0.0,0.0,0.0,0.0,0.0,0.0,0.0,0.0,0.0,0.0,0.0,0.0,0.0,0.0,0.0,0.0,0.0,0.0,0.0,0.0,0.0,0.0,0.0,0.0,0.0,0.0,0.0,0.0,0.0,0.0,0.0,0.0,0.0,0.0,0.0,0.0,0.0,0.0,0.0,0.0,0.0,0.0,0.0,0.0,0.0,0.0,0.0,0.0,0.0,0.0,0.0,0.0,0.0,0.0,0.0,0.6986,0.7461,0.7527,0.7112,0.7516,0.7699,0.0,0.0,0.0,0.0,0.0,0.0,0.0,0.0,0.0,0.0,0.0,0.0,0.0,0.0,0.0,0.0,0.0,0.0,0.0,0.0,0.0,0.0,0.0,0.0,0.0,0.0,0.0,0.0,0.0,0.0,0.0,0.0,0.0,0.0,0.0,0.0,0.0,0.0,0.0,0.0,0.0,0.0,0.0,0.0,0.0,0.0,0.0,0.0,0.0,0.0,0.0,0.0,0.0,0.0,0.0,0.0,0.0,0.0,0.0,0.0,0.0,0.0,0.0,0.0,0.0,0.0,0.0,0.0,0.0,0.0,0.0,0.0,0.0,0.0,0.0,0.0,0.0,0.0,0.0,0.0,0.0,0.0,0.0,0.0,0.0,0.0,0.0,0.0,0.0,0.0,0.0,0.0,0.0,0.0,0.0,0.0,0.0,0.0,0.0,0.0,0.0,0.0,0.0,0.0,0.0,0.0,0.0,0.0,0.6817,0.7286,0.7828,0.8081,0.7957,0.8563,0.8761,0.0,0.0,0.0,0.0,0.0,0.0,0.0,0.0,0.0,0.0,0.0,0.0,0.0,0.0,0.0,0.0,0.0,0.0,0.0,0.0,0.0,0.0,0.0,0.0,0.0,0.0,0.0,0.0,0.0,0.0,0.0,0.0,0.0,0.0,0.0,0.0,0.0,0.0,0.0,0.0,0.0,0.0,0.0,0.0,0.0,0.0,0.0,0.0,0.0,0.0,0.0,0.0,0.0,0.0,0.0,0.0,0.0,0.0,0.0,0.0,0.0,0.0,0.0,0.0,0.0,0.0,0.0,0.0,0.0,0.0,0.0,0.0,0.0,0.0,0.0,0.0,0.0,0.0,0.0,0.0,0.0,0.0,0.0,0.0,0.0,0.0,0.0,0.0,0.0,0.0,0.0,0.0,0.0,0.0,0.0,0.0,0.0,0.0,0.0,0.0,0.0,0.0,0.0,0.0,0.0,0.0,0.0,0.0,0.7087,0.764,0.8078,0.8495,0.9183,0.9878,0.9979,0.0,0.0,0.0,0.0,0.0,0.0,0.0,0.0,0.0,0.0,0.0,0.0,0.0,0.0,0.0,0.0,0.0,0.0,0.0,0.0,0.0,0.0,0.0,0.0,0.0,0.0,0.0,0.0,0.0,0.0,0.0,0.0,0.0,0.0,0.0,0.0,0.0,0.0,0.0,0.0,0.0,0.0,0.0,0.0,0.0,0.0,0.0,0.0,0.0,0.0,0.0,0.0,0.0,0.0,0.0,0.0,0.0,0.0,0.0,0.0,0.0,0.0,0.0,0.0,0.0,0.0,0.0,0.0,0.0,0.0,0.0,0.0,0.0,0.0,0.0,0.0,0.0,0.0,0.0,0.0,0.0,0.0,0.0,0.0,0.0,0.0,0.0,0.0,0.0,0.0,0.0,0.0,0.0,0.0,0.0,0.0,0.0,0.0,0.0,0.0,0.0,0.0,0.0,0.0,0.0,0.0,0.0,0.0,0.7576,0.8341,0.8798,0.947,1.024,1.0124,0.9977,0.0,0.0,0.0,0.0,0.0,0.0,0.0,0.0,0.0,0.0,0.0,0.0,0.0,0.0,0.0,0.0,0.0,0.0,0.0,0.0,0.0,0.0,0.0,0.0,0.0,0.0,0.0,0.0,0.0,0.0,0.0,0.0,0.0,0.0,0.0,0.0,0.0,0.0,0.0,0.0,0.0,0.0,0.0,0.0,0.0,0.0,0.0,0.0,2.3057,0.0,0.0,0.0,0.0,0.0,0.0,0.0,0.0,0.0,0.0,0.0,0.0,0.0,0.0,0.0,0.0,0.0,0.0,0.0,0.0,0.0,0.0,0.0,0.0,0.0,0.0,0.0,0.0,0.0,0.0,0.0,0.0,0.0,0.0,0.0,0.0,0.0,0.0,0.0,0.0,0.0,0.0,0.0,0.0,0.0,0.0,0.0,0.0,0.0,0.0,0.0,0.0,0.0,0.0,0.0,0.0,0.0,0.0,0.0,0.7899,0.8512,0.9224,0.9925,1.0543,1.073,1.0653,0.0,0.0,0.0,0.0,0.0,0.0,0.0,0.0,0.0,0.0,0.0,0.0,0.0,0.0,0.0,0.0,0.0,0.0,0.0,0.0,0.0,0.0,0.0,0.0,0.0,0.0,0.0,0.0,0.0,0.0,0.0,0.0,0.0,0.0,0.0,0.0,0.0,0.0,0.0,0.0,0.0,0.0,0.0,0.0,0.0,0.0,0.0,0.0,0.0,0.0,0.0,0.0,0.0,0.0,0.0,0.0,0.0,0.0,0.0,0.0,0.0,0.0,0.0,0.0,0.0,0.0,0.0,0.0,0.0,0.0,0.0,0.0,0.0,0.0,0.0,0.0,0.0,0.0,0.0,0.0,0.0,0.0,0.0,0.0,0.0,0.0,0.0,0.0,0.0,0.0,0.0,0.0,0.0,0.0,0.0,0.0,0.0,0.0,0.0,0.0,0.0,0.0,0.0,0.0,0.0,0.0,0.0,0.7737,0.8271,0.8763,0.9553,1.0267,1.0787,1.1392,1.1567,1.1154,0.0,0.0,0.0,0.0,0.0,0.0,0.0,0.0,0.0,0.0,0.0,0.0,0.0,0.0,0.0,0.0,0.0,0.0,0.0,0.0,0.0,0.0,0.0,0.0,0.0,0.0,0.0,0.0,0.0,0.0,0.0,0.0,0.0,0.0,0.0,0.0,0.0,0.0,1.9114,2.1369,0.0,0.0,0.0,0.0,0.0,0.0,0.0,0.0,2.7257,0.0,0.0,0.0,0.0,0.0,0.0,0.0,0.0,0.0,0.0,0.0,0.0,0.0,0.0,0.0,0.0,0.0,0.0,0.0,0.0,0.0,0.0,0.0,0.0,0.0,0.0,0.0,0.0,0.0,0.0,0.0,0.0,0.0,0.0,0.0,0.0,0.0,0.0,0.0,0.0,0.0,0.0,0.0,0.0,0.0,0.0,0.0,0.0,0.0,0.0,0.0,0.0,0.0,0.0,0.0,0.0,0.7425,0.8228,0.8917,0.9579,0.9975,1.0682,1.1724,1.1927,1.2077,1.2385,0.0,0.0,0.0,0.0,0.0,0.0,0.0,0.0,0.0,0.0,0.0,0.0,0.0,0.0,0.0,0.0,0.0,0.0,0.0,0.0,0.0,0.0,0.0,0.0,0.0,0.0,0.0,0.0,0.0,0.0,0.0,0.0,0.0,0.0,0.0,0.0,0.0,0.0,0.0,2.3771,2.5101,0.0,0.0,0.0,0.0,0.0,0.0,0.0,0.0,2.8345,0.0,0.0,0.0,0.0,0.0,0.0,0.0,0.0,0.0,0.0,0.0,0.0,0.0,0.0,0.0,0.0,0.0,0.0,0.0,0.0,0.0,0.0,0.0,0.0,0.0,0.0,0.0,0.0,0.0,0.0,0.0,0.0,0.0,0.0,0.0,0.0,0.0,0.0,0.0,0.0,0.0,0.0,0.0,0.0,0.0,0.0,0.0,0.0,0.0,0.0,0.0,0.0,0.0,0.0,0.0,0.7695,0.8639,0.9376,1.001,1.048,1.1202,1.1935,1.2271,1.2563,0.0,0.0,0.0,0.0,0.0,0.0,0.0,0.0,0.0,0.0,0.0,0.0,0.0,0.0,0.0,0.0,0.0,0.0,0.0,0.0,0.0,0.0,0.0,0.0,0.0,0.0,0.0,0.0,0.0,0.0,0.0,0.0,0.0,0.0,0.0,0.0,0.0,0.0,0.0,0.0,2.5226,2.6956,2.7552,0.0,0.0,0.0,0.0,0.0,0.0,3.0508,2.9942,0.0,0.0,0.0,0.0,0.0,0.0,0.0,0.0,0.0,0.0,0.0,0.0,0.0,0.0,0.0,0.0,0.0,0.0,0.0,0.0,0.0,0.0,0.0,0.0,0.0,0.0,0.0,0.0,0.0,0.0,0.0,0.0,0.0,0.0,0.0,0.0,0.0,0.0,0.0,0.0,0.0,0.0,0.0,0.0,0.0,0.0,0.0,0.0,0.0,0.0,0.0,0.0,0.0,0.0,0.0,0.8034,0.91,0.9844,1.0423,1.1052,1.1621,1.2125,1.2621,1.3022,0.0,0.0,0.0,0.0,0.0,0.0,0.0,0.0,0.0,0.0,0.0,0.0,0.0,0.0,0.0,0.0,0.0,0.0,0.0,0.0,0.0,0.0,0.0,0.0,0.0,0.0,0.0,0.0,0.0,0.0,0.0,0.0,0.0,0.0,0.0,0.0,0.0,0.0,0.0,0.0,0.0,2.8597,2.8991,3.0117,0.0,0.0,0.0,0.0,3.1977,3.1836,0.0,0.0,0.0,0.0,0.0,0.0,0.0,0.0,0.0,0.0,0.0,0.0,0.0,0.0,0.0,0.0,0.0,0.0,0.0,0.0,0.0,0.0,0.0,0.0,0.0,0.0,0.0,0.0,0.0,0.0,0.0,0.0,0.0,0.0,0.0,0.0,0.0,0.0,0.0,0.0,0.0,0.0,0.0,0.0,0.0,0.0,0.0,0.0,0.0,0.0,0.0,0.0,0.0,0.0,0.0,0.0,0.8723,0.981,1.0585,1.0811,1.161,1.2167,1.2598,1.2986,1.3363,0.0,0.0,0.0,0.0,0.0,0.0,0.0,0.0,0.0,0.0,0.0,0.0,0.0,0.0,0.0,0.0,0.0,0.0,0.0,0.0,0.0,0.0,0.0,0.0,0.0,0.0,0.0,0.0,0.0,0.0,0.0,0.0,0.0,0.0,0.0,0.0,0.0,0.0,0.0,0.0,0.0,3.0159,3.0323,3.1295,3.2139,0.0,0.0,3.3227,3.3831,3.3016,0.0,0.0,0.0,0.0,0.0,0.0,0.0,0.0,0.0,0.0,0.0,0.0,0.0,0.0,0.0,0.0,0.0,0.0,0.0,0.0,0.0,0.0,0.0,0.0,0.0,0.0,0.0,0.0,0.0,0.0,0.0,0.0,0.0,0.0,0.0,0.0,0.0,0.0,0.0,0.0,0.0,0.0,0.0,0.0,0.0,0.0,0.0,0.0,0.0,0.0,0.0,0.0,0.0,0.0,0.0,0.8443,0.9264,1.051,1.1451,1.1935,1.277,1.3255,1.3385,1.3649,1.378,0.0,0.0,0.0,0.0,0.0,0.0,0.0,0.0,0.0,0.0,0.0,0.0,0.0,0.0,0.0,0.0,0.0,0.0,0.0,0.0,0.0,0.0,0.0,0.0,0.0,0.0,0.0,0.0,0.0,0.0,0.0,0.0,0.0,0.0,0.0,0.0,0.0,0.0,0.0,0.0,0.0,0.0,3.1833,3.2553,0.0,0.0,0.0,3.4667,3.4994,0.0,0.0,0.0,0.0,0.0,0.0,0.0,0.0,0.0,0.0,0.0,0.0,0.0,0.0,0.0,0.0,0.0,0.0,0.0,0.0,0.0,0.0,0.0,0.0,0.0,0.0,0.0,0.0,0.0,0.0,0.0,0.0,0.0,0.0,0.0,0.0,0.0,0.0,0.0,0.0,0.0,0.0,0.0,0.0,0.0,0.0,0.0,0.0,0.0,0.0,0.0,0.0,0.0,0.0,0.0,0.0,0.0,0.9876,1.1228,1.2211,1.277,1.3724,1.4148,1.4051,1.4364,0.0,0.0,0.0,0.0,0.0,0.0,0.0,0.0,0.0,0.0,0.0,0.0,0.0,0.0,0.0,0.0,0.0,0.0,0.0,0.0,0.0,0.0,0.0,0.0,0.0,0.0,0.0,1.6075,0.0,0.0,0.0,0.0,0.0,0.0,0.0,0.0,0.0,0.0,0.0,0.0,0.0,0.0,3.268,3.2925,3.3688,3.4502,0.0,0.0,3.5747,3.5968,3.5353,3.4526,0.0,0.0,0.0,0.0,0.0,0.0,0.0,0.0,0.0,0.0,0.0,0.0,0.0,0.0,0.0,0.0,0.0,0.0,0.0,0.0,0.0,0.0,0.0,0.0,0.0,0.0,0.0,0.0,0.0,0.0,0.0,0.0,0.0,0.0,0.0,0.0,0.0,0.0,0.0,0.0,0.0,0.0,0.0,0.0,0.0,0.0,0.0,0.0,0.0,0.0,0.0,0.0,0.0,0.0,0.0,1.0629,1.1817,1.2544,1.2867,1.4236,1.4748,1.4328,1.5033,1.5166,0.0,0.0,0.0,0.0,0.0,0.0,0.0,0.0,0.0,0.0,0.0,0.0,0.0,0.0,0.0,0.0,0.0,0.0,0.0,0.0,0.0,0.0,0.0,0.0,0.0,0.0,0.0,0.0,0.0,0.0,0.0,0.0,0.0,0.0,0.0,0.0,0.0,0.0,0.0,0.0,0.0,3.3595,3.3367,3.4657,3.5711,0.0,0.0,3.64,3.6625,3.6082,3.5282,3.4054,0.0,0.0,0.0,0.0,0.0,0.0,0.0,0.0,0.0,0.0,0.0,0.0,0.0,0.0,0.0,0.0,0.0,0.0,0.0,0.0,0.0,0.0,0.0,0.0,0.0,0.0,0.0,0.0,0.0,0.0,0.0,0.0,0.0,0.0,0.0,0.0,0.0,0.0,0.0,0.0,0.0,0.0,0.0,0.0,0.0,0.0,0.0,0.0,0.0,0.0,0.0,0.0,0.0,1.0317,1.1495,1.2641,1.3464,1.3958,1.4908,1.522,1.5045,1.5635,1.584,0.0,0.0,0.0,0.0,0.0,0.0,0.0,0.0,0.0,0.0,0.0,0.0,0.0,0.0,0.0,0.0,0.0,0.0,0.0,0.0,0.0,0.0,0.0,0.0,0.0,0.0,0.0,0.0,2.1728,2.2708,2.2969,0.0,0.0,0.0,0.0,0.0,0.0,0.0,0.0,0.0,0.0,3.389,3.414,3.5217,0.0,0.0,3.7101,3.7404,3.763,3.7082,3.6577,3.6257,3.5473,0.0,0.0,0.0,0.0,0.0,0.0,0.0,0.0,0.0,0.0,0.0,0.0,0.0,0.0,0.0,0.0,0.0,0.0,0.0,0.0,0.0,0.0,0.0,0.0,0.0,0.0,0.0,0.0,0.0,0.0,0.0,0.0,0.0,0.0,0.0,0.0,0.0,0.0,0.0,0.0,0.0,0.0,0.0,0.0,0.0,0.0,0.0,0.0,0.0,0.0,0.0,0.0,1.1111,1.2502,1.3367,1.4126,1.469,1.5357,1.577,1.5797,1.6175,1.6373,0.0,0.0,0.0,0.0,0.0,0.0,0.0,0.0,0.0,0.0,0.0,0.0,0.0,0.0,0.0,0.0,0.0,0.0,0.0,0.0,0.0,0.0,0.0,0.0,0.0,0.0,0.0,0.0,2.3265,2.4057,2.4238,0.0,0.0,0.0,0.0,0.0,0.0,0.0,0.0,0.0,0.0,3.4576,3.4974,3.5891,3.6731,3.7386,3.7777,3.8052,3.8277,3.7973,3.777,3.7709,0.0,0.0,0.0,0.0,0.0,0.0,0.0,0.0,0.0,0.0,0.0,0.0,0.0,0.0,0.0,0.0,0.0,0.0,0.0,0.0,0.0,0.0,0.0,0.0,0.0,0.0,0.0,0.0,0.0,0.0,0.3908,0.0,0.0,0.0,0.0,0.0,0.0,0.0,0.0,0.0,0.0,0.0,0.0,0.0,0.0,0.0,0.0,0.0,0.0,0.0,0.0,0.0,0.0,1.2063,1.3568,1.406,1.4461,1.4727,1.5782,1.6295,1.6313,1.6579,1.6773,1.7036,0.0,0.0,0.0,0.0,0.0,0.0,0.0,0.0,0.0,0.0,0.0,0.0,0.0,0.0,0.0,0.0,0.0,0.0,0.0,0.0,0.0,0.0,0.0,0.0,0.0,0.0,2.4661,2.5421,2.582,0.0,0.0,0.0,0.0,0.0,0.0,0.0,0.0,0.0,0.0,3.4026,3.5871,3.6023,3.6739,3.7443,3.7882,3.8081,3.8306,3.8485,3.8679,3.8634,0.0,0.0,0.0,0.0,0.0,0.0,0.0,0.0,0.0,0.0,0.0,0.0,0.0,0.0,0.0,0.0,0.0,0.0,0.0,0.0,0.0,0.0,0.0,0.0,0.0,0.0,0.0,0.523,0.5059,0.0,0.0,0.0,0.0,0.0,0.0,0.0,0.0,0.0,0.0,0.0,0.718,0.7223,0.0,0.0,0.0,0.0,0.0,0.0,0.0,0.0,0.0,0.0,0.0,0.0,1.2675,1.3842,1.4672,1.534,1.5744,1.6536,1.7054,1.7463,1.777,1.798,1.8145,0.0,0.0,0.0,0.0,0.0,0.0,0.0,0.0,0.0,0.0,0.0,0.0,0.0,0.0,0.0,0.0,0.0,0.0,0.0,0.0,0.0,0.0,0.0,0.0,0.0,2.5656,0.0,0.0,0.0,0.0,0.0,0.0,0.0,0.0,0.0,0.0,0.0,3.1743,3.3186,3.503,3.6231,3.6307,3.7491,3.8457,0.0,0.0,0.0,0.0,0.0,0.0,0.0,0.0,0.0,0.0,0.0,0.0,0.0,0.0,3.635,3.5735,3.5704,3.5665,3.5467,0.0,0.0,0.0,0.0,0.0,0.0,0.0,0.0,0.0,0.0,0.0,0.0,0.0,0.0,0.5887,0.0,0.5511,0.0,0.0,0.0,0.0,0.0,0.0,0.0,0.0,0.7208,0.7552,0.7897,0.7992,0.7941,0.0,0.8157,0.837,0.0,0.0,0.0,0.0,0.0,0.0,0.0,0.0,1.3625,1.476,1.5573,1.6156,1.6586,1.7187,1.7701,1.8227,1.8745,1.9022,1.9178,1.9352,1.9225,0.0,0.0,0.0,0.0,0.0,0.0,0.0,0.0,0.0,0.0,0.0,0.0,0.0,0.0,0.0,0.0,0.0,0.0,0.0,0.0,0.0,0.0,0.0,2.7715,0.0,0.0,0.0,0.0,0.0,0.0,0.0,0.0,0.0,3.0829,3.219,3.3696,3.4975,3.6578,3.7577,3.7577,0.0,0.0,0.0,0.0,0.0,0.0,0.0,4.1954,4.2322,4.2243,4.2544,4.3749,4.2783,4.1685,4.1476,0.0,0.0,3.8278,3.7954,3.801,3.8089,3.801,3.7915,3.811,3.7706,3.7531,0.0,0.0,0.0,0.0,0.0,0.0,0.0,0.0,0.6842,0.6342,0.0,0.5842,0.0,0.0,0.0,0.0,0.0,0.6529,0.0,0.0,0.7635,0.7864,0.8336,0.8608,0.8737,0.875,0.9008,0.9469,0.9861,0.8914,0.0,0.0,0.0,0.0,0.0,0.0,1.4808,1.6274,1.6617,1.6842,1.7186,1.7847,1.8268,1.8464,1.9608,2.021,2.0109,2.0836,2.0931,2.019,1.9736,0.0,0.0,0.0,0.0,0.0,0.0,0.0,0.0,0.0,0.0,0.0,0.0,0.0,0.0,0.0,0.0,0.0,0.0,0.0,0.0,2.812,0.0,0.0,0.0,0.0,0.0,0.0,0.0,0.0,0.0,0.0,3.2305,3.4441,3.635,3.6878,0.0,0.0,0.0,0.0,4.0334,4.052,4.0753,4.1062,4.1746,4.197,4.2383,4.3074,0.0,0.0,4.6974,4.6192,4.5113,4.5527,4.5388,4.4158,3.9127,3.8745,3.8902,3.8887,3.8811,3.8743,3.9617,4.0033,4.0047,1.0974,0.0,0.0,0.0,0.0,0.8706,0.8213,0.7943,0.7535,0.7113,0.6594,0.6692,0.0,0.0,0.0,0.0,0.0,0.0,0.8054,0.8558,0.8811,0.891,0.9062,0.915,0.9191,0.9191,0.9391,0.9658,0.9868,0.9852,0.9965,1.0348,0.0,0.0,0.0,0.0,1.4871,1.6287,1.663,1.7051,1.7473,1.8225,1.8986,1.9636,2.0465,2.0972,2.1106,2.1147,2.1087,2.1263,2.0762,0.0,0.0,0.0,0.0,0.0,0.0,0.0,0.0,0.0,0.0,0.0,0.0,0.0,0.0,0.0,0.0,0.0,0.0,0.0,3.05,3.0683,3.0832,0.0,0.0,0.0,0.0,0.0,0.0,0.0,0.0,0.0,3.628,3.6982,3.7873,0.0,0.0,4.0383,4.0539,4.092,4.1371,4.1763,4.2227,0.0,0.0,4.3987,4.4246,4.4252,4.4687,4.5828,4.7863,4.6772,4.5553,4.5577,4.5186,4.4451,4.3327,4.362,4.4192,4.435,4.4236,4.4164,4.439,4.4344,4.4197,1.2006,1.1333,1.0535,1.0206,1.0162,0.9399,0.9001,0.8838,0.8407,0.7859,0.7304,0.7413,0.7304,0.7089,0.7271,0.0,0.0,0.0,0.8641,0.8833,0.9118,0.9205,0.9211,0.9266,0.9401,0.9516,0.9595,0.9873,1.0339,1.061,1.1016,1.1638,0.0,0.0,1.3806,1.4423,1.541,1.6567,1.7016,1.759,1.8101,1.8933,1.9785,2.0565,2.0985,2.1294,2.1454,2.1627,2.1713,2.1945,2.181,2.149,0.0,0.0,0.0,0.0,0.0,0.0,0.0,0.0,0.0,0.0,0.0,1.9329,2.121,0.0,0.0,0.0,2.8411,3.0624,3.2841,3.2647,0.0,0.0,0.0,0.0,0.0,0.0,0.0,3.4862,3.6106,3.7345,3.8672,3.9222,3.9791,4.0227,4.1046,4.1617,4.1666,0.0,4.2574,4.2965,4.3296,4.3879,4.4648,4.5098,4.5185,4.4725,4.5885,4.6914,4.7428,4.6958,4.6413,4.601,4.576,4.5784,4.6315,4.7022,4.7248,4.6646,4.6428,4.6254,4.6195,4.6077,4.5891,1.2721,1.2551,1.1405,1.0891,1.0988,1.0311,0.9938,0.9845,0.9265,0.8567,0.7979,0.7979,0.7869,0.7529,0.788,0.0,0.8125,0.8583,0.8755,0.8749,0.8957,0.9008,0.9015,0.915,0.9432,0.9667,0.9795,1.0323,1.1232,1.1402,1.1889,1.2795,1.2656,1.3195,1.4451,1.5186,1.6186,1.7329,1.778,1.8353,1.8919,1.9814,2.0609,2.1139,2.148,2.1644,2.1561,2.2412,2.2745,2.2384,2.2805,2.2933,2.2547,0.0,0.0,0.0,0.0,0.0,0.0,0.0,0.0,0.0,0.0,0.0,0.0,0.0,0.0,0.0,3.118,0.0,3.4023,3.4156,0.0,0.0,0.0,3.4527,3.5454,3.5131,3.5461,3.6903,0.0,0.0,3.9872,4.1162,4.1913,4.1331,4.2465,4.325,4.3061,4.3349,4.3693,4.3897,4.4004,4.4419,4.5446,4.574,4.5714,4.5245,4.6714,4.7769,4.7268,4.755,4.7652,4.742,4.7442,4.7969,4.8976,4.9262,4.8743,4.7099,4.6532,4.6351,4.6453,4.6488,4.6294,1.3778,1.3514,1.2681,1.198,1.1511,1.0586,1.0156,0.9845,0.9497,0.88,0.7985,0.8212,0.8266,0.8011,0.8129,0.842,0.8992,0.908,0.9307,0.954,0.9506,0.9612,0.9612,0.9884,1.0017,1.013,1.0768,1.12,1.1427,1.2285,1.2955,1.3673,1.421,1.4863,1.5532,1.6121,1.6944,1.813,1.8099,1.8574,1.9566,2.0472,2.1269,2.1821,2.2625,2.3021,2.297,2.3495,2.3674,2.3338,2.3565,2.3622,2.343,2.2868,0.0,0.0,0.0,0.0,0.0,0.0,0.0,0.0,0.0,2.3621,2.5565,0.0,2.9088,0.0,3.2697,3.4329,3.5094,3.5133,0.0,0.0,3.5749,3.5616,3.6184,3.6339,3.6903,3.8156,3.9059,3.9985,4.1165,4.2164,4.279,4.2802,4.3081,4.3409,4.3723,4.3957,4.4266,4.4648,4.483,4.536,4.6529,4.7316,4.755,4.6974,4.8167,4.9486,5.0338,5.0532,5.0623,5.0815,5.1055,5.1395,5.1639,5.1801,5.1511,5.0585,4.9756,4.9205,4.9205,4.9022,4.8839,1.4336,1.3931,1.3169,1.2679,1.2303,1.1222,1.062,1.0507,1.0023,0.9297,0.8563,0.8563,0.8482,0.8553,0.8793,0.9082,0.9522,0.9653,0.9901,1.0019,0.9951,0.9924,1.0162,1.0336,1.0429,1.0785,1.1303,1.1733,1.2082,1.3048,1.3869,1.4457,1.5494,1.6306,1.675,1.7092,1.7678,1.8633,1.8945,1.9541,2.0439,2.1175,2.1877,2.2277,2.3005,2.348,2.3552,2.4139,2.4343,2.426,2.4492,2.4575,2.4548,2.409,2.379,0.0,0.0,0.0,0.0,0.0,0.0,0.0,0.0,0.0,0.0,0.0,3.0957,3.31,3.4499,3.5554,3.6345,3.6547,3.6767,3.7351,3.7243,3.7299,3.7765,3.8027,3.8596,3.9529,4.0463,4.1451,4.2328,4.3366,4.4197,4.4599,4.4679,4.4747,4.4816,4.528,4.5957,4.6304,4.6453,4.6877,4.7951,4.8805,4.9191,4.8895,4.9624,5.104,5.2626,5.2077,5.1356,5.1312,5.1535,5.1904,5.2333,5.2516,5.2558,5.2579,5.2116,5.1284,5.023,4.9875,4.975,1.4673,1.4392,1.3374,1.3121,1.3248,1.1988,1.1337,1.1292,1.0658,1.0022,0.9379,0.8997,0.8869,0.8997,0.9506,0.9755,0.9882,1.0149,1.0276,1.027,1.0141,1.0329,1.0571,1.0537,1.0822,1.1308,1.1768,1.2234,1.2715,1.3803,1.454,1.5287,1.6353,1.7334,1.7962,1.8138,1.8593,1.9102,2.0007,2.0672,2.1362,2.1904,2.2301,2.2688,2.3222,2.3712,2.3943,2.4541,2.5021,2.5219,2.554,2.5647,2.5629,2.5441,2.5339,0.0,2.5339,0.0,0.0,0.0,0.0,0.0,0.0,0.0,0.0,3.0351,3.2643,3.5524,3.6268,3.6887,3.7712,3.799,3.8267,3.8515,3.897,3.933,3.9714,4.0129,4.0594,4.1113,4.2167,4.3108,4.3671,4.4697,4.5686,4.6192,4.6573,4.6717,4.633,4.6841,4.7454,4.7999,4.8179,4.8353,4.9094,4.992,5.0426,5.0525,5.095,5.2164,5.3644,5.2597,5.1222,5.0806,5.1199,5.1614,5.2142,5.2536,5.2874,5.3299,5.3299,5.2714,5.0999,5.0488,4.9996,1.5086,1.5206,1.4159,1.3769,1.3769,1.2604,1.1797,1.1292,1.0912,1.0276,0.9627,0.9124,0.9124,0.9634,0.9761,0.9888,1.0149,1.0276,1.0276,1.0276,1.0503,1.0742,1.0854,1.1076,1.1364,1.1479,1.2189,1.2603,1.2715,1.3933,1.4861,1.5508,1.6608,1.7696,1.8529,0.0,0.0,0.0,2.0524,2.1102,2.1933,2.2368,2.2877,2.3582,2.4233,0.0,2.4902,2.5737,2.6063,2.5879,2.6287,0.0,0.0,0.0,0.0,0.0,0.0,0.0,0.0,0.0,0.0,0.0,3.0218,3.0734,3.0491,3.262,3.4871,3.6671,3.7419,3.81,3.9112,3.9423,3.9826,4.0453,4.0822,4.1278,4.1848,4.2177,4.2619,4.3315,4.3745,4.4259,4.4876,4.5626,4.6253,4.6696,4.77,4.845,4.8446,4.7807,4.7203,4.7052,4.8167,4.8849,4.9226,5.0226,5.1225,5.1651,5.1799,5.2042,5.2356,5.2612,5.2567,5.2459,5.281,5.3085,5.3406,5.3495,5.3478,5.3135,5.3115,5.31,5.3016,5.2999,5.3052,1.5332,0.0,1.4399,1.3875,0.0,1.2964,1.2211,1.1538,1.1142,1.0623,0.9974,0.9583,0.9714,0.9974,1.0227,1.0364,1.0493,1.0419,1.0513,1.0642,1.082,1.0912,1.1292,1.1587,1.1791,1.1908,1.2679,1.3005,1.3005,1.4353,1.5268,1.5862,1.6865,1.7742,1.8493,1.9499,2.0354,2.1174,2.135,2.1787,2.2849,2.3146,2.3664,2.4524,0.0,0.0,0.0,0.0,0.0,0.0,0.0,0.0,0.0,0.0,0.0,2.8416,2.8595,2.908,3.0037,3.0349,3.0999,3.1935,3.3514,3.4096,3.3288,3.5127,3.6702,3.7855,3.846,3.9164,4.0092,4.0428,4.0803,4.1452,4.1819,4.23,4.2838,4.3253,4.3661,4.4323,4.4899,4.5501,4.6169,4.6966,4.7639,4.8151,4.8985,4.9546,4.9609,4.9363,4.9167,4.9245,5.0109,5.0925,5.1329,5.1961,5.2456,5.2672,5.2777,5.2943,5.3018,5.3067,5.3176,5.3435,5.3654,5.3869,5.3975,5.4028,5.4041,5.3835,5.3828,5.39,5.4245,5.3692,5.3089,1.5662,1.5522,1.4417,1.3875,1.3875,1.3095,1.2444,1.1784,0.0,0.0,0.0,1.0187,1.0187,1.0326,1.0585,1.0717,1.0711,1.0588,1.0664,1.1048,1.1056,1.1254,1.1892,1.1988,1.2083,1.243,1.3018,1.3225,1.3448,1.4566,1.5546,1.6295,1.6965,1.7749,1.8533,1.9338,2.0389,2.146,2.1853,2.2542,2.3489,2.3763,2.44,2.5258,2.5709,2.6109,2.6663,2.6989,2.7422,2.796,2.8067,2.8281,2.8495,2.8814,2.9273,2.9937,3.0319,3.1019,3.2233,3.2575,3.3382,3.4693,3.6261,3.6792,3.6057,3.7194,3.8263,3.9025,3.9607,4.0235,4.11,4.1381,4.1753,4.2306,4.2789,4.3357,4.3889,4.4298,4.4789,4.5187,4.6058,4.6864,4.7528,4.8286,4.9097,4.9821,5.0151,5.041,5.0529,5.0644,5.0896,5.1371,5.176,5.2573,5.3075,5.3396,5.3645,5.3073,5.346,5.3952,5.402,5.3767,5.3599,5.3869,5.3956,5.3969,5.4087,5.4008,5.4107,5.4303,5.4303,5.4399,5.4444,5.3525,5.2744,1.5869,1.6125,1.4472,1.3875,1.3875,1.3095,1.2444,1.1776,1.0717,1.0459,1.0591,1.0326,1.0326,1.0591,1.0717,1.0717,1.0717,1.0697,1.0822,0.0,1.1461,1.1841,1.2227,1.2467,1.2578,1.2683,1.2897,1.3215,1.3676,1.439,1.521,1.6078,1.6989,1.8058,1.9472,1.9973,2.0461,2.1199,2.1539,2.2096,2.303,2.3634,2.4356,2.5197,2.608,2.6609,2.6881,2.7638,2.8174,2.8281,2.8708,2.9132,2.9343,2.9679,3.012,3.0558,3.0912,3.1451,3.2339,3.2622,3.3899,3.6242,3.7568,3.799,3.7518,3.8212,3.9102,4.0181,4.0694,4.1459,4.2452,4.2958,4.3443,4.4152,4.4761,4.5306,4.5991,4.6226,4.6575,4.7061,4.7637,4.8118,4.8584,4.9278,4.9821,5.037,5.0832,5.1252,5.1619,5.1041,5.062,5.1028,5.149,5.1779,5.2529,5.2684,5.3123,5.2986,5.3344,5.3697,5.3863,5.3868,5.3992,5.4338,5.4058,5.3773,5.394,5.3298,5.3317,5.3498,5.358,5.3522,5.3653,5.3329,5.3512,1.6355,1.6191,1.4787,1.4042,1.4033,1.2749,1.1909,1.138,1.0724,1.0585,1.0717,1.0585,1.0585,1.0717,1.0717,1.0717,1.0717,1.0767,1.0988,1.1374,1.1682,1.2032,1.2282,1.2339,1.2512,1.28,1.3091,1.35,1.4156,1.4881,1.5735,1.6464,1.7549,1.8763,1.9971,2.0334,2.0865,2.1683,2.1817,2.2345,2.326,2.3891,2.4684,2.5679,2.6318,2.7101,2.809,2.8416,2.9075,2.9944,3.016,3.0611,3.1253,3.1613,3.2169,3.2893,3.3241,3.3927,3.4854,3.5868,3.7185,3.8742,3.977,4.0265,4.0094,4.0389,4.0913,4.1568,4.2151,4.2808,4.3614,4.4115,4.4648,4.5321,4.5776,4.6314,4.6844,4.7249,4.7593,4.8103,4.8521,4.9015,4.9421,4.99,5.037,5.0864,5.1392,5.2092,5.28,5.2471,5.2135,5.2435,5.2762,5.3175,5.3636,5.4007,5.4361,5.4649,5.4485,5.4491,5.4598,5.4558,5.4525,5.4798,5.4651,5.4527,5.472,5.4509,5.4422,5.4442,5.416,5.4018,5.4072,5.3936,5.3936,1.6712,1.6556,1.499,1.4101,1.3814,1.2437,1.157,1.1297,1.0871,1.0717,1.0717,1.0717,1.0717,1.0717,1.0717,1.0717,1.0836,1.0988,1.1323,1.1698,1.1841,1.2043,1.2426,1.2426,1.2656,1.2995,1.3239,1.3726,1.4567,1.5431,1.6301,1.7291,1.8521,1.9498,2.0362,2.0832,2.1435,2.2245,2.2488,2.3016,2.3812,2.4507,2.5405,2.6388,2.694,2.7748,2.9062,2.9411,3.0118,3.1298,3.1558,3.1993,3.2771,3.3226,3.3943,3.4719,3.525,3.6018,3.7297,3.8733,3.9905,4.0588,4.1683,4.2323,4.2431,4.2652,4.2749,4.2846,4.3491,4.4087,4.449,4.5138,4.5685,4.6135,4.6668,4.7106,4.7624,4.7934,4.8324,4.88,4.9178,4.9661,5.0058,5.0448,5.0908,5.154,5.2092,5.28,5.3416,5.3717,5.3915,5.4076,5.4235,5.4544,5.5199,5.5461,5.5751,5.6273,5.5937,5.5793,5.5872,5.5677,5.5547,5.5879,5.5981,5.6071,5.6257,5.6307,5.6393,5.6524,5.6236,5.5832,5.6105,5.5884,5.4912,1.6934,1.6766,1.5192,1.3883,1.2909,1.233,1.1865,1.1454,1.0919,1.0717,1.0738,1.0717,1.0724,1.0717,1.0717,1.085,1.1115,1.1233,1.1615,1.2142,1.2266,1.2389,1.2767,1.2775,1.3093,1.3456,1.3567,1.4252,1.5222,1.5701,1.6808,1.8521,1.9633,2.0375,2.0725,2.1569,2.2274,2.2632,2.352,2.4194,2.4895,2.5707,2.6628,2.7655,2.8446,2.9026,2.9623,3.0599,3.1189,3.1449,3.2231,3.2771,3.3093,3.367,3.4328,3.5167,3.5525,3.6326,3.7867,3.9025,4.0114,4.109,4.2209,4.2995,4.3436,4.4275,4.4462,4.3993,4.4462,4.5018,4.511,4.5866,4.6638,4.7046,4.7478,4.8019,4.8666,4.8831,4.9078,4.9421,4.99,5.026,5.0647,5.1135,5.1655,5.2307,5.287,5.345,5.3849,5.4239,5.4592,5.493,5.5139,5.5294,5.5648,5.6049,5.6454,5.6742,5.6829,5.7015,5.7266,5.7462,5.7496,5.7831,5.8047,5.8178,5.8227,5.8354,5.8483,5.8607,5.8574,5.8614,5.8915,5.8759,5.7705,1.7167,1.7007,1.5552,1.4147,1.2811,1.2596,1.2027,1.1344,1.1281,1.1118,1.0982,1.0982,1.0887,1.0724,1.085,1.1115,1.1247,1.1644,1.2048,1.2305,1.2444,1.27,1.284,1.3104,1.3325,1.3769,1.4159,1.4761,1.5711,1.6848,1.8254,1.975,2.0499,2.1245,2.2096,2.271,2.3337,2.4068,2.5036,2.5877,2.6406,2.6615,2.7079,2.7992,2.8897,2.9819,3.071,3.14,3.219,3.3108,3.3681,3.4338,3.5012,3.555,3.6191,3.6801,3.774,3.8766,3.9973,4.0958,4.1839,4.2535,4.3603,4.4329,4.4527,4.5384,4.5747,4.5566,4.5747,4.5956,4.6046,4.6814,4.7508,4.7819,4.8324,4.8934,4.9291,4.9661,4.9979,5.0136,5.0602,5.1059,5.1327,5.1711,5.2213,5.2974,5.3517,5.3983,5.4274,5.4683,5.5288,5.5999,5.6458,5.6475,5.6339,5.6383,5.6975,5.7562,5.7964,5.825,5.9018,5.9438,5.9578,5.9893,6.003,6.0199,6.0397,6.0481,6.0563,6.0717,6.0374,6.0144,5.9798,5.9815,5.9014,1.7308,1.7137,1.5737,1.4475,1.309,1.2912,1.2335,1.1497,1.1593,1.1572,1.1158,1.1165,1.105,1.0994,1.1242,1.1375,1.1643,1.2178,1.2453,1.2578,1.2805,1.2905,1.2905,1.3252,1.363,1.4006,1.453,1.5453,1.6494,1.8045,1.9456,2.0488,2.1235,2.1978,2.3106,2.3604,2.4363,2.521,2.6205,2.7056,2.7674,2.7687,2.8095,2.8784,2.9695,3.0757,3.183,3.2434,3.3364,3.4491,3.5157,3.5708,3.6495,3.7227,3.7868,3.8712,3.9853,4.087,4.1644,4.2625,4.3396,4.3993,4.4926,4.5595,4.5747,4.6462,4.7019,4.7163,4.7279,4.7336,4.7163,4.7764,4.8324,4.8656,4.9259,4.9661,4.9931,5.037,5.0679,5.0832,5.1359,5.1835,5.2059,5.2424,5.2806,5.3821,5.439,5.4883,5.5334,5.5837,5.6375,5.7281,5.7723,5.7693,5.728,5.7567,5.8011,5.8623,5.9164,5.959,6.0461,6.0765,6.1025,6.0874,6.1528,6.1988,6.1992,6.2183,6.256,6.274,6.2496,6.2021,6.1983,6.1645,6.1696,1.7308,1.7026,1.5603,1.4591,1.3863,1.3279,1.2655,1.1938,1.1795,1.1586,1.1185,1.1179,1.1434,1.1696,1.1696,1.2101,1.265,1.2772,1.2901,1.3295,1.3157,1.3084,1.3076,1.3319,1.3638,1.4059,1.4707,1.5864,1.74,1.8804,1.9966,2.0602,2.1866,2.2731,2.3355,2.4363,2.5226,2.57,2.6692,2.7539,2.848,2.9275,2.9808,3.0374,3.1225,3.1917,3.2737,3.3797,3.4602,3.4914,3.6013,3.6796,3.712,3.8161,3.9208,4.0287,4.1198,4.1993,4.2722,4.3681,4.4555,4.5018,4.5927,4.658,4.6784,4.7452,4.8079,4.8521,4.8975,4.9006,4.853,4.8914,4.934,4.9741,4.9979,5.0402,5.0852,5.1113,5.1285,5.1721,5.229,5.2786,5.3142,5.3112,5.3788,5.4932,5.5706,5.6333,5.7114,5.7595,5.8084,5.8509,5.8646,5.8464,5.9131,5.8746,5.9283,5.9798,5.989,6.0517,6.0988,6.1321,6.1487,6.1801,6.2372,6.2861,6.3312,6.3761,6.4237,6.4481,6.4641,6.4428,6.3923,6.4882,6.4775,1.7026,1.6461,1.5479,1.4759,1.4324,1.3839,1.3097,1.2244,1.2321,1.2016,1.1592,1.174,1.2016,1.244,1.2574,1.2742,1.2826,1.3093,1.3231,1.3368,1.3295,1.3271,1.3399,1.3874,1.4118,1.4361,1.5329,1.664,1.8185,1.92,2.0208,2.1235,2.2104,2.3106,2.41,2.521,2.6067,2.6796,2.7779,2.8618,2.9313,3.0138,3.084,3.1536,3.2113,3.2799,3.3459,3.4357,3.5157,3.6036,3.6796,3.7548,3.8161,3.9233,4.0364,4.1398,4.2065,4.2846,4.3776,4.4712,4.5475,4.6046,4.6901,4.7538,4.788,4.8775,4.9636,5.0191,5.1006,5.1357,5.1247,5.0676,5.0214,5.0602,5.094,5.1469,5.2202,5.2565,5.3063,5.3784,5.4347,5.4801,5.4771,5.4295,5.4459,5.6215,5.7834,5.8457,5.8078,5.8296,5.9066,5.9926,6.0227,6.066,6.1679,5.9713,5.8857,5.9541,6.0034,6.0624,6.1102,6.1576,6.1845,6.1958,6.2627,6.2947,6.3166,6.3702,6.4428,6.4603,6.4928,6.5241,6.5624,6.5526,6.5653,1.6945,1.6188,1.547,1.5044,1.4617,1.4047,1.3333,1.2474,1.261,1.233,1.1763,1.2051,1.2474,1.2753,1.3182,1.3208,1.3137,1.34,1.3547,1.3539,1.349,1.3457,1.3717,1.4216,1.4591,1.4982,1.6355,1.762,1.8712,1.9579,2.068,2.174,2.248,2.3479,2.4734,2.5717,2.6675,2.7642,2.8618,2.945,3.0274,3.0956,3.1767,3.2664,3.3233,3.3685,3.4357,3.5024,3.5904,3.6904,3.7655,3.8582,3.9622,4.0567,4.1471,4.2457,4.3039,4.3859,4.506,4.5945,4.6874,4.7614,4.8399,4.8998,4.9334,5.0215,5.0974,5.1662,5.2266,5.2948,5.3323,5.2671,5.201,5.216,5.2375,5.2869,5.3699,5.4167,5.4794,5.5412,5.5825,5.6235,5.6368,5.551,5.5973,5.7428,5.9549,6.0068,5.9408,5.9545,6.0195,6.1151,6.1368,6.1716,6.215,6.0794,6.0174,6.0772,6.0752,6.1147,6.1241,6.1769,6.206,6.2167,6.2406,6.2666,6.3064,6.3576,6.3924,6.4129,6.4268,6.4556,6.4987,6.5363,6.5522,1.7073,1.6226,1.5763,1.5355,1.4927,1.4198,1.3468,1.2896,1.2753,1.233,1.1763,1.2051,1.2474,1.2896,1.3182,1.3452,1.3713,1.3839,1.3847,1.3839,1.3709,1.3776,1.4187,1.4457,1.5055,1.5729,1.7453,1.8528,1.909,2.0371,2.1416,2.2174,2.3149,2.4146,2.5103,2.6205,2.7177,2.814,2.9076,3.0138,3.1208,3.1883,3.2778,3.3909,3.4469,3.4914,3.5024,3.6036,3.6904,3.7655,3.8582,3.993,4.1272,4.1895,4.2555,4.3519,4.4087,4.5182,4.6563,4.7346,4.8297,4.9364,5.0451,5.0714,5.1152,5.1501,5.2059,5.2948,5.3237,5.3527,5.456,5.4822,5.4689,5.4353,5.4302,5.4701,5.5156,5.5649,5.6235,5.681,5.6946,5.6805,5.7126,5.7086,5.7583,5.8994,6.0306,6.1105,6.0912,6.1148,6.1842,6.2281,6.2353,6.2466,6.2294,6.1991,6.2151,6.2351,6.2058,6.203,6.1617,6.1822,6.1723,6.185,6.2347,6.2617,6.29,6.3407,6.3923,6.4144,6.4113,6.4367,6.4928,6.5488,6.5446,1.7524,1.6594,1.6011,1.5669,1.5228,1.4239,1.3468,1.2896,1.2753,1.2474,1.2194,1.2474,1.276,1.3182,1.3468,1.3761,1.3904,1.3904,1.3904,1.3888,1.3839,1.3956,1.4373,1.4745,1.5626,1.6894,1.8233,1.9194,2.005,2.1188,2.2087,2.2865,2.3821,2.4828,2.5872,2.6935,2.814,2.9331,3.0274,3.1189,3.2227,3.2913,3.3685,3.458,3.5356,3.6122,3.6989,3.7227,3.7761,3.8607,3.944,4.0668,4.2164,4.2943,4.3614,4.4555,4.511,4.5776,4.6786,4.7695,4.8773,4.9712,5.0227,5.0767,5.1742,5.2584,5.3323,5.4175,5.5123,5.6162,5.6593,5.7065,5.6626,5.518,5.5366,5.599,5.6641,5.7604,5.8356,5.8692,5.8789,5.895,5.9201,5.9116,5.9364,6.0225,6.1152,6.1717,6.1672,6.1987,6.2464,6.288,6.2919,6.3163,6.3355,6.3493,6.3689,6.3389,6.3013,6.2671,6.2269,6.1856,6.1735,6.1896,6.2362,6.2721,6.2965,6.3379,6.398,6.4617,6.4942,6.5264,6.5545,6.563,6.5595,1.8036,1.7077,1.6651,1.6158,1.543,1.4583,1.377,1.2994,1.2994,1.2676,1.2194,1.2753,1.3039,1.3325,1.3753,1.3904,1.3904,1.3904,1.4047,1.4047,1.4189,1.4332,1.4759,1.5753,1.6676,1.7812,1.9025,1.9995,2.0831,2.2005,2.3042,2.3823,2.4914,2.5833,2.6851,2.8043,2.9195,3.0249,3.1171,3.2113,3.3119,3.3797,3.458,3.5466,3.634,3.7311,3.8291,3.8502,3.8921,3.975,4.0567,4.1842,4.33,4.3871,4.4648,4.5475,4.6106,4.6727,4.7752,4.8645,4.9615,5.061,5.1164,5.1901,5.3013,5.3934,5.4698,5.5647,5.6533,5.7504,5.7853,5.8422,5.8048,5.7053,5.7089,5.7535,5.8288,5.8972,5.9482,5.9744,5.9972,6.0262,6.0477,6.0626,6.076,6.1328,6.1795,6.2148,6.2114,6.2412,6.2904,6.3326,6.3543,6.3995,6.474,6.4973,6.512,6.4547,6.3858,6.3427,6.3009,6.25,6.2245,6.2574,6.3008,6.3167,6.3457,6.3851,6.4357,6.5047,6.5464,6.5103,6.4994,6.56,6.5709,1.8642,1.7566,1.7399,1.6664,1.5641,1.5163,1.4318,1.3182,1.3459,1.2939,1.21,1.2827,1.3221,1.3348,1.3802,1.3937,1.3904,1.3904,1.4189,1.4474,1.4617,1.4901,1.5328,1.6875,1.7851,1.8681,1.9935,2.0921,2.1513,2.2835,2.4144,2.5024,2.6024,2.725,2.8071,2.9115,3.0092,3.0914,3.1812,3.2892,3.4022,3.4692,3.5466,3.6688,3.7334,3.8185,3.9129,3.9955,4.0364,4.0795,4.2039,4.33,4.4369,4.4926,4.5656,4.658,4.7046,4.792,4.912,4.9885,5.0919,5.2122,5.3086,5.4276,5.482,5.5388,5.607,5.6902,5.7454,5.7842,5.8425,5.8909,5.9147,5.9351,5.9007,5.921,5.9679,5.9844,6.0008,6.0297,6.0547,6.0757,6.1093,6.127,6.1501,6.182,6.215,6.242,6.2808,6.3162,6.339,6.387,6.4556,6.5076,6.5918,6.6175,6.6345,6.6173,6.5505,6.5015,6.4277,6.3707,6.3161,6.3456,6.3765,6.389,6.4124,6.4597,6.4804,6.5178,6.5065,6.438,6.4762,6.5673,6.6004,1.8963,1.784,1.7683,1.702,1.5808,1.5249,1.4424,1.3341,1.3629,1.3295,1.2809,1.3405,1.3759,1.3672,1.3954,1.4034,1.408,1.4198,1.4332,1.4617,1.547,1.5753,1.6178,1.7449,1.8573,1.9262,2.0515,2.1584,2.2479,2.3663,2.473,2.5474,2.6874,2.7765,2.8571,2.9757,3.0715,3.1639,3.2653,3.3685,3.458,3.5488,3.6363,3.7334,3.808,3.9025,4.0185,4.1644,4.2262,4.2262,4.33,4.4462,4.5384,4.6077,4.6784,4.7478,4.8157,4.8718,4.9603,5.0578,5.1821,5.3064,5.3766,5.4503,5.5746,5.6331,5.6795,5.7423,5.8153,5.8839,5.9114,5.9488,5.9818,6.0043,6.0118,6.0048,6.0171,6.036,6.0485,6.0696,6.0889,6.126,6.1609,6.1836,6.2095,6.2367,6.2777,6.3218,6.3726,6.4177,6.4584,6.5571,6.6244,6.6597,6.6971,6.7254,6.7522,6.7706,6.7438,6.7256,6.6343,6.544,6.4929,6.4688,6.4993,6.5181,6.5294,6.5582,6.5649,6.5597,6.5758,6.5672,6.5918,6.655,6.6519,1.939,1.8319,1.819,1.7237,1.6019,1.5763,1.4777,1.3814,1.4097,1.3901,1.3401,1.3839,1.408,1.4139,1.4278,1.4326,1.4314,1.4441,1.4837,1.547,1.6603,1.7026,1.7449,1.8433,1.9262,2.0098,2.1346,2.2448,2.3393,2.4495,2.5725,2.6735,2.7897,2.8876,2.9759,3.0781,3.1722,3.2629,3.3586,3.458,3.5488,3.6363,3.7227,3.808,3.8896,3.9955,4.1471,4.2916,4.3586,4.3681,4.4434,4.5446,4.6344,4.7046,4.7734,4.8407,4.9066,4.9756,5.0581,5.1591,5.2725,5.3912,5.4543,5.5462,5.6516,5.7216,5.7773,5.829,5.9076,5.9624,6.0206,6.0714,6.1213,6.1608,6.1502,6.1219,6.0715,6.1051,6.128,6.1628,6.2081,6.2529,6.2779,6.3002,6.3274,6.3649,6.4002,6.4488,6.4964,6.5411,6.5951,6.6811,6.7353,6.7614,6.8045,6.8387,6.8887,6.9064,6.92,6.9082,6.8277,6.7307,6.7176,6.6814,6.6618,6.641,6.6502,6.6499,6.6327,6.6422,6.675,6.6795,6.6797,6.6754,6.6745,1.9693,1.8653,1.8643,1.7731,1.6348,1.6195,1.532,1.4294,1.4581,1.435,1.4097,1.4348,1.4513,1.4613,1.4456,1.4506,1.477,1.4728,1.5471,1.6377,1.759,1.8293,1.8573,1.9262,2.0098,2.0931,2.231,2.327,2.406,2.5398,2.6706,2.7867,2.9042,3.014,3.0897,3.1897,3.2901,3.3696,3.451,3.5466,3.6363,3.7227,3.808,3.8896,4.0032,4.1246,4.2722,4.3965,4.4648,4.4712,4.5566,4.6344,4.7276,4.7988,4.8749,4.9577,5.02,5.1005,5.2017,5.2888,5.3709,5.4955,5.6017,5.6824,5.7805,5.8668,5.9357,5.9768,5.9927,6.0644,6.1395,6.2358,6.2789,6.2942,6.3173,6.2663,6.1782,6.195,6.2498,6.2677,6.3733,6.423,6.4565,6.4694,6.4892,6.4655,6.5041,6.5493,6.6044,6.6587,6.7112,6.777,6.8182,6.8388,6.8985,6.9568,7.0093,7.0521,7.0719,7.061,6.9904,6.9317,6.9499,6.9284,6.8336,6.7754,6.7555,6.7411,6.7146,6.6757,6.6752,6.6781,6.6766,6.6706,6.6674,1.9693,1.8653,1.8653,1.7731,1.6357,1.6203,1.5573,1.4452,1.4758,1.4718,1.4397,1.4694,1.4765,1.4651,1.4643,1.4844,1.5103,1.5267,1.5803,1.7046,1.7872,1.8993,1.9552,2.0249,2.0804,2.1622,2.2448,2.3529,2.4709,2.5692,2.6756,2.8156,2.9492,3.0519,3.1416,3.2552,3.3487,3.435,3.5179,3.6231,3.7227,3.7974,3.8816,3.9955,4.1345,4.2722,4.3965,4.5018,4.5808,4.6403,4.6872,4.7452,4.8248,4.8996,4.9864,5.0914,5.1669,5.253,5.3639,5.4725,5.5749,5.6554,5.7857,5.9105,5.9598,6.0497,6.1257,6.1698,6.1963,6.2123,6.2726,6.3084,6.3555,6.375,6.386,6.3896,6.3653,6.3595,6.3703,6.4007,6.4266,6.4545,6.4967,6.5238,6.5463,6.5644,6.6049,6.6491,6.7111,6.7789,6.8299,6.8827,6.9218,6.9475,6.9816,7.0387,7.0733,7.1203,7.1481,7.165,7.097,7.0658,7.0544,7.018,6.9616,6.9132,6.8672,6.8123,6.7765,6.7277,6.6856,6.6876,6.6915,6.679,6.6591,1.9995,1.8946,1.8643,1.7731,1.6662,1.651,1.5744,1.4976,1.513,1.4968,1.4661,1.4814,1.4911,1.483,1.4974,1.5337,1.5598,1.6287,1.6808,1.7653,1.8595,1.9386,2.011,2.1081,2.176,2.2421,2.3242,2.4281,2.5263,2.6221,2.7309,2.8553,2.9828,3.1016,3.2037,3.3256,3.428,3.5224,3.6122,3.7096,3.7974,3.8816,3.993,4.1345,4.2819,4.4153,4.4989,4.6077,4.6959,4.7709,4.8462,4.9066,4.9563,5.0165,5.1152,5.2248,5.3106,5.427,5.5547,5.656,5.7577,5.876,5.9935,6.0494,6.112,6.1811,6.2153,6.2455,6.2752,6.3052,6.3788,6.4536,6.4793,6.5011,6.513,6.5366,6.5446,6.5099,6.4788,6.5182,6.5585,6.6026,6.6279,6.6234,6.6703,6.7135,6.7496,6.7928,6.8353,6.8979,6.9359,6.9832,7.0241,7.0546,7.0836,7.1084,7.1248,7.1537,7.1692,7.1799,7.1558,7.1382,7.1281,7.0857,7.0429,7.0072,6.9585,6.9025,6.8528,6.8202,6.7842,6.7409,6.7061,6.6917,6.6625,2.0307,1.9239,1.8795,1.7883,1.6959,1.6806,1.6195,1.5275,1.5429,1.5275,1.5122,1.4968,1.4952,1.5113,1.542,1.5776,1.6355,1.724,1.7905,1.7991,1.9337,2.004,2.0702,2.1696,2.2699,2.312,2.4032,2.4849,2.5735,2.6761,2.7832,2.9261,3.0502,3.1702,3.2888,3.4033,3.5069,3.6036,3.7012,3.7974,3.8816,3.975,4.1145,4.2889,4.4219,4.5235,4.6195,4.7282,4.8201,4.8736,5.0278,5.1096,5.1548,5.1806,5.2617,5.3799,5.483,5.6088,5.7473,5.8321,5.9306,6.1254,6.1603,6.1849,6.2298,6.2743,6.3185,6.3347,6.3612,6.4045,6.4822,6.5536,6.6211,6.6464,6.6655,6.6903,6.691,6.6365,6.6094,6.6262,6.6592,6.7012,6.7426,6.7561,6.8136,6.8623,6.89,6.9209,6.9582,6.9928,7.0175,7.0394,7.07,7.1047,7.1281,7.1426,7.1653,7.172,7.1825,7.1858,7.1912,7.1757,7.1597,7.1593,7.1268,7.081,7.0341,6.9761,6.9362,6.915,6.8667,6.8093,6.7587,6.7113,6.6903,2.0307,1.9239,1.8795,1.8035,1.7273,1.6959,1.6348,1.5582,1.5582,1.5429,1.4968,1.4968,1.5275,1.5429,1.5582,1.5937,1.6701,1.7663,1.8275,1.8633,1.9768,2.0662,2.1358,2.2496,2.3342,2.3969,2.4612,2.5528,2.6312,2.7395,2.8448,2.9804,3.1073,3.2275,3.3494,3.4624,3.5817,3.6904,3.7868,3.8816,3.975,4.0844,4.2306,4.4247,4.5413,4.6491,4.7459,4.8682,4.9634,5.0423,5.2182,5.3696,5.4455,5.4435,5.5025,5.5985,5.7205,5.8369,5.9438,6.0267,6.0765,6.1534,6.237,6.3133,6.3512,6.4168,6.4539,6.4841,6.5134,6.5627,6.6078,6.6344,6.6595,6.6809,6.6925,6.7076,6.7266,6.7176,6.703,6.7158,6.7486,6.7794,6.8018,6.8272,6.8575,6.89,6.9166,6.946,6.9816,7.0144,7.0407,7.0643,7.094,7.1281,7.164,7.1728,7.1823,7.1836,7.1906,7.1914,7.1906,7.1924,7.1864,7.1735,7.1597,7.1282,7.0804,7.0395,7.0003,6.9623,6.9144,6.8664,6.8336,6.7961,6.7895,2.0296,1.9552,1.8946,1.8187,1.7721,1.7273,1.6501,1.5735,1.5744,1.5582,1.5275,1.5275,1.5429,1.5735,1.6042,1.6438,1.7142,1.8029,1.8499,1.9011,2.0082,2.1016,2.176,2.2957,2.3737,2.4372,2.5257,2.6057,2.6734,2.7729,2.8926,3.0287,3.1732,3.3027,3.4357,3.5598,3.6688,3.7761,3.8712,3.9827,4.0945,4.2208,4.3937,4.5321,4.6815,4.7995,4.9286,5.0776,5.2009,5.3013,5.4566,5.5831,5.6671,5.7463,5.7897,5.8308,5.922,6.0211,6.1047,6.1731,6.2228,6.3066,6.3832,6.4212,6.4588,6.5065,6.564,6.5895,6.6083,6.633,6.6416,6.6632,6.6845,6.7019,6.7134,6.7303,6.747,6.7633,6.7741,6.7794,6.7899,6.807,6.8272,6.8565,6.8855,6.9203,6.9457,6.9777,7.0076,7.0381,7.0622,7.0951,7.1221,7.149,7.1809,7.1877,7.1924,7.195,7.1912,7.1939,7.187,7.1823,7.177,7.1689,7.1575,7.1433,7.134,7.0953,7.058,7.0157,6.9768,6.9375,6.9085,6.8872,6.8783,2.0447,1.9844,1.9098,1.8491,1.8025,1.7578,1.6815,1.5897,1.605,1.5744,1.5275,1.5429,1.5735,1.6042,1.6501,1.7111,1.7426,1.8177,1.8823,1.9393,2.0466,2.1363,2.2087,2.3037,2.4058,2.4826,2.5907,2.676,2.7221,2.8318,2.9587,3.0995,3.2571,3.4022,3.5245,3.6472,3.7655,3.8712,3.9827,4.0945,4.2377,4.4209,4.571,4.6697,4.8233,4.9708,5.0963,5.2511,5.3661,5.4794,5.6221,5.7549,5.8219,5.9833,6.0646,6.0419,6.0904,6.1718,6.2354,6.2922,6.3555,6.4321,6.4773,6.5114,6.5278,6.5668,6.6057,6.6269,6.6488,6.6572,6.6691,6.6867,6.7076,6.719,6.7359,6.7524,6.7633,6.7794,6.8004,6.807,6.8171,6.8457,6.8772,6.8846,6.9116,6.9419,6.9699,7.0001,7.0281,7.0554,7.0889,7.1241,7.1505,7.1711,7.1891,7.1936,7.1952,7.1986,7.1928,7.1897,7.1807,7.1739,7.1667,7.1598,7.152,7.1409,7.1472,7.1455,7.1007,7.059,7.0367,7.0141,6.9862,6.9602,6.947,2.0748,1.9844,1.9401,1.8946,1.8491,1.7731,1.6968,1.6203,1.6203,1.5897,1.5429,1.559,1.6042,1.6653,1.6968,1.7273,1.7578,1.8187,1.8916,1.9714,2.0966,2.1951,2.2677,2.4032,2.4765,2.536,2.6511,2.7245,2.8108,2.9368,3.0723,3.1998,3.3459,3.4914,3.6122,3.7334,3.8396,3.9519,4.0818,4.2431,4.4359,4.6177,4.7406,4.8531,4.9855,5.1234,5.2384,5.3809,5.4777,5.5385,5.7255,5.8327,5.9025,6.0188,6.1487,6.2361,6.2986,6.3397,6.3724,6.4148,6.446,6.5011,6.5313,6.5611,6.5768,6.6021,6.6366,6.6452,6.6704,6.6895,6.7106,6.7206,6.7283,6.7541,6.7835,6.7944,6.7978,6.8668,6.8763,6.8951,6.9283,6.9211,6.9327,6.9272,6.9332,6.9659,6.9966,7.0247,7.0639,7.0991,7.1407,7.1824,7.2234,7.247,7.2287,7.2304,7.202,7.2026,7.1909,7.1819,7.1704,7.1573,7.1536,7.149,7.1397,7.1317,7.1274,7.1208,7.1178,7.0951,7.0645,7.0618,7.0689,7.0383,6.9988,2.1603,2.0145,1.9693,1.9239,1.8491,1.8035,1.7121,1.6357,1.6357,1.6195,1.5735,1.6195,1.6653,1.7111,1.7111,1.7121,1.7578,1.8187,1.9098,2.0091,2.1343,2.2713,2.3647,2.4902,2.5674,2.6482,2.745,2.8577,2.9424,3.0294,3.1421,3.3006,3.4357,3.5795,3.7143,3.8185,3.9312,4.0821,4.2699,4.492,4.6639,4.8028,4.9101,4.9947,5.1452,5.2764,5.3985,5.5393,5.6573,5.7454,5.8907,5.9532,6.012,6.0902,6.1674,6.2472,6.2958,6.3587,6.4427,6.4908,6.5145,6.548,6.5704,6.5958,6.6146,6.6463,6.6704,6.675,6.7361,6.7695,6.7956,6.8398,6.8694,6.8787,6.8733,6.8987,6.9199,6.9554,6.9942,7.0171,7.0338,7.033,7.0244,7.0108,7.0116,7.0232,7.048,7.0731,7.1248,7.1799,7.218,7.2585,7.3009,7.3416,7.3046,7.2804,7.226,7.208,7.1788,7.1719,7.1513,7.1395,7.1378,7.1296,7.1163,7.1091,7.1106,7.1056,7.1005,7.0925,7.0871,7.0787,7.0699,7.054,7.0184,2.2189,2.0776,2.0255,1.9443,1.8643,1.8177,1.7273,1.6357,1.6653,1.6348,1.605,1.6501,1.6959,1.7111,1.6959,1.7111,1.7578,1.8339,1.9239,2.0358,2.1858,2.3194,2.4496,2.5662,2.6956,2.7694,2.901,3.0174,3.1165,3.1938,3.3025,3.3952,3.5245,3.6781,3.8355,3.9586,4.0773,4.3022,4.5077,4.6986,4.8472,4.9673,5.0559,5.167,5.287,5.4255,5.562,5.6731,5.8019,5.8638,5.9235,5.975,6.0249,6.0636,6.1425,6.2204,6.2817,6.3718,6.4599,6.5119,6.549,6.5895,6.6334,6.6787,6.6969,6.7148,6.7579,6.784,6.832,6.8726,6.893,6.9482,6.9668,6.9853,7.0,7.0327,7.0576,7.0772,7.0869,7.0966,7.1244,7.1731,7.1556,7.1143,7.0986,7.0903,7.1051,7.1332,7.1965,7.2707,7.3055,7.347,7.3725,7.4023,7.3741,7.3315,7.2704,7.2078,7.1796,7.1536,7.1358,7.1278,7.1231,7.113,7.0979,7.0925,7.0925,7.0871,7.0843,7.0787,7.0729,7.0639,7.0515,7.0419,7.0217,2.2722,2.1734,2.1044,1.9917,1.8663,1.8177,1.7273,1.6357,1.6653,1.6653,1.6203,1.6501,1.6806,1.6806,1.6959,1.7264,1.8025,1.8785,1.9693,2.1026,2.2608,2.3812,2.5186,2.6846,2.8435,2.9447,3.0701,3.2142,3.3536,3.444,3.4868,3.5113,3.6691,3.8216,3.9879,4.1466,4.3359,4.5511,4.7297,4.8407,4.9854,5.1045,5.2168,5.306,5.4402,5.562,5.629,5.7196,5.7857,5.8321,5.8863,5.9426,5.9873,6.0241,6.0944,6.2053,6.2942,6.3974,6.5018,6.5484,6.5546,6.6269,6.7162,6.7873,6.8051,6.8881,6.9289,6.9216,6.9477,6.9738,6.9868,6.9998,7.0477,7.0808,7.1082,7.1309,7.1478,7.1712,7.1799,7.1801,7.2175,7.2846,7.3193,7.2876,7.2286,7.2154,7.2388,7.2631,7.3198,7.3873,7.4108,7.4384,7.449,7.4564,7.4374,7.3844,7.3041,7.222,7.1719,7.1455,7.1236,7.1163,7.1106,7.0979,7.0843,7.0787,7.0729,7.0699,7.0699,7.0708,7.0647,7.0522,7.0319,7.0109,6.9928,2.2969,2.2019,2.1771,2.057,1.8845,1.8692,1.7846,1.6824,1.6959,1.6959,1.6501,1.651,1.6501,1.6806,1.6806,1.7264,1.8025,1.9088,2.0135,2.1325,2.2769,2.4596,2.6099,2.785,2.9523,3.0839,3.2283,3.3701,3.478,3.6453,3.782,3.8366,3.8983,4.0389,4.2047,4.3979,4.6083,4.7655,4.9085,5.0095,5.1601,5.2635,5.366,5.453,5.536,5.629,5.6911,5.7514,5.7954,5.8385,5.8806,5.9284,5.9753,6.0142,6.1043,6.222,6.3249,6.4591,6.5971,6.6512,6.7282,6.8137,6.8764,6.9027,6.9085,6.9566,6.9733,6.99,7.0417,7.0751,7.09,7.136,7.1876,7.2022,7.2124,7.2272,7.2447,7.2707,7.2981,7.3123,7.3639,7.4258,7.4552,7.4708,7.3991,7.3418,7.3674,7.3976,7.4495,7.4927,7.5155,7.5349,7.5423,7.5345,7.5161,7.4326,7.3333,7.25,7.1706,7.1347,7.1116,7.1017,7.0952,7.0815,7.0729,7.0678,7.0647,7.0547,7.0547,7.0585,7.049,7.0358,7.0111,6.9891,6.9661,2.3093,2.2293,2.2123,2.0895,1.9243,1.8997,1.8116,1.706,1.7301,1.7121,1.6806,1.651,1.651,1.6806,1.6959,1.7416,1.8329,1.939,2.0436,2.1786,2.3413,2.5332,2.7141,2.8996,3.0855,3.2205,3.3861,3.534,3.675,3.8253,3.9652,4.0922,4.1923,4.3068,4.4203,4.6542,4.8557,4.961,5.0573,5.1605,5.3196,5.4008,5.4768,5.5588,5.6257,5.6877,5.7439,5.7954,5.8385,5.8702,5.9149,5.9551,6.0183,6.0783,6.1654,6.277,6.4172,6.5658,6.6967,6.8051,6.8764,6.9209,6.9894,6.9967,7.0098,7.0397,7.0893,7.0971,7.1394,7.1765,7.1932,7.2355,7.2704,7.277,7.3029,7.3243,7.3569,7.3808,7.4185,7.4513,7.4942,7.5127,7.5315,7.5505,7.5401,7.4966,7.5255,7.5376,7.5551,7.5891,7.6087,7.6247,7.6404,7.6253,7.5989,7.4732,7.3568,7.2946,7.2136,7.126,7.0979,7.0898,7.0787,7.0737,7.0647,7.0554,7.0522,7.0451,7.0451,7.049,7.0324,7.0149,6.9966,6.9738,6.9419,2.3038,2.2556,2.2061,2.0974,1.9457,1.9068,1.8358,1.7207,1.7358,1.7121,1.6806,1.6653,1.6806,1.6959,1.7273,1.7873,1.8785,1.9984,2.1037,2.2384,2.4166,2.5932,2.7939,2.9867,3.1896,3.3845,3.5664,3.7225,3.868,4.0208,4.168,4.3234,4.452,4.5538,4.5901,4.8167,5.0095,5.1109,5.1972,5.2989,5.4008,5.4883,5.5653,5.6369,5.6911,5.7439,5.7954,5.8385,5.8702,5.9046,5.9757,6.0288,6.072,6.2167,6.3182,6.3979,6.61,6.7511,6.8291,6.9099,6.9748,7.0077,7.0741,7.1019,7.1259,7.1741,7.2186,7.1985,7.2429,7.2687,7.2871,7.3034,7.3246,7.354,7.3789,7.4029,7.4305,7.4525,7.4816,7.5095,7.5354,7.566,7.589,7.6146,7.6438,7.6488,7.6755,7.679,7.6627,7.6592,7.6638,7.6644,7.6761,7.6612,7.6116,7.4848,7.3812,7.3249,7.2508,7.1568,7.0958,7.0767,7.0678,7.0585,7.0554,7.049,7.0419,7.0353,7.0319,7.0289,7.0114,6.9929,6.9776,6.9617,6.9327,2.3199,2.2889,2.2234,2.1168,2.0185,1.9661,1.8789,1.7564,1.7376,1.7121,1.6806,1.6806,1.6959,1.7273,1.7721,1.8329,1.939,2.0597,2.1798,2.3129,2.4757,2.6794,2.866,3.066,3.263,3.4571,3.6614,3.8444,3.9779,4.1548,4.324,4.4869,4.6645,4.7961,4.8593,4.9994,5.1363,5.2002,5.2962,5.4008,5.4883,5.5653,5.6447,5.7139,5.7514,5.7954,5.8385,5.8806,5.9218,5.9693,6.0463,6.1383,6.2195,6.3681,6.4822,6.6053,6.8028,6.9346,7.042,7.1443,7.1594,7.1668,7.1684,7.2018,7.2222,7.2426,7.2723,7.2835,7.2945,7.3054,7.3215,7.3401,7.3604,7.3923,7.416,7.4387,7.4649,7.4816,7.5056,7.5318,7.5628,7.5957,7.621,7.64,7.6653,7.6843,7.6934,7.699,7.6868,7.6833,7.6878,7.68,7.6794,7.6699,7.6187,7.505,7.4021,7.3369,7.258,7.1699,7.1198,7.0724,7.0662,7.0636,7.0528,7.0419,7.062,7.0667,7.0261,7.0041,7.0081,6.9964,6.9728,6.9557,6.929,2.305,2.305,2.2084,2.1265,2.0575,1.9896,1.8907,1.7893,1.752,1.7273,1.7111,1.6968,1.7264,1.7721,1.8177,1.8785,1.9995,2.1199,2.2235,2.3561,2.5332,2.723,2.9091,3.1226,3.3327,3.5393,3.74,3.9213,4.0612,4.2497,4.4314,4.6376,4.8387,4.9177,5.0035,5.1047,5.2183,5.2846,5.3868,5.4883,5.5733,5.6447,5.7063,5.7588,5.8027,5.8385,5.8875,5.9356,5.9902,6.0543,6.1665,6.2832,6.3957,6.535,6.6603,6.81,6.9708,7.0894,7.1919,7.2463,7.2502,7.2576,7.2667,7.2723,7.2779,7.2835,7.2945,7.3108,7.3215,7.3424,7.3578,7.3752,7.3981,7.4289,7.4513,7.4691,7.4897,7.5095,7.5318,7.5595,7.5908,7.6224,7.6477,7.663,7.6838,7.6919,7.7013,7.7029,7.7028,7.6995,7.6965,7.6858,7.6715,7.6594,7.6156,7.5349,7.4383,7.3514,7.2707,7.1965,7.1068,7.0554,7.0636,7.0801,7.0954,7.1073,7.1125,7.1058,7.0799,7.0612,7.0455,7.0218,6.9825,6.9641,6.9556,2.2878,2.305,2.1761,2.1103,2.0565,1.9896,1.8917,1.7738,1.753,1.7435,1.7426,1.7426,1.7578,1.8025,1.8785,1.939,2.0145,2.1499,2.2682,2.4005,2.5918,2.7795,2.9806,3.193,3.402,3.6209,3.82,3.9995,4.1456,4.36,4.5639,4.7378,4.8979,5.0038,5.0941,5.194,5.2908,5.3782,5.4717,5.5701,5.6447,5.7139,5.7662,5.8099,5.8456,5.8875,5.9528,6.0384,6.1099,6.2123,6.3492,6.4349,6.5636,6.733,6.8471,6.9769,7.1399,7.205,7.2516,7.2872,7.3,7.3054,7.3054,7.3037,7.3091,7.3108,7.3268,7.3424,7.3578,7.3777,7.3923,7.4113,7.4297,7.4519,7.4771,7.4937,7.5171,7.5392,7.5595,7.5879,7.616,7.6433,7.6682,7.6843,7.6926,7.6977,7.7031,7.7013,7.6978,7.6942,7.6882,7.6747,7.6632,7.6471,7.5978,7.5463,7.4784,7.3906,7.3123,7.2339,7.1395,7.0904,7.1331,7.1642,7.1718,7.1765,7.1852,7.1747,7.156,7.1329,7.1052,7.0809,7.048,7.0209,7.0113,2.2878,2.305,2.1761,2.0941,2.0413,1.9243,1.836,1.7946,1.7728,1.7577,1.7426,1.7426,1.7731,1.8491,1.8936,1.9844,2.0898,2.2097,2.3426,2.4891,2.6502,2.866,3.0801,3.277,3.4983,3.6998,3.8951,4.0634,4.2437,4.4552,4.6541,4.8098,4.9727,5.0887,5.2002,5.317,5.3836,5.4601,5.562,5.6369,5.7063,5.7662,5.8133,5.8665,5.9047,5.9663,6.0726,6.1722,6.2611,6.3839,6.5347,6.6567,6.8028,6.9235,7.0216,7.1472,7.2255,7.2553,7.2872,7.3145,7.332,7.3372,7.3424,7.3476,7.3513,7.3476,7.3578,7.3728,7.3875,7.4066,7.4252,7.4387,7.4563,7.4771,7.5015,7.5171,7.5392,7.5595,7.5848,7.6147,7.6427,7.6591,7.6833,7.6926,7.697,7.7031,7.7048,7.6997,7.6926,7.6909,7.6791,7.6669,7.6493,7.6335,7.6133,7.5707,7.5019,7.4319,7.3603,7.2964,7.2434,7.2133,7.2367,7.2525,7.2643,7.2612,7.2505,7.2358,7.2202,7.1924,7.16,7.1388,7.1208,7.0965,7.0759,2.305,2.305,2.2084,2.1103,2.0262,1.9018,1.8361,1.8144,1.7851,1.7615,1.7435,1.7578,1.8035,1.8643,1.939,2.0296,2.136,2.2694,2.4031,2.5492,2.723,2.9377,3.1367,3.3605,3.5782,3.776,3.9649,4.1228,4.3167,4.5604,4.7688,4.9108,5.0573,5.1789,5.2962,5.4094,5.5099,5.5668,5.6414,5.7063,5.7621,5.8133,5.8804,5.953,5.9939,6.0928,6.227,6.3341,6.4508,6.5716,6.7275,6.8598,6.9781,7.0617,7.1427,7.2443,7.2761,7.2945,7.3199,7.341,7.3578,7.3678,7.3864,7.3923,7.3923,7.3923,7.3971,7.4066,7.4206,7.4342,7.4519,7.4649,7.4816,7.5015,7.5171,7.5392,7.5595,7.5818,7.6095,7.6427,7.663,7.6819,7.6946,7.6995,7.7029,7.7022,7.6972,7.6936,7.6858,7.6816,7.6721,7.6555,7.6421,7.6225,7.6034,7.5818,7.5232,7.4637,7.415,7.3624,7.3284,7.3055,7.2979,7.3254,7.3677,7.3608,7.361,7.3116,7.2841,7.2553,7.241,7.2173,7.1984,7.1703,7.1574,2.3211,2.305,2.2084,2.0941,1.9967,1.8981,1.8541,1.8324,1.7936,1.7643,1.7492,1.7883,1.8177,1.8795,1.9693,2.0748,2.1798,2.3141,2.4623,2.5932,2.8099,3.0091,3.2211,3.4296,3.6594,3.8561,4.0307,4.2122,4.4177,4.6384,4.8538,5.0095,5.1604,5.2815,5.3836,5.5017,5.5988,5.6768,5.7348,5.8005,5.8375,5.8907,5.9633,6.0736,6.1488,6.2405,6.4137,6.539,6.6531,6.7824,6.9146,7.0372,7.0969,7.1655,7.2406,7.2798,7.3108,7.3268,7.3424,7.3715,7.3912,7.4056,7.4197,7.4402,7.4523,7.4281,7.4252,7.4342,7.4476,7.4789,7.4993,7.5311,7.5471,7.5932,7.6306,7.6514,7.667,7.6707,7.6614,7.6826,7.6777,7.6916,7.6978,7.7064,7.7029,7.7034,7.6917,7.6858,7.6801,7.6704,7.6594,7.6488,7.6326,7.6118,7.5947,7.5718,7.5321,7.4839,7.4576,7.435,7.4049,7.3781,7.3514,7.3979,7.4442,7.4751,7.4714,7.4061,7.3586,7.3596,7.3363,7.3067,7.2732,7.2198,7.1932,2.305,2.2556,2.1103,2.013,1.9479,1.9,1.855,1.8333,1.8087,1.7842,1.7653,1.7961,1.8329,1.9088,1.9984,2.1048,2.2247,2.3587,2.5051,2.6794,2.8804,3.0943,3.3188,3.5256,3.7554,3.9498,4.1274,4.3214,4.5526,4.764,4.9288,5.0828,5.2336,5.3577,5.4685,5.5941,5.69,5.7897,5.8885,5.9587,6.0114,6.0289,6.0842,6.2361,6.3458,6.4557,6.6117,6.7474,6.8553,6.9741,7.076,7.1539,7.2007,7.2593,7.2945,7.3215,7.3372,7.3527,7.3803,7.4036,7.4301,7.4356,7.4531,7.4928,7.5054,7.4664,7.4551,7.4638,7.4918,7.5305,7.5656,7.6006,7.6313,7.6878,7.7394,7.7553,7.7766,7.7548,7.7293,7.7175,7.7077,7.7114,7.7211,7.707,7.7052,7.6958,7.6816,7.6738,7.6665,7.6594,7.651,7.6374,7.6186,7.6062,7.5856,7.5692,7.537,7.5264,7.5115,7.4927,7.4775,7.4622,7.4469,7.4819,7.5205,7.5246,7.5056,7.4661,7.4374,7.4229,7.3821,7.333,7.2721,7.2188,7.1955,2.305,2.2579,2.0779,1.9805,1.9316,1.8837,1.8607,1.8456,1.8172,1.7983,1.8135,1.8192,1.8633,1.939,2.0447,2.1499,2.2694,2.4179,2.5639,2.7375,2.9504,3.1649,3.3882,3.6093,3.82,4.0298,4.2803,4.4941,4.705,4.8623,5.0162,5.1789,5.3139,5.4465,5.5685,5.6879,5.8227,5.9447,6.0666,6.1675,6.2301,6.2575,6.3059,6.4544,6.5646,6.6746,6.8031,6.9317,7.0071,7.1029,7.1829,7.2386,7.2705,7.3054,7.3305,7.3564,7.3715,7.3815,7.4121,7.4498,7.4869,7.4997,7.5494,7.6198,7.6402,7.6128,7.6137,7.6259,7.6259,7.6607,7.6807,7.7075,7.7335,7.7777,7.8014,7.8199,7.84,7.8473,7.8409,7.8442,7.8417,7.8493,7.8281,7.7371,7.7362,7.7492,7.7261,7.6676,7.6594,7.6493,7.6397,7.625,7.6118,7.5938,7.5756,7.5666,7.5493,7.5497,7.5501,7.5348,7.5157,7.531,7.5462,7.5427,7.532,7.5247,7.5017,7.4774,7.4438,7.4177,7.38,7.335,7.2761,7.2034,7.1511,2.3062,2.2429,2.0779,1.9642,1.9153,1.8837,1.8673,1.8598,1.8267,1.8227,1.8612,1.8558,1.8846,1.9703,2.0898,2.1948,2.329,2.477,2.6225,2.8243,3.0376,3.2491,3.4708,3.6904,3.9237,4.1706,4.416,4.5994,4.7829,4.9386,5.1109,5.2757,5.4166,5.544,5.6909,5.8413,5.9979,6.1496,6.2927,6.4462,6.4946,6.5114,6.5632,6.6494,6.7661,6.8822,7.0009,7.0896,7.1404,7.1919,7.2537,7.2908,7.3215,7.341,7.3578,7.3815,7.4271,7.4366,7.4703,7.5404,7.5809,7.6198,7.6884,7.7311,7.7434,7.7593,7.7599,7.7756,7.7756,7.7683,7.7875,7.8135,7.8386,7.8769,7.8921,7.8938,7.9222,7.9442,7.9467,7.9549,7.9522,7.9607,7.9056,7.8083,7.7862,7.7973,7.7531,7.6993,7.6555,7.6427,7.6301,7.6145,7.5938,7.5818,7.5692,7.5633,7.5535,7.5535,7.5501,7.5501,7.5501,7.5501,7.5501,7.5465,7.5394,7.5247,7.5055,7.4774,7.4482,7.4122,7.3691,7.3178,7.2328,7.1635,7.0872,2.2395,2.0941,2.0292,1.9479,1.8837,1.8673,1.8673,1.8636,1.8409,1.8529,1.8642,1.8882,1.9274,2.0296,2.1048,2.2247,2.3735,2.5345,2.7085,2.9091,3.1084,3.3327,3.5588,3.7819,4.0725,4.324,4.5381,4.6946,4.8808,5.0501,5.2337,5.4241,5.5718,5.7478,5.9845,6.1095,6.2251,6.3729,6.5056,6.6418,6.7109,6.7278,6.7425,6.8356,6.9525,7.0418,7.1271,7.1852,7.2255,7.265,7.3017,7.332,7.3527,7.3715,7.3901,7.4356,7.4807,7.52,7.5638,7.6375,7.6847,7.7003,7.7576,7.7965,7.82,7.8549,7.8747,7.9248,7.9171,7.8673,7.878,7.911,7.946,8.0136,8.0497,8.0361,8.0416,8.0372,8.0335,8.0119,7.9903,7.9961,7.986,7.9182,7.8798,7.8546,7.7515,7.6924,7.6493,7.6335,7.6198,7.6024,7.5848,7.5756,7.5692,7.5599,7.5535,7.5501,7.5501,7.5501,7.5501,7.5501,7.5501,7.5501,7.5358,7.5209,7.5015,7.4774,7.4394,7.3991,7.3503,7.2926,7.2094,7.1195,7.0404]}]]